<?xml version="1.0" encoding="UTF-8" standalone="no" ?>
<gpx xmlns="http://www.topografix.com/GPX/1/1" xmlns:xsi="http://www.w3.org/2001/XMLSchema-instance" xsi:schemaLocation="http://www.topografix.com/GPX/1/1 http://www.topografix.com/GPX/1/1/gpx.xsd" version="1.1" creator="VisuGPX - https://www.visugpx.com">
  <metadata>
    <name>Baudot - Chaptelat</name>
    <desc><![CDATA[Randonnée VTT -Routes et chemins..........]]></desc>
  </metadata>
  <trk>
    <name><![CDATA[Baudot - Chaptelat_1]]></name>
    <trkseg>
      <trkpt lat="45.88026" lon="1.26658">
        <ele>338.4</ele>
        <time>2018-10-25T07:35:15.000Z</time>
      </trkpt>
      <trkpt lat="45.88026" lon="1.26659">
        <ele>338.4</ele>
        <time>2018-10-25T07:35:33.000Z</time>
      </trkpt>
      <trkpt lat="45.88026" lon="1.2666">
        <ele>338.4</ele>
        <time>2018-10-25T07:35:36.000Z</time>
      </trkpt>
      <trkpt lat="45.88024" lon="1.26659">
        <ele>338.4</ele>
        <time>2018-10-25T07:35:43.000Z</time>
      </trkpt>
      <trkpt lat="45.88025" lon="1.2666">
        <ele>338.4</ele>
        <time>2018-10-25T07:35:54.000Z</time>
      </trkpt>
      <trkpt lat="45.88026" lon="1.26659">
        <ele>338.4</ele>
        <time>2018-10-25T07:35:57.000Z</time>
      </trkpt>
      <trkpt lat="45.88026" lon="1.26658">
        <ele>338.4</ele>
        <time>2018-10-25T07:36:01.000Z</time>
      </trkpt>
      <trkpt lat="45.88025" lon="1.26658">
        <ele>338.4</ele>
        <time>2018-10-25T07:36:06.000Z</time>
      </trkpt>
      <trkpt lat="45.88024" lon="1.2666">
        <ele>338.4</ele>
        <time>2018-10-25T07:36:09.000Z</time>
      </trkpt>
      <trkpt lat="45.88026" lon="1.26659">
        <ele>338.4</ele>
        <time>2018-10-25T07:36:12.000Z</time>
      </trkpt>
      <trkpt lat="45.88029" lon="1.26656">
        <ele>338.4</ele>
        <time>2018-10-25T07:36:15.000Z</time>
      </trkpt>
      <trkpt lat="45.88033" lon="1.26652">
        <ele>338.4</ele>
        <time>2018-10-25T07:36:18.000Z</time>
      </trkpt>
      <trkpt lat="45.88037" lon="1.26646">
        <ele>338.4</ele>
        <time>2018-10-25T07:36:21.000Z</time>
      </trkpt>
      <trkpt lat="45.88041" lon="1.26639">
        <ele>338.4</ele>
        <time>2018-10-25T07:36:24.000Z</time>
      </trkpt>
      <trkpt lat="45.88045" lon="1.26631">
        <ele>338.4</ele>
        <time>2018-10-25T07:36:27.000Z</time>
      </trkpt>
      <trkpt lat="45.88047" lon="1.26623">
        <ele>338.4</ele>
        <time>2018-10-25T07:36:30.000Z</time>
      </trkpt>
      <trkpt lat="45.8805" lon="1.26612">
        <ele>338.4</ele>
        <time>2018-10-25T07:36:33.000Z</time>
      </trkpt>
      <trkpt lat="45.88054" lon="1.26602">
        <ele>338.5</ele>
        <time>2018-10-25T07:36:36.000Z</time>
      </trkpt>
      <trkpt lat="45.88055" lon="1.26575">
        <ele>338.7</ele>
        <time>2018-10-25T07:36:42.000Z</time>
      </trkpt>
      <trkpt lat="45.88053" lon="1.26563">
        <ele>338.8</ele>
        <time>2018-10-25T07:36:45.000Z</time>
      </trkpt>
      <trkpt lat="45.8805" lon="1.26551">
        <ele>338.9</ele>
        <time>2018-10-25T07:36:48.000Z</time>
      </trkpt>
      <trkpt lat="45.88047" lon="1.26539">
        <ele>338.9</ele>
        <time>2018-10-25T07:36:51.000Z</time>
      </trkpt>
      <trkpt lat="45.88043" lon="1.26528">
        <ele>338.8</ele>
        <time>2018-10-25T07:36:54.000Z</time>
      </trkpt>
      <trkpt lat="45.88038" lon="1.26518">
        <ele>338.8</ele>
        <time>2018-10-25T07:36:57.000Z</time>
      </trkpt>
      <trkpt lat="45.88034" lon="1.26507">
        <ele>338.7</ele>
        <time>2018-10-25T07:37:00.000Z</time>
      </trkpt>
      <trkpt lat="45.8803" lon="1.26497">
        <ele>338.6</ele>
        <time>2018-10-25T07:37:03.000Z</time>
      </trkpt>
      <trkpt lat="45.88026" lon="1.26488">
        <ele>338.5</ele>
        <time>2018-10-25T07:37:07.000Z</time>
      </trkpt>
      <trkpt lat="45.88022" lon="1.26477">
        <ele>338.6</ele>
        <time>2018-10-25T07:37:09.000Z</time>
      </trkpt>
      <trkpt lat="45.88018" lon="1.26466">
        <ele>338.7</ele>
        <time>2018-10-25T07:37:12.000Z</time>
      </trkpt>
      <trkpt lat="45.88017" lon="1.26455">
        <ele>338.8</ele>
        <time>2018-10-25T07:37:15.000Z</time>
      </trkpt>
      <trkpt lat="45.8802" lon="1.26446">
        <ele>339.1</ele>
        <time>2018-10-25T07:37:18.000Z</time>
      </trkpt>
      <trkpt lat="45.88028" lon="1.26443">
        <ele>339.3</ele>
        <time>2018-10-25T07:37:21.000Z</time>
      </trkpt>
      <trkpt lat="45.88037" lon="1.26448">
        <ele>339.5</ele>
        <time>2018-10-25T07:37:24.000Z</time>
      </trkpt>
      <trkpt lat="45.88046" lon="1.26454">
        <ele>339.6</ele>
        <time>2018-10-25T07:37:27.000Z</time>
      </trkpt>
      <trkpt lat="45.88055" lon="1.26459">
        <ele>339.7</ele>
        <time>2018-10-25T07:37:30.000Z</time>
      </trkpt>
      <trkpt lat="45.88064" lon="1.26465">
        <ele>339.7</ele>
        <time>2018-10-25T07:37:33.000Z</time>
      </trkpt>
      <trkpt lat="45.88073" lon="1.26471">
        <ele>339.6</ele>
        <time>2018-10-25T07:37:36.000Z</time>
      </trkpt>
      <trkpt lat="45.88083" lon="1.26476">
        <ele>339.6</ele>
        <time>2018-10-25T07:37:39.000Z</time>
      </trkpt>
      <trkpt lat="45.88093" lon="1.26482">
        <ele>339.7</ele>
        <time>2018-10-25T07:37:42.000Z</time>
      </trkpt>
      <trkpt lat="45.88102" lon="1.26488">
        <ele>339.8</ele>
        <time>2018-10-25T07:37:45.000Z</time>
      </trkpt>
      <trkpt lat="45.88112" lon="1.26492">
        <ele>339.9</ele>
        <time>2018-10-25T07:37:48.000Z</time>
      </trkpt>
      <trkpt lat="45.88121" lon="1.26498">
        <ele>340.2</ele>
        <time>2018-10-25T07:37:51.000Z</time>
      </trkpt>
      <trkpt lat="45.88131" lon="1.26504">
        <ele>340.5</ele>
        <time>2018-10-25T07:37:54.000Z</time>
      </trkpt>
      <trkpt lat="45.88141" lon="1.26509">
        <ele>340.8</ele>
        <time>2018-10-25T07:37:57.000Z</time>
      </trkpt>
      <trkpt lat="45.8815" lon="1.26515">
        <ele>341.1</ele>
        <time>2018-10-25T07:38:00.000Z</time>
      </trkpt>
      <trkpt lat="45.88161" lon="1.26524">
        <ele>341.4</ele>
        <time>2018-10-25T07:38:03.000Z</time>
      </trkpt>
      <trkpt lat="45.88168" lon="1.26529">
        <ele>341.5</ele>
        <time>2018-10-25T07:38:06.000Z</time>
      </trkpt>
      <trkpt lat="45.88173" lon="1.26534">
        <ele>341.5</ele>
        <time>2018-10-25T07:38:09.000Z</time>
      </trkpt>
      <trkpt lat="45.88179" lon="1.26538">
        <ele>341.5</ele>
        <time>2018-10-25T07:38:12.000Z</time>
      </trkpt>
      <trkpt lat="45.88186" lon="1.26543">
        <ele>341.3</ele>
        <time>2018-10-25T07:38:15.000Z</time>
      </trkpt>
      <trkpt lat="45.88192" lon="1.26548">
        <ele>341.1</ele>
        <time>2018-10-25T07:38:18.000Z</time>
      </trkpt>
      <trkpt lat="45.882" lon="1.26556">
        <ele>340.8</ele>
        <time>2018-10-25T07:38:28.000Z</time>
      </trkpt>
      <trkpt lat="45.88202" lon="1.26571">
        <ele>340.4</ele>
        <time>2018-10-25T07:38:39.000Z</time>
      </trkpt>
      <trkpt lat="45.882" lon="1.26583">
        <ele>340</ele>
        <time>2018-10-25T07:38:39.000Z</time>
      </trkpt>
      <trkpt lat="45.88197" lon="1.26592">
        <ele>339.6</ele>
        <time>2018-10-25T07:38:39.000Z</time>
      </trkpt>
      <trkpt lat="45.88193" lon="1.26602">
        <ele>339.2</ele>
        <time>2018-10-25T07:38:40.000Z</time>
      </trkpt>
      <trkpt lat="45.88191" lon="1.26604">
        <ele>338.9</ele>
        <time>2018-10-25T07:38:41.000Z</time>
      </trkpt>
      <trkpt lat="45.88192" lon="1.26604">
        <ele>338.7</ele>
        <time>2018-10-25T07:38:41.000Z</time>
      </trkpt>
      <trkpt lat="45.88189" lon="1.26602">
        <ele>338.6</ele>
        <time>2018-10-25T07:39:09.000Z</time>
      </trkpt>
      <trkpt lat="45.88186" lon="1.26612">
        <ele>338.5</ele>
        <time>2018-10-25T07:39:12.000Z</time>
      </trkpt>
      <trkpt lat="45.88181" lon="1.26626">
        <ele>338.4</ele>
        <time>2018-10-25T07:39:15.000Z</time>
      </trkpt>
      <trkpt lat="45.88174" lon="1.26643">
        <ele>338.2</ele>
        <time>2018-10-25T07:39:18.000Z</time>
      </trkpt>
      <trkpt lat="45.88169" lon="1.26655">
        <ele>337.9</ele>
        <time>2018-10-25T07:39:20.000Z</time>
      </trkpt>
      <trkpt lat="45.88163" lon="1.26674">
        <ele>337.6</ele>
        <time>2018-10-25T07:39:23.000Z</time>
      </trkpt>
      <trkpt lat="45.88153" lon="1.26691">
        <ele>337.3</ele>
        <time>2018-10-25T07:39:26.000Z</time>
      </trkpt>
      <trkpt lat="45.88145" lon="1.26712">
        <ele>337</ele>
        <time>2018-10-25T07:39:29.000Z</time>
      </trkpt>
      <trkpt lat="45.88136" lon="1.26732">
        <ele>336.8</ele>
        <time>2018-10-25T07:39:32.000Z</time>
      </trkpt>
      <trkpt lat="45.88128" lon="1.26751">
        <ele>336.6</ele>
        <time>2018-10-25T07:39:36.000Z</time>
      </trkpt>
      <trkpt lat="45.88119" lon="1.26771">
        <ele>336.5</ele>
        <time>2018-10-25T07:39:38.000Z</time>
      </trkpt>
      <trkpt lat="45.8811" lon="1.26794">
        <ele>336.2</ele>
        <time>2018-10-25T07:39:41.000Z</time>
      </trkpt>
      <trkpt lat="45.88101" lon="1.26817">
        <ele>336</ele>
        <time>2018-10-25T07:39:44.000Z</time>
      </trkpt>
      <trkpt lat="45.88093" lon="1.26838">
        <ele>335.6</ele>
        <time>2018-10-25T07:39:47.000Z</time>
      </trkpt>
      <trkpt lat="45.88084" lon="1.26859">
        <ele>335.1</ele>
        <time>2018-10-25T07:39:50.000Z</time>
      </trkpt>
      <trkpt lat="45.88076" lon="1.26879">
        <ele>334.6</ele>
        <time>2018-10-25T07:39:53.000Z</time>
      </trkpt>
      <trkpt lat="45.88068" lon="1.26899">
        <ele>334.1</ele>
        <time>2018-10-25T07:39:56.000Z</time>
      </trkpt>
      <trkpt lat="45.8806" lon="1.26917">
        <ele>333.7</ele>
        <time>2018-10-25T07:39:59.000Z</time>
      </trkpt>
      <trkpt lat="45.88054" lon="1.26935">
        <ele>333.3</ele>
        <time>2018-10-25T07:40:05.000Z</time>
      </trkpt>
      <trkpt lat="45.88045" lon="1.26952">
        <ele>333</ele>
        <time>2018-10-25T07:40:05.000Z</time>
      </trkpt>
      <trkpt lat="45.88039" lon="1.26967">
        <ele>332.7</ele>
        <time>2018-10-25T07:40:10.000Z</time>
      </trkpt>
      <trkpt lat="45.88036" lon="1.26981">
        <ele>332.5</ele>
        <time>2018-10-25T07:40:11.000Z</time>
      </trkpt>
      <trkpt lat="45.88033" lon="1.26994">
        <ele>332.3</ele>
        <time>2018-10-25T07:40:15.000Z</time>
      </trkpt>
      <trkpt lat="45.88031" lon="1.27001">
        <ele>332.1</ele>
        <time>2018-10-25T07:40:17.000Z</time>
      </trkpt>
      <trkpt lat="45.88028" lon="1.27008">
        <ele>331.8</ele>
        <time>2018-10-25T07:40:20.000Z</time>
      </trkpt>
      <trkpt lat="45.8802" lon="1.27024">
        <ele>331.6</ele>
        <time>2018-10-25T07:40:23.000Z</time>
      </trkpt>
      <trkpt lat="45.88012" lon="1.27042">
        <ele>331.4</ele>
        <time>2018-10-25T07:40:26.000Z</time>
      </trkpt>
      <trkpt lat="45.88002" lon="1.27063">
        <ele>331.1</ele>
        <time>2018-10-25T07:40:29.000Z</time>
      </trkpt>
      <trkpt lat="45.87995" lon="1.27081">
        <ele>330.8</ele>
        <time>2018-10-25T07:40:32.000Z</time>
      </trkpt>
      <trkpt lat="45.87986" lon="1.27105">
        <ele>330.3</ele>
        <time>2018-10-25T07:40:35.000Z</time>
      </trkpt>
      <trkpt lat="45.87977" lon="1.2713">
        <ele>329.6</ele>
        <time>2018-10-25T07:40:38.000Z</time>
      </trkpt>
      <trkpt lat="45.87966" lon="1.27156">
        <ele>328.8</ele>
        <time>2018-10-25T07:40:41.000Z</time>
      </trkpt>
      <trkpt lat="45.87955" lon="1.27182">
        <ele>327.8</ele>
        <time>2018-10-25T07:40:44.000Z</time>
      </trkpt>
      <trkpt lat="45.87943" lon="1.27209">
        <ele>326.8</ele>
        <time>2018-10-25T07:40:48.000Z</time>
      </trkpt>
      <trkpt lat="45.87933" lon="1.27238">
        <ele>325.8</ele>
        <time>2018-10-25T07:40:50.000Z</time>
      </trkpt>
      <trkpt lat="45.87922" lon="1.27265">
        <ele>325</ele>
        <time>2018-10-25T07:40:53.000Z</time>
      </trkpt>
      <trkpt lat="45.87911" lon="1.27294">
        <ele>324.2</ele>
        <time>2018-10-25T07:40:56.000Z</time>
      </trkpt>
      <trkpt lat="45.87899" lon="1.27322">
        <ele>323.4</ele>
        <time>2018-10-25T07:40:59.000Z</time>
      </trkpt>
      <trkpt lat="45.87888" lon="1.2735">
        <ele>322.6</ele>
        <time>2018-10-25T07:41:02.000Z</time>
      </trkpt>
      <trkpt lat="45.87877" lon="1.27379">
        <ele>321.6</ele>
        <time>2018-10-25T07:41:05.000Z</time>
      </trkpt>
      <trkpt lat="45.87866" lon="1.27406">
        <ele>320.6</ele>
        <time>2018-10-25T07:41:08.000Z</time>
      </trkpt>
      <trkpt lat="45.87856" lon="1.27432">
        <ele>319.6</ele>
        <time>2018-10-25T07:41:11.000Z</time>
      </trkpt>
      <trkpt lat="45.87843" lon="1.27458">
        <ele>318.7</ele>
        <time>2018-10-25T07:41:14.000Z</time>
      </trkpt>
      <trkpt lat="45.87825" lon="1.27481">
        <ele>318</ele>
        <time>2018-10-25T07:41:17.000Z</time>
      </trkpt>
      <trkpt lat="45.87809" lon="1.27495">
        <ele>317.4</ele>
        <time>2018-10-25T07:41:20.000Z</time>
      </trkpt>
      <trkpt lat="45.87799" lon="1.27501">
        <ele>317.1</ele>
        <time>2018-10-25T07:41:23.000Z</time>
      </trkpt>
      <trkpt lat="45.87797" lon="1.27503">
        <ele>316.8</ele>
        <time>2018-10-25T07:41:26.000Z</time>
      </trkpt>
      <trkpt lat="45.87798" lon="1.27502">
        <ele>316.7</ele>
        <time>2018-10-25T07:41:35.000Z</time>
      </trkpt>
      <trkpt lat="45.87796" lon="1.27505">
        <ele>316.6</ele>
        <time>2018-10-25T07:41:38.000Z</time>
      </trkpt>
      <trkpt lat="45.87799" lon="1.27505">
        <ele>316.6</ele>
        <time>2018-10-25T07:41:41.000Z</time>
      </trkpt>
      <trkpt lat="45.878" lon="1.27504">
        <ele>316.6</ele>
        <time>2018-10-25T07:41:47.000Z</time>
      </trkpt>
      <trkpt lat="45.87799" lon="1.27504">
        <ele>316.6</ele>
        <time>2018-10-25T07:41:55.000Z</time>
      </trkpt>
      <trkpt lat="45.87798" lon="1.27506">
        <ele>316.5</ele>
        <time>2018-10-25T07:41:59.000Z</time>
      </trkpt>
      <trkpt lat="45.87795" lon="1.27511">
        <ele>316.5</ele>
        <time>2018-10-25T07:42:02.000Z</time>
      </trkpt>
      <trkpt lat="45.87792" lon="1.27517">
        <ele>316.5</ele>
        <time>2018-10-25T07:42:05.000Z</time>
      </trkpt>
      <trkpt lat="45.87797" lon="1.27525">
        <ele>316.5</ele>
        <time>2018-10-25T07:42:08.000Z</time>
      </trkpt>
      <trkpt lat="45.87803" lon="1.27534">
        <ele>316.4</ele>
        <time>2018-10-25T07:42:12.000Z</time>
      </trkpt>
      <trkpt lat="45.8781" lon="1.27545">
        <ele>316.4</ele>
        <time>2018-10-25T07:42:14.000Z</time>
      </trkpt>
      <trkpt lat="45.87817" lon="1.27556">
        <ele>316.4</ele>
        <time>2018-10-25T07:42:29.000Z</time>
      </trkpt>
      <trkpt lat="45.87826" lon="1.27568">
        <ele>316.3</ele>
        <time>2018-10-25T07:42:29.000Z</time>
      </trkpt>
      <trkpt lat="45.87833" lon="1.27582">
        <ele>316.2</ele>
        <time>2018-10-25T07:42:29.000Z</time>
      </trkpt>
      <trkpt lat="45.87836" lon="1.27595">
        <ele>316.2</ele>
        <time>2018-10-25T07:42:30.000Z</time>
      </trkpt>
      <trkpt lat="45.87831" lon="1.2761">
        <ele>316.1</ele>
        <time>2018-10-25T07:42:30.000Z</time>
      </trkpt>
      <trkpt lat="45.87822" lon="1.27622">
        <ele>316.1</ele>
        <time>2018-10-25T07:42:32.000Z</time>
      </trkpt>
      <trkpt lat="45.87814" lon="1.27633">
        <ele>316.1</ele>
        <time>2018-10-25T07:42:35.000Z</time>
      </trkpt>
      <trkpt lat="45.87807" lon="1.27645">
        <ele>316.3</ele>
        <time>2018-10-25T07:42:38.000Z</time>
      </trkpt>
      <trkpt lat="45.87807" lon="1.27657">
        <ele>316.4</ele>
        <time>2018-10-25T07:42:41.000Z</time>
      </trkpt>
      <trkpt lat="45.87809" lon="1.27665">
        <ele>316.6</ele>
        <time>2018-10-25T07:42:44.000Z</time>
      </trkpt>
      <trkpt lat="45.87814" lon="1.27673">
        <ele>316.7</ele>
        <time>2018-10-25T07:42:47.000Z</time>
      </trkpt>
      <trkpt lat="45.8782" lon="1.27678">
        <ele>316.8</ele>
        <time>2018-10-25T07:42:50.000Z</time>
      </trkpt>
      <trkpt lat="45.8783" lon="1.27684">
        <ele>316.7</ele>
        <time>2018-10-25T07:42:53.000Z</time>
      </trkpt>
      <trkpt lat="45.87844" lon="1.27699">
        <ele>316.6</ele>
        <time>2018-10-25T07:42:56.000Z</time>
      </trkpt>
      <trkpt lat="45.87852" lon="1.27715">
        <ele>316.5</ele>
        <time>2018-10-25T07:42:59.000Z</time>
      </trkpt>
      <trkpt lat="45.87856" lon="1.27732">
        <ele>316.4</ele>
        <time>2018-10-25T07:43:02.000Z</time>
      </trkpt>
      <trkpt lat="45.87857" lon="1.27741">
        <ele>316.4</ele>
        <time>2018-10-25T07:43:04.000Z</time>
      </trkpt>
      <trkpt lat="45.8786" lon="1.27752">
        <ele>316.5</ele>
        <time>2018-10-25T07:43:06.000Z</time>
      </trkpt>
      <trkpt lat="45.87864" lon="1.27761">
        <ele>316.6</ele>
        <time>2018-10-25T07:43:08.000Z</time>
      </trkpt>
      <trkpt lat="45.87869" lon="1.27765">
        <ele>316.7</ele>
        <time>2018-10-25T07:43:10.000Z</time>
      </trkpt>
      <trkpt lat="45.87875" lon="1.27769">
        <ele>316.8</ele>
        <time>2018-10-25T07:43:12.000Z</time>
      </trkpt>
      <trkpt lat="45.87883" lon="1.27773">
        <ele>316.9</ele>
        <time>2018-10-25T07:43:14.000Z</time>
      </trkpt>
      <trkpt lat="45.87892" lon="1.27779">
        <ele>316.9</ele>
        <time>2018-10-25T07:43:16.000Z</time>
      </trkpt>
      <trkpt lat="45.87901" lon="1.27783">
        <ele>316.9</ele>
        <time>2018-10-25T07:43:18.000Z</time>
      </trkpt>
      <trkpt lat="45.87911" lon="1.27785">
        <ele>316.8</ele>
        <time>2018-10-25T07:43:20.000Z</time>
      </trkpt>
      <trkpt lat="45.87918" lon="1.27786">
        <ele>316.7</ele>
        <time>2018-10-25T07:43:22.000Z</time>
      </trkpt>
      <trkpt lat="45.87925" lon="1.27788">
        <ele>316.6</ele>
        <time>2018-10-25T07:43:24.000Z</time>
      </trkpt>
      <trkpt lat="45.87931" lon="1.27791">
        <ele>316.5</ele>
        <time>2018-10-25T07:43:26.000Z</time>
      </trkpt>
      <trkpt lat="45.87938" lon="1.27795">
        <ele>316.4</ele>
        <time>2018-10-25T07:43:28.000Z</time>
      </trkpt>
      <trkpt lat="45.87943" lon="1.27801">
        <ele>316.4</ele>
        <time>2018-10-25T07:43:30.000Z</time>
      </trkpt>
      <trkpt lat="45.8795" lon="1.27806">
        <ele>316.4</ele>
        <time>2018-10-25T07:43:32.000Z</time>
      </trkpt>
      <trkpt lat="45.87958" lon="1.27808">
        <ele>316.4</ele>
        <time>2018-10-25T07:43:34.000Z</time>
      </trkpt>
      <trkpt lat="45.87967" lon="1.2781">
        <ele>316.4</ele>
        <time>2018-10-25T07:43:36.000Z</time>
      </trkpt>
      <trkpt lat="45.87974" lon="1.27813">
        <ele>316.3</ele>
        <time>2018-10-25T07:43:38.000Z</time>
      </trkpt>
      <trkpt lat="45.87981" lon="1.27816">
        <ele>316.3</ele>
        <time>2018-10-25T07:43:40.000Z</time>
      </trkpt>
      <trkpt lat="45.87988" lon="1.27821">
        <ele>316.2</ele>
        <time>2018-10-25T07:43:42.000Z</time>
      </trkpt>
      <trkpt lat="45.87995" lon="1.27826">
        <ele>316.2</ele>
        <time>2018-10-25T07:43:44.000Z</time>
      </trkpt>
      <trkpt lat="45.88002" lon="1.27831">
        <ele>316.2</ele>
        <time>2018-10-25T07:43:46.000Z</time>
      </trkpt>
      <trkpt lat="45.88008" lon="1.27835">
        <ele>316.2</ele>
        <time>2018-10-25T07:43:48.000Z</time>
      </trkpt>
      <trkpt lat="45.88014" lon="1.27841">
        <ele>316.4</ele>
        <time>2018-10-25T07:43:50.000Z</time>
      </trkpt>
      <trkpt lat="45.88021" lon="1.27848">
        <ele>316.6</ele>
        <time>2018-10-25T07:43:52.000Z</time>
      </trkpt>
      <trkpt lat="45.88028" lon="1.27854">
        <ele>316.9</ele>
        <time>2018-10-25T07:43:54.000Z</time>
      </trkpt>
      <trkpt lat="45.88035" lon="1.27861">
        <ele>317.3</ele>
        <time>2018-10-25T07:43:56.000Z</time>
      </trkpt>
      <trkpt lat="45.88042" lon="1.27867">
        <ele>317.6</ele>
        <time>2018-10-25T07:43:58.000Z</time>
      </trkpt>
      <trkpt lat="45.88049" lon="1.27875">
        <ele>317.9</ele>
        <time>2018-10-25T07:44:00.000Z</time>
      </trkpt>
      <trkpt lat="45.88055" lon="1.27883">
        <ele>318.1</ele>
        <time>2018-10-25T07:44:02.000Z</time>
      </trkpt>
      <trkpt lat="45.8806" lon="1.27897">
        <ele>318.2</ele>
        <time>2018-10-25T07:44:05.000Z</time>
      </trkpt>
      <trkpt lat="45.88066" lon="1.27911">
        <ele>318.2</ele>
        <time>2018-10-25T07:44:08.000Z</time>
      </trkpt>
      <trkpt lat="45.88076" lon="1.27919">
        <ele>318.1</ele>
        <time>2018-10-25T07:44:11.000Z</time>
      </trkpt>
      <trkpt lat="45.88086" lon="1.27921">
        <ele>318</ele>
        <time>2018-10-25T07:44:14.000Z</time>
      </trkpt>
      <trkpt lat="45.88094" lon="1.27931">
        <ele>317.9</ele>
        <time>2018-10-25T07:44:17.000Z</time>
      </trkpt>
      <trkpt lat="45.88101" lon="1.27942">
        <ele>317.8</ele>
        <time>2018-10-25T07:44:20.000Z</time>
      </trkpt>
      <trkpt lat="45.88106" lon="1.27953">
        <ele>317.8</ele>
        <time>2018-10-25T07:44:23.000Z</time>
      </trkpt>
      <trkpt lat="45.88115" lon="1.27966">
        <ele>317.7</ele>
        <time>2018-10-25T07:44:26.000Z</time>
      </trkpt>
      <trkpt lat="45.88115" lon="1.27977">
        <ele>317.6</ele>
        <time>2018-10-25T07:44:29.000Z</time>
      </trkpt>
      <trkpt lat="45.8812" lon="1.27991">
        <ele>317.4</ele>
        <time>2018-10-25T07:44:32.000Z</time>
      </trkpt>
      <trkpt lat="45.88124" lon="1.28007">
        <ele>317.3</ele>
        <time>2018-10-25T07:44:35.000Z</time>
      </trkpt>
      <trkpt lat="45.88127" lon="1.28024">
        <ele>317.2</ele>
        <time>2018-10-25T07:44:39.000Z</time>
      </trkpt>
      <trkpt lat="45.88131" lon="1.28039">
        <ele>317.2</ele>
        <time>2018-10-25T07:44:41.000Z</time>
      </trkpt>
      <trkpt lat="45.88136" lon="1.28049">
        <ele>317.1</ele>
        <time>2018-10-25T07:44:44.000Z</time>
      </trkpt>
      <trkpt lat="45.88143" lon="1.28063">
        <ele>317.2</ele>
        <time>2018-10-25T07:44:47.000Z</time>
      </trkpt>
      <trkpt lat="45.88149" lon="1.28078">
        <ele>317.2</ele>
        <time>2018-10-25T07:44:50.000Z</time>
      </trkpt>
      <trkpt lat="45.88156" lon="1.28086">
        <ele>317.2</ele>
        <time>2018-10-25T07:44:53.000Z</time>
      </trkpt>
      <trkpt lat="45.88165" lon="1.28096">
        <ele>317.1</ele>
        <time>2018-10-25T07:44:56.000Z</time>
      </trkpt>
      <trkpt lat="45.88178" lon="1.2811">
        <ele>317</ele>
        <time>2018-10-25T07:44:59.000Z</time>
      </trkpt>
      <trkpt lat="45.88189" lon="1.2812">
        <ele>316.8</ele>
        <time>2018-10-25T07:45:02.000Z</time>
      </trkpt>
      <trkpt lat="45.88197" lon="1.28132">
        <ele>316.6</ele>
        <time>2018-10-25T07:45:05.000Z</time>
      </trkpt>
      <trkpt lat="45.88205" lon="1.28145">
        <ele>316.5</ele>
        <time>2018-10-25T07:45:08.000Z</time>
      </trkpt>
      <trkpt lat="45.88211" lon="1.28156">
        <ele>316.4</ele>
        <time>2018-10-25T07:45:11.000Z</time>
      </trkpt>
      <trkpt lat="45.88228" lon="1.28164">
        <ele>316.4</ele>
        <time>2018-10-25T07:45:14.000Z</time>
      </trkpt>
      <trkpt lat="45.88238" lon="1.28167">
        <ele>316.5</ele>
        <time>2018-10-25T07:45:17.000Z</time>
      </trkpt>
      <trkpt lat="45.88248" lon="1.28168">
        <ele>316.7</ele>
        <time>2018-10-25T07:45:20.000Z</time>
      </trkpt>
      <trkpt lat="45.88256" lon="1.28175">
        <ele>316.8</ele>
        <time>2018-10-25T07:45:23.000Z</time>
      </trkpt>
      <trkpt lat="45.88264" lon="1.28183">
        <ele>317</ele>
        <time>2018-10-25T07:45:26.000Z</time>
      </trkpt>
      <trkpt lat="45.88272" lon="1.28184">
        <ele>317.1</ele>
        <time>2018-10-25T07:45:29.000Z</time>
      </trkpt>
      <trkpt lat="45.88281" lon="1.28184">
        <ele>317.3</ele>
        <time>2018-10-25T07:45:32.000Z</time>
      </trkpt>
      <trkpt lat="45.8829" lon="1.28189">
        <ele>317.4</ele>
        <time>2018-10-25T07:45:35.000Z</time>
      </trkpt>
      <trkpt lat="45.88298" lon="1.28201">
        <ele>317.5</ele>
        <time>2018-10-25T07:45:38.000Z</time>
      </trkpt>
      <trkpt lat="45.88298" lon="1.28215">
        <ele>317.6</ele>
        <time>2018-10-25T07:45:41.000Z</time>
      </trkpt>
      <trkpt lat="45.88298" lon="1.28227">
        <ele>317.6</ele>
        <time>2018-10-25T07:45:44.000Z</time>
      </trkpt>
      <trkpt lat="45.88307" lon="1.28238">
        <ele>317.5</ele>
        <time>2018-10-25T07:45:47.000Z</time>
      </trkpt>
      <trkpt lat="45.88315" lon="1.28244">
        <ele>317.4</ele>
        <time>2018-10-25T07:45:50.000Z</time>
      </trkpt>
      <trkpt lat="45.88323" lon="1.28253">
        <ele>317.2</ele>
        <time>2018-10-25T07:45:53.000Z</time>
      </trkpt>
      <trkpt lat="45.8833" lon="1.28263">
        <ele>317.1</ele>
        <time>2018-10-25T07:46:09.000Z</time>
      </trkpt>
      <trkpt lat="45.88337" lon="1.28275">
        <ele>317</ele>
        <time>2018-10-25T07:46:09.000Z</time>
      </trkpt>
      <trkpt lat="45.88342" lon="1.28285">
        <ele>316.8</ele>
        <time>2018-10-25T07:46:09.000Z</time>
      </trkpt>
      <trkpt lat="45.88348" lon="1.28294">
        <ele>316.7</ele>
        <time>2018-10-25T07:46:10.000Z</time>
      </trkpt>
      <trkpt lat="45.88353" lon="1.28301">
        <ele>316.6</ele>
        <time>2018-10-25T07:46:10.000Z</time>
      </trkpt>
      <trkpt lat="45.88358" lon="1.28297">
        <ele>316.5</ele>
        <time>2018-10-25T07:46:11.000Z</time>
      </trkpt>
      <trkpt lat="45.88364" lon="1.28288">
        <ele>316.5</ele>
        <time>2018-10-25T07:46:14.000Z</time>
      </trkpt>
      <trkpt lat="45.88371" lon="1.28279">
        <ele>316.5</ele>
        <time>2018-10-25T07:46:17.000Z</time>
      </trkpt>
      <trkpt lat="45.88378" lon="1.28271">
        <ele>316.6</ele>
        <time>2018-10-25T07:46:20.000Z</time>
      </trkpt>
      <trkpt lat="45.88384" lon="1.28262">
        <ele>316.6</ele>
        <time>2018-10-25T07:46:23.000Z</time>
      </trkpt>
      <trkpt lat="45.88391" lon="1.28253">
        <ele>316.8</ele>
        <time>2018-10-25T07:46:26.000Z</time>
      </trkpt>
      <trkpt lat="45.88397" lon="1.28244">
        <ele>316.9</ele>
        <time>2018-10-25T07:46:29.000Z</time>
      </trkpt>
      <trkpt lat="45.88405" lon="1.28237">
        <ele>317</ele>
        <time>2018-10-25T07:46:32.000Z</time>
      </trkpt>
      <trkpt lat="45.88413" lon="1.28233">
        <ele>317.1</ele>
        <time>2018-10-25T07:46:35.000Z</time>
      </trkpt>
      <trkpt lat="45.88423" lon="1.28232">
        <ele>317.1</ele>
        <time>2018-10-25T07:46:38.000Z</time>
      </trkpt>
      <trkpt lat="45.88431" lon="1.28229">
        <ele>317.2</ele>
        <time>2018-10-25T07:46:41.000Z</time>
      </trkpt>
      <trkpt lat="45.88437" lon="1.2823">
        <ele>317.3</ele>
        <time>2018-10-25T07:46:44.000Z</time>
      </trkpt>
      <trkpt lat="45.88437" lon="1.28231">
        <ele>317.3</ele>
        <time>2018-10-25T07:47:23.000Z</time>
      </trkpt>
      <trkpt lat="45.8844" lon="1.28235">
        <ele>317.3</ele>
        <time>2018-10-25T07:47:26.000Z</time>
      </trkpt>
      <trkpt lat="45.88447" lon="1.28241">
        <ele>317.4</ele>
        <time>2018-10-25T07:47:29.000Z</time>
      </trkpt>
      <trkpt lat="45.88451" lon="1.28244">
        <ele>317.4</ele>
        <time>2018-10-25T07:47:32.000Z</time>
      </trkpt>
      <trkpt lat="45.88452" lon="1.28243">
        <ele>317.4</ele>
        <time>2018-10-25T07:47:38.000Z</time>
      </trkpt>
      <trkpt lat="45.88453" lon="1.28243">
        <ele>317.4</ele>
        <time>2018-10-25T07:47:47.000Z</time>
      </trkpt>
      <trkpt lat="45.88454" lon="1.28245">
        <ele>317.4</ele>
        <time>2018-10-25T07:47:52.000Z</time>
      </trkpt>
      <trkpt lat="45.88457" lon="1.28253">
        <ele>317.4</ele>
        <time>2018-10-25T07:47:55.000Z</time>
      </trkpt>
      <trkpt lat="45.88463" lon="1.28262">
        <ele>317.5</ele>
        <time>2018-10-25T07:47:58.000Z</time>
      </trkpt>
      <trkpt lat="45.88473" lon="1.28268">
        <ele>317.5</ele>
        <time>2018-10-25T07:48:01.000Z</time>
      </trkpt>
      <trkpt lat="45.88478" lon="1.28277">
        <ele>317.5</ele>
        <time>2018-10-25T07:48:04.000Z</time>
      </trkpt>
      <trkpt lat="45.88483" lon="1.28286">
        <ele>317.6</ele>
        <time>2018-10-25T07:48:07.000Z</time>
      </trkpt>
      <trkpt lat="45.8849" lon="1.28294">
        <ele>317.7</ele>
        <time>2018-10-25T07:48:10.000Z</time>
      </trkpt>
      <trkpt lat="45.88494" lon="1.28305">
        <ele>317.7</ele>
        <time>2018-10-25T07:48:13.000Z</time>
      </trkpt>
      <trkpt lat="45.88499" lon="1.28314">
        <ele>317.8</ele>
        <time>2018-10-25T07:48:16.000Z</time>
      </trkpt>
      <trkpt lat="45.88502" lon="1.28323">
        <ele>317.9</ele>
        <time>2018-10-25T07:48:19.000Z</time>
      </trkpt>
      <trkpt lat="45.88507" lon="1.2833">
        <ele>317.9</ele>
        <time>2018-10-25T07:48:22.000Z</time>
      </trkpt>
      <trkpt lat="45.88514" lon="1.28335">
        <ele>317.9</ele>
        <time>2018-10-25T07:48:25.000Z</time>
      </trkpt>
      <trkpt lat="45.8852" lon="1.28343">
        <ele>317.9</ele>
        <time>2018-10-25T07:48:28.000Z</time>
      </trkpt>
      <trkpt lat="45.88525" lon="1.28352">
        <ele>317.8</ele>
        <time>2018-10-25T07:48:31.000Z</time>
      </trkpt>
      <trkpt lat="45.8853" lon="1.28359">
        <ele>317.7</ele>
        <time>2018-10-25T07:48:34.000Z</time>
      </trkpt>
      <trkpt lat="45.88537" lon="1.28365">
        <ele>317.6</ele>
        <time>2018-10-25T07:48:37.000Z</time>
      </trkpt>
      <trkpt lat="45.88542" lon="1.28371">
        <ele>317.5</ele>
        <time>2018-10-25T07:48:40.000Z</time>
      </trkpt>
      <trkpt lat="45.88546" lon="1.2838">
        <ele>317.4</ele>
        <time>2018-10-25T07:48:43.000Z</time>
      </trkpt>
      <trkpt lat="45.88552" lon="1.28387">
        <ele>317.3</ele>
        <time>2018-10-25T07:48:46.000Z</time>
      </trkpt>
      <trkpt lat="45.88558" lon="1.28393">
        <ele>317.1</ele>
        <time>2018-10-25T07:48:49.000Z</time>
      </trkpt>
      <trkpt lat="45.88564" lon="1.28399">
        <ele>317</ele>
        <time>2018-10-25T07:48:52.000Z</time>
      </trkpt>
      <trkpt lat="45.88573" lon="1.28407">
        <ele>316.8</ele>
        <time>2018-10-25T07:48:55.000Z</time>
      </trkpt>
      <trkpt lat="45.88581" lon="1.28415">
        <ele>316.6</ele>
        <time>2018-10-25T07:48:58.000Z</time>
      </trkpt>
      <trkpt lat="45.88589" lon="1.28422">
        <ele>316.4</ele>
        <time>2018-10-25T07:49:01.000Z</time>
      </trkpt>
      <trkpt lat="45.88596" lon="1.28429">
        <ele>316.3</ele>
        <time>2018-10-25T07:49:04.000Z</time>
      </trkpt>
      <trkpt lat="45.88603" lon="1.28437">
        <ele>316.3</ele>
        <time>2018-10-25T07:49:07.000Z</time>
      </trkpt>
      <trkpt lat="45.88611" lon="1.28445">
        <ele>316.3</ele>
        <time>2018-10-25T07:49:10.000Z</time>
      </trkpt>
      <trkpt lat="45.88618" lon="1.28453">
        <ele>316.5</ele>
        <time>2018-10-25T07:49:13.000Z</time>
      </trkpt>
      <trkpt lat="45.88625" lon="1.2846">
        <ele>316.7</ele>
        <time>2018-10-25T07:49:16.000Z</time>
      </trkpt>
      <trkpt lat="45.8863" lon="1.28466">
        <ele>316.8</ele>
        <time>2018-10-25T07:49:19.000Z</time>
      </trkpt>
      <trkpt lat="45.88636" lon="1.28471">
        <ele>317</ele>
        <time>2018-10-25T07:49:22.000Z</time>
      </trkpt>
      <trkpt lat="45.88644" lon="1.28476">
        <ele>317.1</ele>
        <time>2018-10-25T07:49:25.000Z</time>
      </trkpt>
      <trkpt lat="45.88653" lon="1.28481">
        <ele>317.3</ele>
        <time>2018-10-25T07:49:28.000Z</time>
      </trkpt>
      <trkpt lat="45.88662" lon="1.28486">
        <ele>317.5</ele>
        <time>2018-10-25T07:49:31.000Z</time>
      </trkpt>
      <trkpt lat="45.8867" lon="1.28491">
        <ele>317.7</ele>
        <time>2018-10-25T07:49:34.000Z</time>
      </trkpt>
      <trkpt lat="45.88675" lon="1.28497">
        <ele>317.8</ele>
        <time>2018-10-25T07:49:37.000Z</time>
      </trkpt>
      <trkpt lat="45.88681" lon="1.28503">
        <ele>317.9</ele>
        <time>2018-10-25T07:49:40.000Z</time>
      </trkpt>
      <trkpt lat="45.88688" lon="1.2851">
        <ele>317.9</ele>
        <time>2018-10-25T07:49:43.000Z</time>
      </trkpt>
      <trkpt lat="45.88697" lon="1.28515">
        <ele>317.8</ele>
        <time>2018-10-25T07:49:46.000Z</time>
      </trkpt>
      <trkpt lat="45.88705" lon="1.2852">
        <ele>317.7</ele>
        <time>2018-10-25T07:49:49.000Z</time>
      </trkpt>
      <trkpt lat="45.88713" lon="1.28526">
        <ele>317.6</ele>
        <time>2018-10-25T07:49:52.000Z</time>
      </trkpt>
      <trkpt lat="45.88721" lon="1.2853">
        <ele>317.4</ele>
        <time>2018-10-25T07:49:55.000Z</time>
      </trkpt>
      <trkpt lat="45.88729" lon="1.28534">
        <ele>317.3</ele>
        <time>2018-10-25T07:49:58.000Z</time>
      </trkpt>
      <trkpt lat="45.88737" lon="1.28537">
        <ele>317.1</ele>
        <time>2018-10-25T07:50:01.000Z</time>
      </trkpt>
      <trkpt lat="45.88747" lon="1.28539">
        <ele>316.9</ele>
        <time>2018-10-25T07:50:04.000Z</time>
      </trkpt>
      <trkpt lat="45.88757" lon="1.28542">
        <ele>316.8</ele>
        <time>2018-10-25T07:50:07.000Z</time>
      </trkpt>
      <trkpt lat="45.88768" lon="1.28545">
        <ele>316.8</ele>
        <time>2018-10-25T07:50:10.000Z</time>
      </trkpt>
      <trkpt lat="45.88777" lon="1.28548">
        <ele>316.8</ele>
        <time>2018-10-25T07:50:13.000Z</time>
      </trkpt>
      <trkpt lat="45.88783" lon="1.2855">
        <ele>316.8</ele>
        <time>2018-10-25T07:50:15.000Z</time>
      </trkpt>
      <trkpt lat="45.88788" lon="1.28553">
        <ele>317</ele>
        <time>2018-10-25T07:50:17.000Z</time>
      </trkpt>
      <trkpt lat="45.88794" lon="1.28555">
        <ele>317.1</ele>
        <time>2018-10-25T07:50:19.000Z</time>
      </trkpt>
      <trkpt lat="45.888" lon="1.28557">
        <ele>317.2</ele>
        <time>2018-10-25T07:50:21.000Z</time>
      </trkpt>
      <trkpt lat="45.88806" lon="1.28558">
        <ele>317.2</ele>
        <time>2018-10-25T07:50:23.000Z</time>
      </trkpt>
      <trkpt lat="45.88811" lon="1.28559">
        <ele>317.3</ele>
        <time>2018-10-25T07:50:25.000Z</time>
      </trkpt>
      <trkpt lat="45.88816" lon="1.2856">
        <ele>317.4</ele>
        <time>2018-10-25T07:50:27.000Z</time>
      </trkpt>
      <trkpt lat="45.88822" lon="1.28561">
        <ele>317.4</ele>
        <time>2018-10-25T07:50:29.000Z</time>
      </trkpt>
      <trkpt lat="45.88826" lon="1.28561">
        <ele>317.5</ele>
        <time>2018-10-25T07:50:31.000Z</time>
      </trkpt>
      <trkpt lat="45.88831" lon="1.28561">
        <ele>317.6</ele>
        <time>2018-10-25T07:50:33.000Z</time>
      </trkpt>
      <trkpt lat="45.88836" lon="1.28562">
        <ele>317.7</ele>
        <time>2018-10-25T07:50:35.000Z</time>
      </trkpt>
      <trkpt lat="45.8884" lon="1.28563">
        <ele>317.7</ele>
        <time>2018-10-25T07:50:37.000Z</time>
      </trkpt>
      <trkpt lat="45.88844" lon="1.28564">
        <ele>317.8</ele>
        <time>2018-10-25T07:50:39.000Z</time>
      </trkpt>
      <trkpt lat="45.88849" lon="1.28566">
        <ele>317.8</ele>
        <time>2018-10-25T07:50:41.000Z</time>
      </trkpt>
      <trkpt lat="45.88852" lon="1.28571">
        <ele>317.8</ele>
        <time>2018-10-25T07:50:43.000Z</time>
      </trkpt>
      <trkpt lat="45.88853" lon="1.28577">
        <ele>317.7</ele>
        <time>2018-10-25T07:50:45.000Z</time>
      </trkpt>
      <trkpt lat="45.88854" lon="1.28583">
        <ele>317.5</ele>
        <time>2018-10-25T07:50:47.000Z</time>
      </trkpt>
      <trkpt lat="45.88856" lon="1.28588">
        <ele>317.3</ele>
        <time>2018-10-25T07:50:49.000Z</time>
      </trkpt>
      <trkpt lat="45.88859" lon="1.28591">
        <ele>317.2</ele>
        <time>2018-10-25T07:50:51.000Z</time>
      </trkpt>
      <trkpt lat="45.88863" lon="1.28591">
        <ele>317</ele>
        <time>2018-10-25T07:50:53.000Z</time>
      </trkpt>
      <trkpt lat="45.88868" lon="1.28588">
        <ele>316.9</ele>
        <time>2018-10-25T07:50:55.000Z</time>
      </trkpt>
      <trkpt lat="45.88871" lon="1.28585">
        <ele>316.9</ele>
        <time>2018-10-25T07:51:04.000Z</time>
      </trkpt>
      <trkpt lat="45.88875" lon="1.28582">
        <ele>317</ele>
        <time>2018-10-25T07:51:05.000Z</time>
      </trkpt>
      <trkpt lat="45.8888" lon="1.2858">
        <ele>317</ele>
        <time>2018-10-25T07:51:06.000Z</time>
      </trkpt>
      <trkpt lat="45.88884" lon="1.28582">
        <ele>317.1</ele>
        <time>2018-10-25T07:51:06.000Z</time>
      </trkpt>
      <trkpt lat="45.88887" lon="1.28587">
        <ele>317.1</ele>
        <time>2018-10-25T07:51:08.000Z</time>
      </trkpt>
      <trkpt lat="45.88892" lon="1.28586">
        <ele>317.1</ele>
        <time>2018-10-25T07:51:11.000Z</time>
      </trkpt>
      <trkpt lat="45.889" lon="1.28586">
        <ele>317</ele>
        <time>2018-10-25T07:51:14.000Z</time>
      </trkpt>
      <trkpt lat="45.88907" lon="1.28591">
        <ele>316.9</ele>
        <time>2018-10-25T07:51:17.000Z</time>
      </trkpt>
      <trkpt lat="45.88913" lon="1.28599">
        <ele>316.8</ele>
        <time>2018-10-25T07:51:20.000Z</time>
      </trkpt>
      <trkpt lat="45.88918" lon="1.28608">
        <ele>316.7</ele>
        <time>2018-10-25T07:51:23.000Z</time>
      </trkpt>
      <trkpt lat="45.88923" lon="1.28613">
        <ele>316.5</ele>
        <time>2018-10-25T07:51:26.000Z</time>
      </trkpt>
      <trkpt lat="45.88927" lon="1.28616">
        <ele>316.4</ele>
        <time>2018-10-25T07:51:29.000Z</time>
      </trkpt>
      <trkpt lat="45.88932" lon="1.28621">
        <ele>316.3</ele>
        <time>2018-10-25T07:51:32.000Z</time>
      </trkpt>
      <trkpt lat="45.88938" lon="1.28627">
        <ele>316.3</ele>
        <time>2018-10-25T07:51:35.000Z</time>
      </trkpt>
      <trkpt lat="45.88942" lon="1.28632">
        <ele>316.3</ele>
        <time>2018-10-25T07:51:38.000Z</time>
      </trkpt>
      <trkpt lat="45.88948" lon="1.28639">
        <ele>316.3</ele>
        <time>2018-10-25T07:51:41.000Z</time>
      </trkpt>
      <trkpt lat="45.88955" lon="1.28645">
        <ele>316.2</ele>
        <time>2018-10-25T07:51:44.000Z</time>
      </trkpt>
      <trkpt lat="45.88962" lon="1.2865">
        <ele>316.2</ele>
        <time>2018-10-25T07:51:47.000Z</time>
      </trkpt>
      <trkpt lat="45.88967" lon="1.28656">
        <ele>316.1</ele>
        <time>2018-10-25T07:51:50.000Z</time>
      </trkpt>
      <trkpt lat="45.88973" lon="1.28662">
        <ele>315.9</ele>
        <time>2018-10-25T07:51:53.000Z</time>
      </trkpt>
      <trkpt lat="45.88978" lon="1.28669">
        <ele>315.8</ele>
        <time>2018-10-25T07:51:56.000Z</time>
      </trkpt>
      <trkpt lat="45.88982" lon="1.28677">
        <ele>315.7</ele>
        <time>2018-10-25T07:51:59.000Z</time>
      </trkpt>
      <trkpt lat="45.88986" lon="1.28682">
        <ele>315.7</ele>
        <time>2018-10-25T07:52:02.000Z</time>
      </trkpt>
      <trkpt lat="45.88994" lon="1.28686">
        <ele>315.7</ele>
        <time>2018-10-25T07:52:05.000Z</time>
      </trkpt>
      <trkpt lat="45.89002" lon="1.28688">
        <ele>315.7</ele>
        <time>2018-10-25T07:52:08.000Z</time>
      </trkpt>
      <trkpt lat="45.89009" lon="1.28687">
        <ele>315.8</ele>
        <time>2018-10-25T07:52:11.000Z</time>
      </trkpt>
      <trkpt lat="45.89014" lon="1.28686">
        <ele>315.8</ele>
        <time>2018-10-25T07:52:14.000Z</time>
      </trkpt>
      <trkpt lat="45.89021" lon="1.28686">
        <ele>315.8</ele>
        <time>2018-10-25T07:52:17.000Z</time>
      </trkpt>
      <trkpt lat="45.89027" lon="1.28685">
        <ele>315.8</ele>
        <time>2018-10-25T07:52:20.000Z</time>
      </trkpt>
      <trkpt lat="45.89032" lon="1.28684">
        <ele>315.7</ele>
        <time>2018-10-25T07:52:23.000Z</time>
      </trkpt>
      <trkpt lat="45.89039" lon="1.28683">
        <ele>315.6</ele>
        <time>2018-10-25T07:52:26.000Z</time>
      </trkpt>
      <trkpt lat="45.89046" lon="1.28684">
        <ele>315.5</ele>
        <time>2018-10-25T07:52:29.000Z</time>
      </trkpt>
      <trkpt lat="45.89053" lon="1.28687">
        <ele>315.4</ele>
        <time>2018-10-25T07:52:32.000Z</time>
      </trkpt>
      <trkpt lat="45.8906" lon="1.2869">
        <ele>315.3</ele>
        <time>2018-10-25T07:52:35.000Z</time>
      </trkpt>
      <trkpt lat="45.89067" lon="1.28695">
        <ele>315.2</ele>
        <time>2018-10-25T07:52:38.000Z</time>
      </trkpt>
      <trkpt lat="45.89074" lon="1.28701">
        <ele>315.1</ele>
        <time>2018-10-25T07:52:41.000Z</time>
      </trkpt>
      <trkpt lat="45.89082" lon="1.28704">
        <ele>314.9</ele>
        <time>2018-10-25T07:52:44.000Z</time>
      </trkpt>
      <trkpt lat="45.89088" lon="1.28703">
        <ele>314.8</ele>
        <time>2018-10-25T07:52:47.000Z</time>
      </trkpt>
      <trkpt lat="45.89094" lon="1.287">
        <ele>314.8</ele>
        <time>2018-10-25T07:52:50.000Z</time>
      </trkpt>
      <trkpt lat="45.89101" lon="1.28698">
        <ele>314.9</ele>
        <time>2018-10-25T07:52:53.000Z</time>
      </trkpt>
      <trkpt lat="45.89109" lon="1.28697">
        <ele>315.1</ele>
        <time>2018-10-25T07:52:56.000Z</time>
      </trkpt>
      <trkpt lat="45.89117" lon="1.28697">
        <ele>315.3</ele>
        <time>2018-10-25T07:52:59.000Z</time>
      </trkpt>
      <trkpt lat="45.89125" lon="1.28698">
        <ele>315.6</ele>
        <time>2018-10-25T07:53:02.000Z</time>
      </trkpt>
      <trkpt lat="45.8913" lon="1.28697">
        <ele>315.9</ele>
        <time>2018-10-25T07:53:05.000Z</time>
      </trkpt>
      <trkpt lat="45.89134" lon="1.28697">
        <ele>316.2</ele>
        <time>2018-10-25T07:53:08.000Z</time>
      </trkpt>
      <trkpt lat="45.89139" lon="1.28696">
        <ele>316.4</ele>
        <time>2018-10-25T07:53:11.000Z</time>
      </trkpt>
      <trkpt lat="45.89144" lon="1.28694">
        <ele>316.7</ele>
        <time>2018-10-25T07:53:14.000Z</time>
      </trkpt>
      <trkpt lat="45.89145" lon="1.28694">
        <ele>316.8</ele>
        <time>2018-10-25T07:53:17.000Z</time>
      </trkpt>
      <trkpt lat="45.89144" lon="1.28701">
        <ele>317</ele>
        <time>2018-10-25T07:53:24.000Z</time>
      </trkpt>
      <trkpt lat="45.89154" lon="1.28703">
        <ele>317.1</ele>
        <time>2018-10-25T07:53:27.000Z</time>
      </trkpt>
      <trkpt lat="45.89166" lon="1.28705">
        <ele>317.2</ele>
        <time>2018-10-25T07:53:30.000Z</time>
      </trkpt>
      <trkpt lat="45.89175" lon="1.28706">
        <ele>317.3</ele>
        <time>2018-10-25T07:53:33.000Z</time>
      </trkpt>
      <trkpt lat="45.89182" lon="1.28706">
        <ele>317.3</ele>
        <time>2018-10-25T07:53:36.000Z</time>
      </trkpt>
      <trkpt lat="45.89183" lon="1.28706">
        <ele>317.5</ele>
        <time>2018-10-25T07:53:39.000Z</time>
      </trkpt>
      <trkpt lat="45.89188" lon="1.28703">
        <ele>317.5</ele>
        <time>2018-10-25T07:53:43.000Z</time>
      </trkpt>
      <trkpt lat="45.89188" lon="1.28699">
        <ele>317.5</ele>
        <time>2018-10-25T07:53:50.000Z</time>
      </trkpt>
      <trkpt lat="45.8919" lon="1.287">
        <ele>317.5</ele>
        <time>2018-10-25T07:53:53.000Z</time>
      </trkpt>
      <trkpt lat="45.89189" lon="1.28703">
        <ele>317.5</ele>
        <time>2018-10-25T07:54:24.000Z</time>
      </trkpt>
      <trkpt lat="45.8919" lon="1.28702">
        <ele>317.5</ele>
        <time>2018-10-25T07:54:28.000Z</time>
      </trkpt>
      <trkpt lat="45.89189" lon="1.28704">
        <ele>317.5</ele>
        <time>2018-10-25T07:54:34.000Z</time>
      </trkpt>
      <trkpt lat="45.89188" lon="1.28705">
        <ele>317.5</ele>
        <time>2018-10-25T07:54:37.000Z</time>
      </trkpt>
      <trkpt lat="45.89187" lon="1.28706">
        <ele>317.5</ele>
        <time>2018-10-25T07:54:40.000Z</time>
      </trkpt>
      <trkpt lat="45.89188" lon="1.28707">
        <ele>317.5</ele>
        <time>2018-10-25T07:54:47.000Z</time>
      </trkpt>
      <trkpt lat="45.89192" lon="1.28709">
        <ele>317.4</ele>
        <time>2018-10-25T07:54:50.000Z</time>
      </trkpt>
      <trkpt lat="45.89197" lon="1.28717">
        <ele>317.4</ele>
        <time>2018-10-25T07:54:53.000Z</time>
      </trkpt>
      <trkpt lat="45.89199" lon="1.28728">
        <ele>317.2</ele>
        <time>2018-10-25T07:54:56.000Z</time>
      </trkpt>
      <trkpt lat="45.89199" lon="1.28739">
        <ele>317.1</ele>
        <time>2018-10-25T07:54:59.000Z</time>
      </trkpt>
      <trkpt lat="45.89201" lon="1.2875">
        <ele>316.9</ele>
        <time>2018-10-25T07:55:02.000Z</time>
      </trkpt>
      <trkpt lat="45.89204" lon="1.2876">
        <ele>316.8</ele>
        <time>2018-10-25T07:55:05.000Z</time>
      </trkpt>
      <trkpt lat="45.89206" lon="1.28771">
        <ele>316.7</ele>
        <time>2018-10-25T07:55:08.000Z</time>
      </trkpt>
      <trkpt lat="45.89209" lon="1.2878">
        <ele>316.8</ele>
        <time>2018-10-25T07:55:11.000Z</time>
      </trkpt>
      <trkpt lat="45.89214" lon="1.28787">
        <ele>317</ele>
        <time>2018-10-25T07:55:14.000Z</time>
      </trkpt>
      <trkpt lat="45.89219" lon="1.28794">
        <ele>317.2</ele>
        <time>2018-10-25T07:55:17.000Z</time>
      </trkpt>
      <trkpt lat="45.89225" lon="1.28801">
        <ele>317.5</ele>
        <time>2018-10-25T07:55:20.000Z</time>
      </trkpt>
      <trkpt lat="45.89231" lon="1.28807">
        <ele>317.7</ele>
        <time>2018-10-25T07:55:23.000Z</time>
      </trkpt>
      <trkpt lat="45.89237" lon="1.28814">
        <ele>317.9</ele>
        <time>2018-10-25T07:55:26.000Z</time>
      </trkpt>
      <trkpt lat="45.89244" lon="1.28821">
        <ele>318.2</ele>
        <time>2018-10-25T07:55:29.000Z</time>
      </trkpt>
      <trkpt lat="45.89251" lon="1.28827">
        <ele>318.4</ele>
        <time>2018-10-25T07:55:32.000Z</time>
      </trkpt>
      <trkpt lat="45.89259" lon="1.28832">
        <ele>318.6</ele>
        <time>2018-10-25T07:55:35.000Z</time>
      </trkpt>
      <trkpt lat="45.89267" lon="1.28836">
        <ele>318.8</ele>
        <time>2018-10-25T07:55:38.000Z</time>
      </trkpt>
      <trkpt lat="45.89275" lon="1.28839">
        <ele>319</ele>
        <time>2018-10-25T07:55:41.000Z</time>
      </trkpt>
      <trkpt lat="45.89283" lon="1.28841">
        <ele>319.1</ele>
        <time>2018-10-25T07:55:44.000Z</time>
      </trkpt>
      <trkpt lat="45.89291" lon="1.28843">
        <ele>319.3</ele>
        <time>2018-10-25T07:55:47.000Z</time>
      </trkpt>
      <trkpt lat="45.89299" lon="1.28844">
        <ele>319.4</ele>
        <time>2018-10-25T07:55:50.000Z</time>
      </trkpt>
      <trkpt lat="45.89307" lon="1.28845">
        <ele>319.5</ele>
        <time>2018-10-25T07:55:53.000Z</time>
      </trkpt>
      <trkpt lat="45.89315" lon="1.28848">
        <ele>319.6</ele>
        <time>2018-10-25T07:55:56.000Z</time>
      </trkpt>
      <trkpt lat="45.89324" lon="1.28851">
        <ele>319.7</ele>
        <time>2018-10-25T07:56:05.000Z</time>
      </trkpt>
      <trkpt lat="45.89332" lon="1.28854">
        <ele>319.9</ele>
        <time>2018-10-25T07:56:06.000Z</time>
      </trkpt>
      <trkpt lat="45.89341" lon="1.28857">
        <ele>320.1</ele>
        <time>2018-10-25T07:56:07.000Z</time>
      </trkpt>
      <trkpt lat="45.89349" lon="1.28859">
        <ele>320.5</ele>
        <time>2018-10-25T07:56:08.000Z</time>
      </trkpt>
      <trkpt lat="45.89355" lon="1.28862">
        <ele>320.9</ele>
        <time>2018-10-25T07:56:11.000Z</time>
      </trkpt>
      <trkpt lat="45.89363" lon="1.28864">
        <ele>321.5</ele>
        <time>2018-10-25T07:56:14.000Z</time>
      </trkpt>
      <trkpt lat="45.8937" lon="1.28866">
        <ele>322</ele>
        <time>2018-10-25T07:56:17.000Z</time>
      </trkpt>
      <trkpt lat="45.89378" lon="1.28867">
        <ele>322.6</ele>
        <time>2018-10-25T07:56:20.000Z</time>
      </trkpt>
      <trkpt lat="45.89386" lon="1.28869">
        <ele>323.2</ele>
        <time>2018-10-25T07:56:23.000Z</time>
      </trkpt>
      <trkpt lat="45.89395" lon="1.28871">
        <ele>323.8</ele>
        <time>2018-10-25T07:56:26.000Z</time>
      </trkpt>
      <trkpt lat="45.89403" lon="1.28871">
        <ele>324.3</ele>
        <time>2018-10-25T07:56:29.000Z</time>
      </trkpt>
      <trkpt lat="45.89413" lon="1.2887">
        <ele>324.9</ele>
        <time>2018-10-25T07:56:32.000Z</time>
      </trkpt>
      <trkpt lat="45.89423" lon="1.28865">
        <ele>325.3</ele>
        <time>2018-10-25T07:56:35.000Z</time>
      </trkpt>
      <trkpt lat="45.89433" lon="1.2887">
        <ele>325.6</ele>
        <time>2018-10-25T07:56:38.000Z</time>
      </trkpt>
      <trkpt lat="45.89439" lon="1.28884">
        <ele>325.9</ele>
        <time>2018-10-25T07:56:41.000Z</time>
      </trkpt>
      <trkpt lat="45.89439" lon="1.28896">
        <ele>326.2</ele>
        <time>2018-10-25T07:56:44.000Z</time>
      </trkpt>
      <trkpt lat="45.89439" lon="1.28907">
        <ele>326.6</ele>
        <time>2018-10-25T07:56:47.000Z</time>
      </trkpt>
      <trkpt lat="45.89438" lon="1.28918">
        <ele>327.2</ele>
        <time>2018-10-25T07:56:50.000Z</time>
      </trkpt>
      <trkpt lat="45.89438" lon="1.2893">
        <ele>327.8</ele>
        <time>2018-10-25T07:56:53.000Z</time>
      </trkpt>
      <trkpt lat="45.89438" lon="1.28943">
        <ele>328.4</ele>
        <time>2018-10-25T07:56:56.000Z</time>
      </trkpt>
      <trkpt lat="45.8944" lon="1.28954">
        <ele>329</ele>
        <time>2018-10-25T07:56:59.000Z</time>
      </trkpt>
      <trkpt lat="45.89446" lon="1.28964">
        <ele>329.5</ele>
        <time>2018-10-25T07:57:02.000Z</time>
      </trkpt>
      <trkpt lat="45.89454" lon="1.2897">
        <ele>330</ele>
        <time>2018-10-25T07:57:05.000Z</time>
      </trkpt>
      <trkpt lat="45.89462" lon="1.28977">
        <ele>330.4</ele>
        <time>2018-10-25T07:57:08.000Z</time>
      </trkpt>
      <trkpt lat="45.89469" lon="1.28983">
        <ele>330.9</ele>
        <time>2018-10-25T07:57:11.000Z</time>
      </trkpt>
      <trkpt lat="45.8948" lon="1.28984">
        <ele>331.3</ele>
        <time>2018-10-25T07:57:14.000Z</time>
      </trkpt>
      <trkpt lat="45.89495" lon="1.28983">
        <ele>331.7</ele>
        <time>2018-10-25T07:57:17.000Z</time>
      </trkpt>
      <trkpt lat="45.89507" lon="1.28988">
        <ele>332.1</ele>
        <time>2018-10-25T07:57:20.000Z</time>
      </trkpt>
      <trkpt lat="45.89516" lon="1.28991">
        <ele>332.3</ele>
        <time>2018-10-25T07:57:23.000Z</time>
      </trkpt>
      <trkpt lat="45.89525" lon="1.28995">
        <ele>332.5</ele>
        <time>2018-10-25T07:57:26.000Z</time>
      </trkpt>
      <trkpt lat="45.89531" lon="1.28998">
        <ele>332.5</ele>
        <time>2018-10-25T07:57:28.000Z</time>
      </trkpt>
      <trkpt lat="45.89537" lon="1.29">
        <ele>332.4</ele>
        <time>2018-10-25T07:57:30.000Z</time>
      </trkpt>
      <trkpt lat="45.89544" lon="1.29003">
        <ele>332.3</ele>
        <time>2018-10-25T07:57:32.000Z</time>
      </trkpt>
      <trkpt lat="45.89551" lon="1.29005">
        <ele>332.1</ele>
        <time>2018-10-25T07:57:34.000Z</time>
      </trkpt>
      <trkpt lat="45.89558" lon="1.29007">
        <ele>331.9</ele>
        <time>2018-10-25T07:57:36.000Z</time>
      </trkpt>
      <trkpt lat="45.89565" lon="1.29011">
        <ele>331.6</ele>
        <time>2018-10-25T07:57:38.000Z</time>
      </trkpt>
      <trkpt lat="45.89573" lon="1.29015">
        <ele>331.3</ele>
        <time>2018-10-25T07:57:40.000Z</time>
      </trkpt>
      <trkpt lat="45.89581" lon="1.29018">
        <ele>331</ele>
        <time>2018-10-25T07:57:42.000Z</time>
      </trkpt>
      <trkpt lat="45.89589" lon="1.29022">
        <ele>330.7</ele>
        <time>2018-10-25T07:57:44.000Z</time>
      </trkpt>
      <trkpt lat="45.89598" lon="1.29027">
        <ele>330.2</ele>
        <time>2018-10-25T07:57:46.000Z</time>
      </trkpt>
      <trkpt lat="45.89607" lon="1.29032">
        <ele>329.8</ele>
        <time>2018-10-25T07:57:48.000Z</time>
      </trkpt>
      <trkpt lat="45.89616" lon="1.29037">
        <ele>329.2</ele>
        <time>2018-10-25T07:57:50.000Z</time>
      </trkpt>
      <trkpt lat="45.89626" lon="1.29042">
        <ele>328.7</ele>
        <time>2018-10-25T07:57:52.000Z</time>
      </trkpt>
      <trkpt lat="45.89635" lon="1.29047">
        <ele>328.1</ele>
        <time>2018-10-25T07:57:54.000Z</time>
      </trkpt>
      <trkpt lat="45.89644" lon="1.29052">
        <ele>327.5</ele>
        <time>2018-10-25T07:57:56.000Z</time>
      </trkpt>
      <trkpt lat="45.89654" lon="1.29058">
        <ele>326.8</ele>
        <time>2018-10-25T07:57:58.000Z</time>
      </trkpt>
      <trkpt lat="45.89666" lon="1.2906">
        <ele>326.2</ele>
        <time>2018-10-25T07:58:00.000Z</time>
      </trkpt>
      <trkpt lat="45.89676" lon="1.2906">
        <ele>325.6</ele>
        <time>2018-10-25T07:58:02.000Z</time>
      </trkpt>
      <trkpt lat="45.89686" lon="1.2906">
        <ele>325</ele>
        <time>2018-10-25T07:58:04.000Z</time>
      </trkpt>
      <trkpt lat="45.89696" lon="1.29063">
        <ele>324.5</ele>
        <time>2018-10-25T07:58:06.000Z</time>
      </trkpt>
      <trkpt lat="45.89706" lon="1.29066">
        <ele>324.1</ele>
        <time>2018-10-25T07:58:08.000Z</time>
      </trkpt>
      <trkpt lat="45.89715" lon="1.2907">
        <ele>323.7</ele>
        <time>2018-10-25T07:58:10.000Z</time>
      </trkpt>
      <trkpt lat="45.89724" lon="1.29074">
        <ele>323.4</ele>
        <time>2018-10-25T07:58:12.000Z</time>
      </trkpt>
      <trkpt lat="45.89733" lon="1.29076">
        <ele>323.1</ele>
        <time>2018-10-25T07:58:14.000Z</time>
      </trkpt>
      <trkpt lat="45.89742" lon="1.29082">
        <ele>322.8</ele>
        <time>2018-10-25T07:58:16.000Z</time>
      </trkpt>
      <trkpt lat="45.89752" lon="1.29085">
        <ele>322.5</ele>
        <time>2018-10-25T07:58:18.000Z</time>
      </trkpt>
      <trkpt lat="45.89766" lon="1.29092">
        <ele>322.4</ele>
        <time>2018-10-25T07:58:21.000Z</time>
      </trkpt>
      <trkpt lat="45.89778" lon="1.29097">
        <ele>322.3</ele>
        <time>2018-10-25T07:58:24.000Z</time>
      </trkpt>
      <trkpt lat="45.8979" lon="1.291">
        <ele>322.3</ele>
        <time>2018-10-25T07:58:27.000Z</time>
      </trkpt>
      <trkpt lat="45.89801" lon="1.29102">
        <ele>322.4</ele>
        <time>2018-10-25T07:58:30.000Z</time>
      </trkpt>
      <trkpt lat="45.89812" lon="1.29101">
        <ele>322.6</ele>
        <time>2018-10-25T07:58:33.000Z</time>
      </trkpt>
      <trkpt lat="45.89823" lon="1.29098">
        <ele>322.6</ele>
        <time>2018-10-25T07:58:36.000Z</time>
      </trkpt>
      <trkpt lat="45.89833" lon="1.29092">
        <ele>322.7</ele>
        <time>2018-10-25T07:58:39.000Z</time>
      </trkpt>
      <trkpt lat="45.89845" lon="1.29085">
        <ele>322.8</ele>
        <time>2018-10-25T07:58:42.000Z</time>
      </trkpt>
      <trkpt lat="45.89853" lon="1.29078">
        <ele>322.9</ele>
        <time>2018-10-25T07:58:45.000Z</time>
      </trkpt>
      <trkpt lat="45.89859" lon="1.2907">
        <ele>323</ele>
        <time>2018-10-25T07:58:48.000Z</time>
      </trkpt>
      <trkpt lat="45.89868" lon="1.29062">
        <ele>323.1</ele>
        <time>2018-10-25T07:58:51.000Z</time>
      </trkpt>
      <trkpt lat="45.89876" lon="1.29052">
        <ele>323.1</ele>
        <time>2018-10-25T07:58:54.000Z</time>
      </trkpt>
      <trkpt lat="45.89884" lon="1.29043">
        <ele>323.1</ele>
        <time>2018-10-25T07:58:57.000Z</time>
      </trkpt>
      <trkpt lat="45.89892" lon="1.29034">
        <ele>323.2</ele>
        <time>2018-10-25T07:59:00.000Z</time>
      </trkpt>
      <trkpt lat="45.89899" lon="1.29023">
        <ele>323.3</ele>
        <time>2018-10-25T07:59:05.000Z</time>
      </trkpt>
      <trkpt lat="45.89906" lon="1.29013">
        <ele>323.4</ele>
        <time>2018-10-25T07:59:06.000Z</time>
      </trkpt>
      <trkpt lat="45.89912" lon="1.29002">
        <ele>323.5</ele>
        <time>2018-10-25T07:59:09.000Z</time>
      </trkpt>
      <trkpt lat="45.89919" lon="1.28991">
        <ele>323.7</ele>
        <time>2018-10-25T07:59:12.000Z</time>
      </trkpt>
      <trkpt lat="45.89927" lon="1.28983">
        <ele>323.8</ele>
        <time>2018-10-25T07:59:15.000Z</time>
      </trkpt>
      <trkpt lat="45.89936" lon="1.28978">
        <ele>323.8</ele>
        <time>2018-10-25T07:59:18.000Z</time>
      </trkpt>
      <trkpt lat="45.89944" lon="1.28971">
        <ele>323.9</ele>
        <time>2018-10-25T07:59:21.000Z</time>
      </trkpt>
      <trkpt lat="45.89952" lon="1.28964">
        <ele>323.8</ele>
        <time>2018-10-25T07:59:24.000Z</time>
      </trkpt>
      <trkpt lat="45.89961" lon="1.28958">
        <ele>323.8</ele>
        <time>2018-10-25T07:59:27.000Z</time>
      </trkpt>
      <trkpt lat="45.8997" lon="1.28952">
        <ele>323.8</ele>
        <time>2018-10-25T07:59:30.000Z</time>
      </trkpt>
      <trkpt lat="45.89977" lon="1.28946">
        <ele>323.8</ele>
        <time>2018-10-25T07:59:33.000Z</time>
      </trkpt>
      <trkpt lat="45.89986" lon="1.2894">
        <ele>323.7</ele>
        <time>2018-10-25T07:59:36.000Z</time>
      </trkpt>
      <trkpt lat="45.89994" lon="1.28934">
        <ele>323.8</ele>
        <time>2018-10-25T07:59:39.000Z</time>
      </trkpt>
      <trkpt lat="45.90001" lon="1.28928">
        <ele>323.8</ele>
        <time>2018-10-25T07:59:42.000Z</time>
      </trkpt>
      <trkpt lat="45.90008" lon="1.28921">
        <ele>323.9</ele>
        <time>2018-10-25T07:59:45.000Z</time>
      </trkpt>
      <trkpt lat="45.90015" lon="1.28915">
        <ele>324</ele>
        <time>2018-10-25T07:59:48.000Z</time>
      </trkpt>
      <trkpt lat="45.90022" lon="1.28908">
        <ele>324.2</ele>
        <time>2018-10-25T07:59:51.000Z</time>
      </trkpt>
      <trkpt lat="45.90029" lon="1.28899">
        <ele>324.5</ele>
        <time>2018-10-25T07:59:54.000Z</time>
      </trkpt>
      <trkpt lat="45.90035" lon="1.2889">
        <ele>324.9</ele>
        <time>2018-10-25T07:59:57.000Z</time>
      </trkpt>
      <trkpt lat="45.90041" lon="1.28881">
        <ele>325.3</ele>
        <time>2018-10-25T08:00:00.000Z</time>
      </trkpt>
      <trkpt lat="45.90046" lon="1.28872">
        <ele>325.8</ele>
        <time>2018-10-25T08:00:03.000Z</time>
      </trkpt>
      <trkpt lat="45.9005" lon="1.28862">
        <ele>326.3</ele>
        <time>2018-10-25T08:00:06.000Z</time>
      </trkpt>
      <trkpt lat="45.90055" lon="1.28852">
        <ele>326.8</ele>
        <time>2018-10-25T08:00:09.000Z</time>
      </trkpt>
      <trkpt lat="45.9006" lon="1.28843">
        <ele>327.3</ele>
        <time>2018-10-25T08:00:12.000Z</time>
      </trkpt>
      <trkpt lat="45.90065" lon="1.28834">
        <ele>327.9</ele>
        <time>2018-10-25T08:00:15.000Z</time>
      </trkpt>
      <trkpt lat="45.90069" lon="1.28826">
        <ele>328.5</ele>
        <time>2018-10-25T08:00:18.000Z</time>
      </trkpt>
      <trkpt lat="45.90074" lon="1.28817">
        <ele>329</ele>
        <time>2018-10-25T08:00:21.000Z</time>
      </trkpt>
      <trkpt lat="45.90078" lon="1.28808">
        <ele>329.5</ele>
        <time>2018-10-25T08:00:24.000Z</time>
      </trkpt>
      <trkpt lat="45.90083" lon="1.28798">
        <ele>329.9</ele>
        <time>2018-10-25T08:00:27.000Z</time>
      </trkpt>
      <trkpt lat="45.90088" lon="1.28789">
        <ele>330.4</ele>
        <time>2018-10-25T08:00:30.000Z</time>
      </trkpt>
      <trkpt lat="45.90092" lon="1.2878">
        <ele>330.7</ele>
        <time>2018-10-25T08:00:33.000Z</time>
      </trkpt>
      <trkpt lat="45.90097" lon="1.28771">
        <ele>331</ele>
        <time>2018-10-25T08:00:36.000Z</time>
      </trkpt>
      <trkpt lat="45.90102" lon="1.28763">
        <ele>331.2</ele>
        <time>2018-10-25T08:00:39.000Z</time>
      </trkpt>
      <trkpt lat="45.90106" lon="1.28755">
        <ele>331.4</ele>
        <time>2018-10-25T08:00:42.000Z</time>
      </trkpt>
      <trkpt lat="45.90111" lon="1.28746">
        <ele>331.5</ele>
        <time>2018-10-25T08:00:45.000Z</time>
      </trkpt>
      <trkpt lat="45.90115" lon="1.28738">
        <ele>331.5</ele>
        <time>2018-10-25T08:00:48.000Z</time>
      </trkpt>
      <trkpt lat="45.9012" lon="1.28728">
        <ele>331.3</ele>
        <time>2018-10-25T08:00:53.000Z</time>
      </trkpt>
      <trkpt lat="45.90125" lon="1.28718">
        <ele>331.1</ele>
        <time>2018-10-25T08:01:09.000Z</time>
      </trkpt>
      <trkpt lat="45.90129" lon="1.28708">
        <ele>330.7</ele>
        <time>2018-10-25T08:01:11.000Z</time>
      </trkpt>
      <trkpt lat="45.90132" lon="1.287">
        <ele>330.4</ele>
        <time>2018-10-25T08:01:11.000Z</time>
      </trkpt>
      <trkpt lat="45.90136" lon="1.28692">
        <ele>330.1</ele>
        <time>2018-10-25T08:01:12.000Z</time>
      </trkpt>
      <trkpt lat="45.9014" lon="1.28684">
        <ele>329.9</ele>
        <time>2018-10-25T08:01:12.000Z</time>
      </trkpt>
      <trkpt lat="45.90144" lon="1.28675">
        <ele>329.7</ele>
        <time>2018-10-25T08:01:13.000Z</time>
      </trkpt>
      <trkpt lat="45.90147" lon="1.28668">
        <ele>329.5</ele>
        <time>2018-10-25T08:01:13.000Z</time>
      </trkpt>
      <trkpt lat="45.90151" lon="1.28661">
        <ele>329.4</ele>
        <time>2018-10-25T08:01:15.000Z</time>
      </trkpt>
      <trkpt lat="45.90155" lon="1.28653">
        <ele>329.3</ele>
        <time>2018-10-25T08:01:18.000Z</time>
      </trkpt>
      <trkpt lat="45.9016" lon="1.28646">
        <ele>329.2</ele>
        <time>2018-10-25T08:01:21.000Z</time>
      </trkpt>
      <trkpt lat="45.90164" lon="1.28639">
        <ele>329.1</ele>
        <time>2018-10-25T08:01:24.000Z</time>
      </trkpt>
      <trkpt lat="45.9017" lon="1.28631">
        <ele>329</ele>
        <time>2018-10-25T08:01:27.000Z</time>
      </trkpt>
      <trkpt lat="45.90177" lon="1.28625">
        <ele>328.9</ele>
        <time>2018-10-25T08:01:30.000Z</time>
      </trkpt>
      <trkpt lat="45.90184" lon="1.2862">
        <ele>328.9</ele>
        <time>2018-10-25T08:01:33.000Z</time>
      </trkpt>
      <trkpt lat="45.90192" lon="1.28614">
        <ele>328.9</ele>
        <time>2018-10-25T08:01:36.000Z</time>
      </trkpt>
      <trkpt lat="45.902" lon="1.2861">
        <ele>329</ele>
        <time>2018-10-25T08:01:39.000Z</time>
      </trkpt>
      <trkpt lat="45.90208" lon="1.28606">
        <ele>329.2</ele>
        <time>2018-10-25T08:01:42.000Z</time>
      </trkpt>
      <trkpt lat="45.90216" lon="1.28601">
        <ele>329.3</ele>
        <time>2018-10-25T08:01:45.000Z</time>
      </trkpt>
      <trkpt lat="45.90224" lon="1.28596">
        <ele>329.6</ele>
        <time>2018-10-25T08:01:48.000Z</time>
      </trkpt>
      <trkpt lat="45.90232" lon="1.28592">
        <ele>329.8</ele>
        <time>2018-10-25T08:01:51.000Z</time>
      </trkpt>
      <trkpt lat="45.90237" lon="1.28588">
        <ele>330</ele>
        <time>2018-10-25T08:01:53.000Z</time>
      </trkpt>
      <trkpt lat="45.90244" lon="1.28583">
        <ele>330.2</ele>
        <time>2018-10-25T08:01:56.000Z</time>
      </trkpt>
      <trkpt lat="45.9025" lon="1.28578">
        <ele>330.5</ele>
        <time>2018-10-25T08:01:59.000Z</time>
      </trkpt>
      <trkpt lat="45.90255" lon="1.28575">
        <ele>330.7</ele>
        <time>2018-10-25T08:02:02.000Z</time>
      </trkpt>
      <trkpt lat="45.90263" lon="1.28571">
        <ele>330.8</ele>
        <time>2018-10-25T08:02:05.000Z</time>
      </trkpt>
      <trkpt lat="45.90271" lon="1.28567">
        <ele>331</ele>
        <time>2018-10-25T08:02:08.000Z</time>
      </trkpt>
      <trkpt lat="45.90277" lon="1.2856">
        <ele>331.1</ele>
        <time>2018-10-25T08:02:11.000Z</time>
      </trkpt>
      <trkpt lat="45.90284" lon="1.28552">
        <ele>331.2</ele>
        <time>2018-10-25T08:02:14.000Z</time>
      </trkpt>
      <trkpt lat="45.9029" lon="1.28544">
        <ele>331.2</ele>
        <time>2018-10-25T08:02:17.000Z</time>
      </trkpt>
      <trkpt lat="45.90296" lon="1.28535">
        <ele>331.3</ele>
        <time>2018-10-25T08:02:20.000Z</time>
      </trkpt>
      <trkpt lat="45.90303" lon="1.28527">
        <ele>331.2</ele>
        <time>2018-10-25T08:02:23.000Z</time>
      </trkpt>
      <trkpt lat="45.90309" lon="1.28519">
        <ele>331.2</ele>
        <time>2018-10-25T08:02:26.000Z</time>
      </trkpt>
      <trkpt lat="45.90314" lon="1.28511">
        <ele>331.2</ele>
        <time>2018-10-25T08:02:29.000Z</time>
      </trkpt>
      <trkpt lat="45.90321" lon="1.28504">
        <ele>331.1</ele>
        <time>2018-10-25T08:02:32.000Z</time>
      </trkpt>
      <trkpt lat="45.90328" lon="1.28497">
        <ele>331</ele>
        <time>2018-10-25T08:02:35.000Z</time>
      </trkpt>
      <trkpt lat="45.90334" lon="1.2849">
        <ele>331</ele>
        <time>2018-10-25T08:02:38.000Z</time>
      </trkpt>
      <trkpt lat="45.90339" lon="1.28483">
        <ele>331</ele>
        <time>2018-10-25T08:02:41.000Z</time>
      </trkpt>
      <trkpt lat="45.90344" lon="1.28476">
        <ele>331.1</ele>
        <time>2018-10-25T08:02:44.000Z</time>
      </trkpt>
      <trkpt lat="45.90348" lon="1.28469">
        <ele>331.2</ele>
        <time>2018-10-25T08:02:47.000Z</time>
      </trkpt>
      <trkpt lat="45.90353" lon="1.28463">
        <ele>331.3</ele>
        <time>2018-10-25T08:02:50.000Z</time>
      </trkpt>
      <trkpt lat="45.90361" lon="1.28459">
        <ele>331.5</ele>
        <time>2018-10-25T08:02:53.000Z</time>
      </trkpt>
      <trkpt lat="45.90368" lon="1.28455">
        <ele>331.7</ele>
        <time>2018-10-25T08:02:56.000Z</time>
      </trkpt>
      <trkpt lat="45.90376" lon="1.28451">
        <ele>331.8</ele>
        <time>2018-10-25T08:02:59.000Z</time>
      </trkpt>
      <trkpt lat="45.90383" lon="1.28448">
        <ele>332</ele>
        <time>2018-10-25T08:03:02.000Z</time>
      </trkpt>
      <trkpt lat="45.90389" lon="1.28444">
        <ele>332.2</ele>
        <time>2018-10-25T08:03:05.000Z</time>
      </trkpt>
      <trkpt lat="45.90394" lon="1.2844">
        <ele>332.4</ele>
        <time>2018-10-25T08:03:08.000Z</time>
      </trkpt>
      <trkpt lat="45.904" lon="1.28435">
        <ele>332.5</ele>
        <time>2018-10-25T08:03:11.000Z</time>
      </trkpt>
      <trkpt lat="45.90407" lon="1.28431">
        <ele>332.7</ele>
        <time>2018-10-25T08:03:14.000Z</time>
      </trkpt>
      <trkpt lat="45.90415" lon="1.28428">
        <ele>332.8</ele>
        <time>2018-10-25T08:03:17.000Z</time>
      </trkpt>
      <trkpt lat="45.90422" lon="1.28425">
        <ele>333</ele>
        <time>2018-10-25T08:03:20.000Z</time>
      </trkpt>
      <trkpt lat="45.90429" lon="1.28422">
        <ele>333.2</ele>
        <time>2018-10-25T08:03:23.000Z</time>
      </trkpt>
      <trkpt lat="45.90437" lon="1.28419">
        <ele>333.5</ele>
        <time>2018-10-25T08:03:26.000Z</time>
      </trkpt>
      <trkpt lat="45.90443" lon="1.28416">
        <ele>333.8</ele>
        <time>2018-10-25T08:03:29.000Z</time>
      </trkpt>
      <trkpt lat="45.90447" lon="1.28414">
        <ele>334.2</ele>
        <time>2018-10-25T08:03:33.000Z</time>
      </trkpt>
      <trkpt lat="45.90449" lon="1.28413">
        <ele>334.5</ele>
        <time>2018-10-25T08:03:38.000Z</time>
      </trkpt>
      <trkpt lat="45.9045" lon="1.28414">
        <ele>334.7</ele>
        <time>2018-10-25T08:03:43.000Z</time>
      </trkpt>
      <trkpt lat="45.90452" lon="1.28412">
        <ele>335</ele>
        <time>2018-10-25T08:05:18.000Z</time>
      </trkpt>
      <trkpt lat="45.90454" lon="1.28411">
        <ele>335.1</ele>
        <time>2018-10-25T08:05:20.000Z</time>
      </trkpt>
      <trkpt lat="45.90455" lon="1.28408">
        <ele>335.2</ele>
        <time>2018-10-25T08:05:22.000Z</time>
      </trkpt>
      <trkpt lat="45.90458" lon="1.28402">
        <ele>335.3</ele>
        <time>2018-10-25T08:05:24.000Z</time>
      </trkpt>
      <trkpt lat="45.90459" lon="1.28394">
        <ele>335.4</ele>
        <time>2018-10-25T08:05:26.000Z</time>
      </trkpt>
      <trkpt lat="45.9046" lon="1.28386">
        <ele>335.5</ele>
        <time>2018-10-25T08:05:28.000Z</time>
      </trkpt>
      <trkpt lat="45.9046" lon="1.28368">
        <ele>335.7</ele>
        <time>2018-10-25T08:05:32.000Z</time>
      </trkpt>
      <trkpt lat="45.90461" lon="1.28359">
        <ele>335.8</ele>
        <time>2018-10-25T08:05:34.000Z</time>
      </trkpt>
      <trkpt lat="45.90461" lon="1.2835">
        <ele>335.9</ele>
        <time>2018-10-25T08:05:36.000Z</time>
      </trkpt>
      <trkpt lat="45.90461" lon="1.28331">
        <ele>336</ele>
        <time>2018-10-25T08:05:40.000Z</time>
      </trkpt>
      <trkpt lat="45.90461" lon="1.28322">
        <ele>336</ele>
        <time>2018-10-25T08:05:42.000Z</time>
      </trkpt>
      <trkpt lat="45.90463" lon="1.28314">
        <ele>336.1</ele>
        <time>2018-10-25T08:05:44.000Z</time>
      </trkpt>
      <trkpt lat="45.90465" lon="1.28305">
        <ele>336.1</ele>
        <time>2018-10-25T08:05:46.000Z</time>
      </trkpt>
      <trkpt lat="45.90467" lon="1.28295">
        <ele>336.1</ele>
        <time>2018-10-25T08:05:48.000Z</time>
      </trkpt>
      <trkpt lat="45.90469" lon="1.28286">
        <ele>336.2</ele>
        <time>2018-10-25T08:05:50.000Z</time>
      </trkpt>
      <trkpt lat="45.90471" lon="1.28277">
        <ele>336.2</ele>
        <time>2018-10-25T08:05:52.000Z</time>
      </trkpt>
      <trkpt lat="45.90473" lon="1.28268">
        <ele>336.2</ele>
        <time>2018-10-25T08:05:55.000Z</time>
      </trkpt>
      <trkpt lat="45.90475" lon="1.28258">
        <ele>336.1</ele>
        <time>2018-10-25T08:05:56.000Z</time>
      </trkpt>
      <trkpt lat="45.90477" lon="1.28246">
        <ele>336</ele>
        <time>2018-10-25T08:05:58.000Z</time>
      </trkpt>
      <trkpt lat="45.9048" lon="1.28232">
        <ele>335.9</ele>
        <time>2018-10-25T08:06:06.000Z</time>
      </trkpt>
      <trkpt lat="45.90483" lon="1.2822">
        <ele>335.8</ele>
        <time>2018-10-25T08:06:06.000Z</time>
      </trkpt>
      <trkpt lat="45.90488" lon="1.28212">
        <ele>335.7</ele>
        <time>2018-10-25T08:06:06.000Z</time>
      </trkpt>
      <trkpt lat="45.90492" lon="1.28203">
        <ele>335.5</ele>
        <time>2018-10-25T08:06:07.000Z</time>
      </trkpt>
      <trkpt lat="45.90493" lon="1.28191">
        <ele>335.4</ele>
        <time>2018-10-25T08:06:08.000Z</time>
      </trkpt>
      <trkpt lat="45.90491" lon="1.28179">
        <ele>335.3</ele>
        <time>2018-10-25T08:06:10.000Z</time>
      </trkpt>
      <trkpt lat="45.90493" lon="1.28161">
        <ele>335.2</ele>
        <time>2018-10-25T08:06:13.000Z</time>
      </trkpt>
      <trkpt lat="45.90496" lon="1.28145">
        <ele>335</ele>
        <time>2018-10-25T08:06:16.000Z</time>
      </trkpt>
      <trkpt lat="45.90499" lon="1.28129">
        <ele>334.8</ele>
        <time>2018-10-25T08:06:19.000Z</time>
      </trkpt>
      <trkpt lat="45.90503" lon="1.28113">
        <ele>334.5</ele>
        <time>2018-10-25T08:06:22.000Z</time>
      </trkpt>
      <trkpt lat="45.90508" lon="1.28098">
        <ele>334.1</ele>
        <time>2018-10-25T08:06:25.000Z</time>
      </trkpt>
      <trkpt lat="45.90512" lon="1.28083">
        <ele>333.7</ele>
        <time>2018-10-25T08:06:28.000Z</time>
      </trkpt>
      <trkpt lat="45.90519" lon="1.28069">
        <ele>333.4</ele>
        <time>2018-10-25T08:06:31.000Z</time>
      </trkpt>
      <trkpt lat="45.90526" lon="1.28056">
        <ele>333.2</ele>
        <time>2018-10-25T08:06:34.000Z</time>
      </trkpt>
      <trkpt lat="45.90533" lon="1.28044">
        <ele>333.1</ele>
        <time>2018-10-25T08:06:37.000Z</time>
      </trkpt>
      <trkpt lat="45.90541" lon="1.28031">
        <ele>333.1</ele>
        <time>2018-10-25T08:06:40.000Z</time>
      </trkpt>
      <trkpt lat="45.90549" lon="1.28019">
        <ele>333.2</ele>
        <time>2018-10-25T08:06:43.000Z</time>
      </trkpt>
      <trkpt lat="45.90558" lon="1.28006">
        <ele>333.4</ele>
        <time>2018-10-25T08:06:46.000Z</time>
      </trkpt>
      <trkpt lat="45.90565" lon="1.27991">
        <ele>333.7</ele>
        <time>2018-10-25T08:06:49.000Z</time>
      </trkpt>
      <trkpt lat="45.90575" lon="1.27977">
        <ele>334.1</ele>
        <time>2018-10-25T08:06:52.000Z</time>
      </trkpt>
      <trkpt lat="45.90583" lon="1.27961">
        <ele>334.5</ele>
        <time>2018-10-25T08:06:55.000Z</time>
      </trkpt>
      <trkpt lat="45.90591" lon="1.27946">
        <ele>334.9</ele>
        <time>2018-10-25T08:06:58.000Z</time>
      </trkpt>
      <trkpt lat="45.90599" lon="1.27935">
        <ele>335.2</ele>
        <time>2018-10-25T08:07:01.000Z</time>
      </trkpt>
      <trkpt lat="45.90605" lon="1.27922">
        <ele>335.4</ele>
        <time>2018-10-25T08:07:04.000Z</time>
      </trkpt>
      <trkpt lat="45.90612" lon="1.2791">
        <ele>335.5</ele>
        <time>2018-10-25T08:07:07.000Z</time>
      </trkpt>
      <trkpt lat="45.90617" lon="1.27902">
        <ele>335.5</ele>
        <time>2018-10-25T08:07:10.000Z</time>
      </trkpt>
      <trkpt lat="45.90623" lon="1.27893">
        <ele>335.5</ele>
        <time>2018-10-25T08:07:13.000Z</time>
      </trkpt>
      <trkpt lat="45.90629" lon="1.27885">
        <ele>335.5</ele>
        <time>2018-10-25T08:07:16.000Z</time>
      </trkpt>
      <trkpt lat="45.90636" lon="1.27879">
        <ele>335.6</ele>
        <time>2018-10-25T08:07:19.000Z</time>
      </trkpt>
      <trkpt lat="45.90642" lon="1.27873">
        <ele>335.6</ele>
        <time>2018-10-25T08:07:22.000Z</time>
      </trkpt>
      <trkpt lat="45.90648" lon="1.27868">
        <ele>335.8</ele>
        <time>2018-10-25T08:07:25.000Z</time>
      </trkpt>
      <trkpt lat="45.90653" lon="1.27863">
        <ele>336</ele>
        <time>2018-10-25T08:07:28.000Z</time>
      </trkpt>
      <trkpt lat="45.90661" lon="1.27858">
        <ele>336.2</ele>
        <time>2018-10-25T08:07:31.000Z</time>
      </trkpt>
      <trkpt lat="45.90668" lon="1.27851">
        <ele>336.6</ele>
        <time>2018-10-25T08:07:34.000Z</time>
      </trkpt>
      <trkpt lat="45.90676" lon="1.27843">
        <ele>336.9</ele>
        <time>2018-10-25T08:07:37.000Z</time>
      </trkpt>
      <trkpt lat="45.90684" lon="1.27836">
        <ele>337.2</ele>
        <time>2018-10-25T08:07:40.000Z</time>
      </trkpt>
      <trkpt lat="45.9069" lon="1.27829">
        <ele>337.5</ele>
        <time>2018-10-25T08:07:43.000Z</time>
      </trkpt>
      <trkpt lat="45.90694" lon="1.27822">
        <ele>337.8</ele>
        <time>2018-10-25T08:07:46.000Z</time>
      </trkpt>
      <trkpt lat="45.907" lon="1.27816">
        <ele>337.9</ele>
        <time>2018-10-25T08:07:49.000Z</time>
      </trkpt>
      <trkpt lat="45.90707" lon="1.27811">
        <ele>337.9</ele>
        <time>2018-10-25T08:07:52.000Z</time>
      </trkpt>
      <trkpt lat="45.90715" lon="1.27805">
        <ele>337.9</ele>
        <time>2018-10-25T08:07:55.000Z</time>
      </trkpt>
      <trkpt lat="45.90722" lon="1.27799">
        <ele>337.9</ele>
        <time>2018-10-25T08:07:58.000Z</time>
      </trkpt>
      <trkpt lat="45.9073" lon="1.27792">
        <ele>337.9</ele>
        <time>2018-10-25T08:08:01.000Z</time>
      </trkpt>
      <trkpt lat="45.90739" lon="1.27785">
        <ele>337.9</ele>
        <time>2018-10-25T08:08:04.000Z</time>
      </trkpt>
      <trkpt lat="45.90747" lon="1.2778">
        <ele>337.9</ele>
        <time>2018-10-25T08:08:07.000Z</time>
      </trkpt>
      <trkpt lat="45.90755" lon="1.27776">
        <ele>337.9</ele>
        <time>2018-10-25T08:08:10.000Z</time>
      </trkpt>
      <trkpt lat="45.90762" lon="1.27771">
        <ele>338</ele>
        <time>2018-10-25T08:08:13.000Z</time>
      </trkpt>
      <trkpt lat="45.9077" lon="1.27767">
        <ele>338.1</ele>
        <time>2018-10-25T08:08:16.000Z</time>
      </trkpt>
      <trkpt lat="45.90775" lon="1.27763">
        <ele>338.1</ele>
        <time>2018-10-25T08:08:19.000Z</time>
      </trkpt>
      <trkpt lat="45.90781" lon="1.27756">
        <ele>338.2</ele>
        <time>2018-10-25T08:08:22.000Z</time>
      </trkpt>
      <trkpt lat="45.90788" lon="1.27751">
        <ele>338.3</ele>
        <time>2018-10-25T08:08:25.000Z</time>
      </trkpt>
      <trkpt lat="45.90795" lon="1.27746">
        <ele>338.4</ele>
        <time>2018-10-25T08:08:28.000Z</time>
      </trkpt>
      <trkpt lat="45.90802" lon="1.27741">
        <ele>338.4</ele>
        <time>2018-10-25T08:08:31.000Z</time>
      </trkpt>
      <trkpt lat="45.90808" lon="1.27736">
        <ele>338.4</ele>
        <time>2018-10-25T08:08:34.000Z</time>
      </trkpt>
      <trkpt lat="45.90813" lon="1.2773">
        <ele>338.5</ele>
        <time>2018-10-25T08:08:37.000Z</time>
      </trkpt>
      <trkpt lat="45.9082" lon="1.27723">
        <ele>338.5</ele>
        <time>2018-10-25T08:08:40.000Z</time>
      </trkpt>
      <trkpt lat="45.90828" lon="1.27718">
        <ele>338.6</ele>
        <time>2018-10-25T08:08:43.000Z</time>
      </trkpt>
      <trkpt lat="45.90836" lon="1.27711">
        <ele>338.7</ele>
        <time>2018-10-25T08:08:46.000Z</time>
      </trkpt>
      <trkpt lat="45.90844" lon="1.27704">
        <ele>338.9</ele>
        <time>2018-10-25T08:08:49.000Z</time>
      </trkpt>
      <trkpt lat="45.9085" lon="1.27695">
        <ele>339.1</ele>
        <time>2018-10-25T08:08:52.000Z</time>
      </trkpt>
      <trkpt lat="45.90857" lon="1.27688">
        <ele>339.3</ele>
        <time>2018-10-25T08:08:56.000Z</time>
      </trkpt>
      <trkpt lat="45.90864" lon="1.27682">
        <ele>339.6</ele>
        <time>2018-10-25T08:08:58.000Z</time>
      </trkpt>
      <trkpt lat="45.90871" lon="1.27676">
        <ele>339.9</ele>
        <time>2018-10-25T08:09:01.000Z</time>
      </trkpt>
      <trkpt lat="45.90878" lon="1.27671">
        <ele>340.2</ele>
        <time>2018-10-25T08:09:04.000Z</time>
      </trkpt>
      <trkpt lat="45.90882" lon="1.27666">
        <ele>340.6</ele>
        <time>2018-10-25T08:09:07.000Z</time>
      </trkpt>
      <trkpt lat="45.9089" lon="1.2766">
        <ele>341</ele>
        <time>2018-10-25T08:09:10.000Z</time>
      </trkpt>
      <trkpt lat="45.90898" lon="1.27654">
        <ele>341.5</ele>
        <time>2018-10-25T08:09:13.000Z</time>
      </trkpt>
      <trkpt lat="45.90902" lon="1.27649">
        <ele>341.9</ele>
        <time>2018-10-25T08:09:16.000Z</time>
      </trkpt>
      <trkpt lat="45.90908" lon="1.27641">
        <ele>342.3</ele>
        <time>2018-10-25T08:09:19.000Z</time>
      </trkpt>
      <trkpt lat="45.90917" lon="1.27634">
        <ele>342.8</ele>
        <time>2018-10-25T08:09:22.000Z</time>
      </trkpt>
      <trkpt lat="45.90926" lon="1.27626">
        <ele>343.3</ele>
        <time>2018-10-25T08:09:25.000Z</time>
      </trkpt>
      <trkpt lat="45.90933" lon="1.27618">
        <ele>343.8</ele>
        <time>2018-10-25T08:09:28.000Z</time>
      </trkpt>
      <trkpt lat="45.90938" lon="1.27611">
        <ele>344.3</ele>
        <time>2018-10-25T08:09:31.000Z</time>
      </trkpt>
      <trkpt lat="45.9094" lon="1.27603">
        <ele>344.7</ele>
        <time>2018-10-25T08:09:34.000Z</time>
      </trkpt>
      <trkpt lat="45.90943" lon="1.27595">
        <ele>345</ele>
        <time>2018-10-25T08:09:37.000Z</time>
      </trkpt>
      <trkpt lat="45.9095" lon="1.27588">
        <ele>345.4</ele>
        <time>2018-10-25T08:09:40.000Z</time>
      </trkpt>
      <trkpt lat="45.90956" lon="1.27581">
        <ele>345.8</ele>
        <time>2018-10-25T08:09:43.000Z</time>
      </trkpt>
      <trkpt lat="45.90963" lon="1.27572">
        <ele>346.2</ele>
        <time>2018-10-25T08:09:46.000Z</time>
      </trkpt>
      <trkpt lat="45.90971" lon="1.27564">
        <ele>346.6</ele>
        <time>2018-10-25T08:09:49.000Z</time>
      </trkpt>
      <trkpt lat="45.90976" lon="1.27558">
        <ele>347.1</ele>
        <time>2018-10-25T08:09:52.000Z</time>
      </trkpt>
      <trkpt lat="45.90982" lon="1.27551">
        <ele>347.6</ele>
        <time>2018-10-25T08:09:55.000Z</time>
      </trkpt>
      <trkpt lat="45.90987" lon="1.27545">
        <ele>348</ele>
        <time>2018-10-25T08:09:58.000Z</time>
      </trkpt>
      <trkpt lat="45.90993" lon="1.27538">
        <ele>348.4</ele>
        <time>2018-10-25T08:10:01.000Z</time>
      </trkpt>
      <trkpt lat="45.90999" lon="1.27531">
        <ele>348.7</ele>
        <time>2018-10-25T08:10:04.000Z</time>
      </trkpt>
      <trkpt lat="45.91005" lon="1.27523">
        <ele>348.9</ele>
        <time>2018-10-25T08:10:07.000Z</time>
      </trkpt>
      <trkpt lat="45.91011" lon="1.27515">
        <ele>349</ele>
        <time>2018-10-25T08:10:10.000Z</time>
      </trkpt>
      <trkpt lat="45.91017" lon="1.27505">
        <ele>349</ele>
        <time>2018-10-25T08:10:13.000Z</time>
      </trkpt>
      <trkpt lat="45.91022" lon="1.27496">
        <ele>349</ele>
        <time>2018-10-25T08:10:16.000Z</time>
      </trkpt>
      <trkpt lat="45.91029" lon="1.27487">
        <ele>348.9</ele>
        <time>2018-10-25T08:10:19.000Z</time>
      </trkpt>
      <trkpt lat="45.91036" lon="1.27478">
        <ele>348.8</ele>
        <time>2018-10-25T08:10:22.000Z</time>
      </trkpt>
      <trkpt lat="45.91042" lon="1.2747">
        <ele>348.7</ele>
        <time>2018-10-25T08:10:25.000Z</time>
      </trkpt>
      <trkpt lat="45.91048" lon="1.27464">
        <ele>348.6</ele>
        <time>2018-10-25T08:10:28.000Z</time>
      </trkpt>
      <trkpt lat="45.91056" lon="1.27462">
        <ele>348.5</ele>
        <time>2018-10-25T08:10:31.000Z</time>
      </trkpt>
      <trkpt lat="45.91067" lon="1.27466">
        <ele>348.2</ele>
        <time>2018-10-25T08:10:34.000Z</time>
      </trkpt>
      <trkpt lat="45.91077" lon="1.2747">
        <ele>347.9</ele>
        <time>2018-10-25T08:10:37.000Z</time>
      </trkpt>
      <trkpt lat="45.91084" lon="1.27475">
        <ele>347.4</ele>
        <time>2018-10-25T08:10:40.000Z</time>
      </trkpt>
      <trkpt lat="45.91091" lon="1.2748">
        <ele>346.9</ele>
        <time>2018-10-25T08:10:43.000Z</time>
      </trkpt>
      <trkpt lat="45.91098" lon="1.27486">
        <ele>346.3</ele>
        <time>2018-10-25T08:10:46.000Z</time>
      </trkpt>
      <trkpt lat="45.91108" lon="1.27492">
        <ele>345.9</ele>
        <time>2018-10-25T08:10:49.000Z</time>
      </trkpt>
      <trkpt lat="45.91122" lon="1.27499">
        <ele>345.4</ele>
        <time>2018-10-25T08:10:52.000Z</time>
      </trkpt>
      <trkpt lat="45.91137" lon="1.27505">
        <ele>345</ele>
        <time>2018-10-25T08:10:55.000Z</time>
      </trkpt>
      <trkpt lat="45.9115" lon="1.27511">
        <ele>344.6</ele>
        <time>2018-10-25T08:10:58.000Z</time>
      </trkpt>
      <trkpt lat="45.91165" lon="1.27524">
        <ele>344.1</ele>
        <time>2018-10-25T08:11:05.000Z</time>
      </trkpt>
      <trkpt lat="45.91169" lon="1.27528">
        <ele>343.7</ele>
        <time>2018-10-25T08:11:05.000Z</time>
      </trkpt>
      <trkpt lat="45.91171" lon="1.27528">
        <ele>343.5</ele>
        <time>2018-10-25T08:11:07.000Z</time>
      </trkpt>
      <trkpt lat="45.91172" lon="1.27526">
        <ele>343.3</ele>
        <time>2018-10-25T08:11:14.000Z</time>
      </trkpt>
      <trkpt lat="45.91171" lon="1.27525">
        <ele>343.1</ele>
        <time>2018-10-25T08:11:18.000Z</time>
      </trkpt>
      <trkpt lat="45.91169" lon="1.27526">
        <ele>343.1</ele>
        <time>2018-10-25T08:11:26.000Z</time>
      </trkpt>
      <trkpt lat="45.91169" lon="1.27524">
        <ele>343.2</ele>
        <time>2018-10-25T08:11:38.000Z</time>
      </trkpt>
      <trkpt lat="45.91172" lon="1.27522">
        <ele>343.2</ele>
        <time>2018-10-25T08:11:41.000Z</time>
      </trkpt>
      <trkpt lat="45.91174" lon="1.27518">
        <ele>343.3</ele>
        <time>2018-10-25T08:11:44.000Z</time>
      </trkpt>
      <trkpt lat="45.91178" lon="1.27513">
        <ele>343.4</ele>
        <time>2018-10-25T08:11:47.000Z</time>
      </trkpt>
      <trkpt lat="45.91182" lon="1.27506">
        <ele>343.7</ele>
        <time>2018-10-25T08:11:50.000Z</time>
      </trkpt>
      <trkpt lat="45.91187" lon="1.27498">
        <ele>344</ele>
        <time>2018-10-25T08:11:53.000Z</time>
      </trkpt>
      <trkpt lat="45.91189" lon="1.27489">
        <ele>344.3</ele>
        <time>2018-10-25T08:11:56.000Z</time>
      </trkpt>
      <trkpt lat="45.91192" lon="1.2748">
        <ele>344.7</ele>
        <time>2018-10-25T08:11:59.000Z</time>
      </trkpt>
      <trkpt lat="45.91193" lon="1.2747">
        <ele>345.1</ele>
        <time>2018-10-25T08:12:02.000Z</time>
      </trkpt>
      <trkpt lat="45.91197" lon="1.27462">
        <ele>345.5</ele>
        <time>2018-10-25T08:12:05.000Z</time>
      </trkpt>
      <trkpt lat="45.91203" lon="1.27453">
        <ele>345.8</ele>
        <time>2018-10-25T08:12:08.000Z</time>
      </trkpt>
      <trkpt lat="45.91208" lon="1.27444">
        <ele>346.2</ele>
        <time>2018-10-25T08:12:11.000Z</time>
      </trkpt>
      <trkpt lat="45.9121" lon="1.27434">
        <ele>346.5</ele>
        <time>2018-10-25T08:12:14.000Z</time>
      </trkpt>
      <trkpt lat="45.91211" lon="1.27425">
        <ele>346.8</ele>
        <time>2018-10-25T08:12:17.000Z</time>
      </trkpt>
      <trkpt lat="45.91214" lon="1.27416">
        <ele>347.1</ele>
        <time>2018-10-25T08:12:20.000Z</time>
      </trkpt>
      <trkpt lat="45.91217" lon="1.27407">
        <ele>347.3</ele>
        <time>2018-10-25T08:12:23.000Z</time>
      </trkpt>
      <trkpt lat="45.91219" lon="1.274">
        <ele>347.5</ele>
        <time>2018-10-25T08:12:26.000Z</time>
      </trkpt>
      <trkpt lat="45.91227" lon="1.27393">
        <ele>347.6</ele>
        <time>2018-10-25T08:12:29.000Z</time>
      </trkpt>
      <trkpt lat="45.91229" lon="1.27388">
        <ele>347.7</ele>
        <time>2018-10-25T08:12:31.000Z</time>
      </trkpt>
      <trkpt lat="45.91231" lon="1.27382">
        <ele>347.7</ele>
        <time>2018-10-25T08:12:33.000Z</time>
      </trkpt>
      <trkpt lat="45.91232" lon="1.27368">
        <ele>347.7</ele>
        <time>2018-10-25T08:12:37.000Z</time>
      </trkpt>
      <trkpt lat="45.91233" lon="1.27362">
        <ele>347.7</ele>
        <time>2018-10-25T08:12:39.000Z</time>
      </trkpt>
      <trkpt lat="45.91236" lon="1.27356">
        <ele>347.7</ele>
        <time>2018-10-25T08:12:41.000Z</time>
      </trkpt>
      <trkpt lat="45.91238" lon="1.27351">
        <ele>347.6</ele>
        <time>2018-10-25T08:12:43.000Z</time>
      </trkpt>
      <trkpt lat="45.91241" lon="1.27345">
        <ele>347.6</ele>
        <time>2018-10-25T08:12:45.000Z</time>
      </trkpt>
      <trkpt lat="45.91244" lon="1.27339">
        <ele>347.5</ele>
        <time>2018-10-25T08:12:47.000Z</time>
      </trkpt>
      <trkpt lat="45.91245" lon="1.27334">
        <ele>347.4</ele>
        <time>2018-10-25T08:12:49.000Z</time>
      </trkpt>
      <trkpt lat="45.91247" lon="1.27328">
        <ele>347.3</ele>
        <time>2018-10-25T08:12:51.000Z</time>
      </trkpt>
      <trkpt lat="45.91249" lon="1.27323">
        <ele>347.2</ele>
        <time>2018-10-25T08:12:53.000Z</time>
      </trkpt>
      <trkpt lat="45.9125" lon="1.27317">
        <ele>347.2</ele>
        <time>2018-10-25T08:12:55.000Z</time>
      </trkpt>
      <trkpt lat="45.91252" lon="1.2731">
        <ele>347.2</ele>
        <time>2018-10-25T08:12:57.000Z</time>
      </trkpt>
      <trkpt lat="45.91253" lon="1.27303">
        <ele>347.3</ele>
        <time>2018-10-25T08:12:59.000Z</time>
      </trkpt>
      <trkpt lat="45.91255" lon="1.27297">
        <ele>347.3</ele>
        <time>2018-10-25T08:13:01.000Z</time>
      </trkpt>
      <trkpt lat="45.91256" lon="1.27291">
        <ele>347.4</ele>
        <time>2018-10-25T08:13:03.000Z</time>
      </trkpt>
      <trkpt lat="45.91257" lon="1.27285">
        <ele>347.5</ele>
        <time>2018-10-25T08:13:05.000Z</time>
      </trkpt>
      <trkpt lat="45.91259" lon="1.27279">
        <ele>347.7</ele>
        <time>2018-10-25T08:13:07.000Z</time>
      </trkpt>
      <trkpt lat="45.9126" lon="1.27272">
        <ele>347.8</ele>
        <time>2018-10-25T08:13:09.000Z</time>
      </trkpt>
      <trkpt lat="45.91263" lon="1.27267">
        <ele>347.9</ele>
        <time>2018-10-25T08:13:12.000Z</time>
      </trkpt>
      <trkpt lat="45.91265" lon="1.27261">
        <ele>348</ele>
        <time>2018-10-25T08:13:14.000Z</time>
      </trkpt>
      <trkpt lat="45.91268" lon="1.27255">
        <ele>348.1</ele>
        <time>2018-10-25T08:13:15.000Z</time>
      </trkpt>
      <trkpt lat="45.9127" lon="1.27248">
        <ele>348.3</ele>
        <time>2018-10-25T08:13:17.000Z</time>
      </trkpt>
      <trkpt lat="45.91271" lon="1.27241">
        <ele>348.5</ele>
        <time>2018-10-25T08:13:19.000Z</time>
      </trkpt>
      <trkpt lat="45.91273" lon="1.27231">
        <ele>348.7</ele>
        <time>2018-10-25T08:13:22.000Z</time>
      </trkpt>
      <trkpt lat="45.91275" lon="1.27221">
        <ele>349.1</ele>
        <time>2018-10-25T08:13:25.000Z</time>
      </trkpt>
      <trkpt lat="45.91278" lon="1.27211">
        <ele>349.5</ele>
        <time>2018-10-25T08:13:28.000Z</time>
      </trkpt>
      <trkpt lat="45.91281" lon="1.27202">
        <ele>350</ele>
        <time>2018-10-25T08:13:31.000Z</time>
      </trkpt>
      <trkpt lat="45.91283" lon="1.27193">
        <ele>350.5</ele>
        <time>2018-10-25T08:13:34.000Z</time>
      </trkpt>
      <trkpt lat="45.91284" lon="1.27184">
        <ele>351</ele>
        <time>2018-10-25T08:13:37.000Z</time>
      </trkpt>
      <trkpt lat="45.91285" lon="1.27175">
        <ele>351.4</ele>
        <time>2018-10-25T08:13:40.000Z</time>
      </trkpt>
      <trkpt lat="45.91288" lon="1.27167">
        <ele>351.8</ele>
        <time>2018-10-25T08:13:43.000Z</time>
      </trkpt>
      <trkpt lat="45.91291" lon="1.27159">
        <ele>352.1</ele>
        <time>2018-10-25T08:13:46.000Z</time>
      </trkpt>
      <trkpt lat="45.91296" lon="1.27151">
        <ele>352.5</ele>
        <time>2018-10-25T08:13:49.000Z</time>
      </trkpt>
      <trkpt lat="45.913" lon="1.27142">
        <ele>352.7</ele>
        <time>2018-10-25T08:13:52.000Z</time>
      </trkpt>
      <trkpt lat="45.91304" lon="1.27134">
        <ele>353</ele>
        <time>2018-10-25T08:13:55.000Z</time>
      </trkpt>
      <trkpt lat="45.91309" lon="1.27125">
        <ele>353.2</ele>
        <time>2018-10-25T08:13:58.000Z</time>
      </trkpt>
      <trkpt lat="45.91312" lon="1.27116">
        <ele>353.4</ele>
        <time>2018-10-25T08:14:01.000Z</time>
      </trkpt>
      <trkpt lat="45.91316" lon="1.27108">
        <ele>353.7</ele>
        <time>2018-10-25T08:14:04.000Z</time>
      </trkpt>
      <trkpt lat="45.91321" lon="1.271">
        <ele>353.9</ele>
        <time>2018-10-25T08:14:07.000Z</time>
      </trkpt>
      <trkpt lat="45.91327" lon="1.27093">
        <ele>354.2</ele>
        <time>2018-10-25T08:14:10.000Z</time>
      </trkpt>
      <trkpt lat="45.91333" lon="1.27085">
        <ele>354.4</ele>
        <time>2018-10-25T08:14:13.000Z</time>
      </trkpt>
      <trkpt lat="45.91338" lon="1.27075">
        <ele>354.6</ele>
        <time>2018-10-25T08:14:16.000Z</time>
      </trkpt>
      <trkpt lat="45.91343" lon="1.27066">
        <ele>354.7</ele>
        <time>2018-10-25T08:14:19.000Z</time>
      </trkpt>
      <trkpt lat="45.91346" lon="1.27056">
        <ele>354.6</ele>
        <time>2018-10-25T08:14:22.000Z</time>
      </trkpt>
      <trkpt lat="45.9135" lon="1.27047">
        <ele>354.5</ele>
        <time>2018-10-25T08:14:25.000Z</time>
      </trkpt>
      <trkpt lat="45.91356" lon="1.27039">
        <ele>354.3</ele>
        <time>2018-10-25T08:14:28.000Z</time>
      </trkpt>
      <trkpt lat="45.9136" lon="1.2703">
        <ele>354.1</ele>
        <time>2018-10-25T08:14:31.000Z</time>
      </trkpt>
      <trkpt lat="45.91363" lon="1.27023">
        <ele>354</ele>
        <time>2018-10-25T08:14:34.000Z</time>
      </trkpt>
      <trkpt lat="45.91366" lon="1.27015">
        <ele>353.9</ele>
        <time>2018-10-25T08:14:37.000Z</time>
      </trkpt>
      <trkpt lat="45.9137" lon="1.27008">
        <ele>353.7</ele>
        <time>2018-10-25T08:14:40.000Z</time>
      </trkpt>
      <trkpt lat="45.91373" lon="1.27002">
        <ele>353.7</ele>
        <time>2018-10-25T08:14:43.000Z</time>
      </trkpt>
      <trkpt lat="45.91378" lon="1.26995">
        <ele>353.6</ele>
        <time>2018-10-25T08:14:46.000Z</time>
      </trkpt>
      <trkpt lat="45.91383" lon="1.26988">
        <ele>353.6</ele>
        <time>2018-10-25T08:14:49.000Z</time>
      </trkpt>
      <trkpt lat="45.91386" lon="1.2698">
        <ele>353.7</ele>
        <time>2018-10-25T08:14:52.000Z</time>
      </trkpt>
      <trkpt lat="45.91391" lon="1.26971">
        <ele>353.8</ele>
        <time>2018-10-25T08:14:55.000Z</time>
      </trkpt>
      <trkpt lat="45.91395" lon="1.26961">
        <ele>354</ele>
        <time>2018-10-25T08:14:58.000Z</time>
      </trkpt>
      <trkpt lat="45.91399" lon="1.26952">
        <ele>354.3</ele>
        <time>2018-10-25T08:15:01.000Z</time>
      </trkpt>
      <trkpt lat="45.91402" lon="1.26944">
        <ele>354.7</ele>
        <time>2018-10-25T08:15:04.000Z</time>
      </trkpt>
      <trkpt lat="45.91407" lon="1.26937">
        <ele>355</ele>
        <time>2018-10-25T08:15:07.000Z</time>
      </trkpt>
      <trkpt lat="45.91412" lon="1.26928">
        <ele>355.4</ele>
        <time>2018-10-25T08:15:10.000Z</time>
      </trkpt>
      <trkpt lat="45.91417" lon="1.2692">
        <ele>355.9</ele>
        <time>2018-10-25T08:15:13.000Z</time>
      </trkpt>
      <trkpt lat="45.91422" lon="1.26911">
        <ele>356.3</ele>
        <time>2018-10-25T08:15:16.000Z</time>
      </trkpt>
      <trkpt lat="45.91427" lon="1.26903">
        <ele>356.8</ele>
        <time>2018-10-25T08:15:19.000Z</time>
      </trkpt>
      <trkpt lat="45.91432" lon="1.26894">
        <ele>357.2</ele>
        <time>2018-10-25T08:15:22.000Z</time>
      </trkpt>
      <trkpt lat="45.91437" lon="1.26886">
        <ele>357.6</ele>
        <time>2018-10-25T08:15:25.000Z</time>
      </trkpt>
      <trkpt lat="45.91441" lon="1.26878">
        <ele>358</ele>
        <time>2018-10-25T08:15:28.000Z</time>
      </trkpt>
      <trkpt lat="45.91446" lon="1.26869">
        <ele>358.4</ele>
        <time>2018-10-25T08:15:31.000Z</time>
      </trkpt>
      <trkpt lat="45.91451" lon="1.26861">
        <ele>358.8</ele>
        <time>2018-10-25T08:15:34.000Z</time>
      </trkpt>
      <trkpt lat="45.91455" lon="1.26853">
        <ele>359.3</ele>
        <time>2018-10-25T08:15:37.000Z</time>
      </trkpt>
      <trkpt lat="45.9146" lon="1.26845">
        <ele>359.7</ele>
        <time>2018-10-25T08:15:40.000Z</time>
      </trkpt>
      <trkpt lat="45.91465" lon="1.26835">
        <ele>360.1</ele>
        <time>2018-10-25T08:15:43.000Z</time>
      </trkpt>
      <trkpt lat="45.9147" lon="1.26827">
        <ele>360.6</ele>
        <time>2018-10-25T08:15:46.000Z</time>
      </trkpt>
      <trkpt lat="45.91474" lon="1.26819">
        <ele>360.9</ele>
        <time>2018-10-25T08:15:49.000Z</time>
      </trkpt>
      <trkpt lat="45.91479" lon="1.26811">
        <ele>361.3</ele>
        <time>2018-10-25T08:15:52.000Z</time>
      </trkpt>
      <trkpt lat="45.91484" lon="1.26802">
        <ele>361.5</ele>
        <time>2018-10-25T08:15:55.000Z</time>
      </trkpt>
      <trkpt lat="45.91486" lon="1.26792">
        <ele>361.8</ele>
        <time>2018-10-25T08:15:58.000Z</time>
      </trkpt>
      <trkpt lat="45.91488" lon="1.2678">
        <ele>362</ele>
        <time>2018-10-25T08:16:01.000Z</time>
      </trkpt>
      <trkpt lat="45.91489" lon="1.26769">
        <ele>362.2</ele>
        <time>2018-10-25T08:16:04.000Z</time>
      </trkpt>
      <trkpt lat="45.91489" lon="1.26735">
        <ele>362.6</ele>
        <time>2018-10-25T08:16:13.000Z</time>
      </trkpt>
      <trkpt lat="45.91489" lon="1.26724">
        <ele>362.7</ele>
        <time>2018-10-25T08:16:16.000Z</time>
      </trkpt>
      <trkpt lat="45.9149" lon="1.26713">
        <ele>362.7</ele>
        <time>2018-10-25T08:16:19.000Z</time>
      </trkpt>
      <trkpt lat="45.91491" lon="1.26703">
        <ele>362.8</ele>
        <time>2018-10-25T08:16:22.000Z</time>
      </trkpt>
      <trkpt lat="45.91493" lon="1.26693">
        <ele>362.8</ele>
        <time>2018-10-25T08:16:25.000Z</time>
      </trkpt>
      <trkpt lat="45.91499" lon="1.26687">
        <ele>362.9</ele>
        <time>2018-10-25T08:16:28.000Z</time>
      </trkpt>
      <trkpt lat="45.91506" lon="1.26686">
        <ele>362.9</ele>
        <time>2018-10-25T08:16:31.000Z</time>
      </trkpt>
      <trkpt lat="45.91508" lon="1.26685">
        <ele>363</ele>
        <time>2018-10-25T08:16:34.000Z</time>
      </trkpt>
      <trkpt lat="45.91506" lon="1.26685">
        <ele>363.1</ele>
        <time>2018-10-25T08:16:43.000Z</time>
      </trkpt>
      <trkpt lat="45.91506" lon="1.26683">
        <ele>363.1</ele>
        <time>2018-10-25T08:18:02.000Z</time>
      </trkpt>
      <trkpt lat="45.91507" lon="1.26682">
        <ele>363.2</ele>
        <time>2018-10-25T08:18:21.000Z</time>
      </trkpt>
      <trkpt lat="45.91511" lon="1.26681">
        <ele>363.2</ele>
        <time>2018-10-25T08:18:24.000Z</time>
      </trkpt>
      <trkpt lat="45.91518" lon="1.26683">
        <ele>363.3</ele>
        <time>2018-10-25T08:18:27.000Z</time>
      </trkpt>
      <trkpt lat="45.91525" lon="1.26686">
        <ele>363.4</ele>
        <time>2018-10-25T08:18:30.000Z</time>
      </trkpt>
      <trkpt lat="45.91533" lon="1.2669">
        <ele>363.5</ele>
        <time>2018-10-25T08:18:33.000Z</time>
      </trkpt>
      <trkpt lat="45.91541" lon="1.26694">
        <ele>363.7</ele>
        <time>2018-10-25T08:18:36.000Z</time>
      </trkpt>
      <trkpt lat="45.91549" lon="1.26697">
        <ele>363.9</ele>
        <time>2018-10-25T08:18:39.000Z</time>
      </trkpt>
      <trkpt lat="45.91557" lon="1.26699">
        <ele>364.2</ele>
        <time>2018-10-25T08:18:42.000Z</time>
      </trkpt>
      <trkpt lat="45.91566" lon="1.267">
        <ele>364.4</ele>
        <time>2018-10-25T08:18:45.000Z</time>
      </trkpt>
      <trkpt lat="45.91575" lon="1.26702">
        <ele>364.6</ele>
        <time>2018-10-25T08:18:48.000Z</time>
      </trkpt>
      <trkpt lat="45.91586" lon="1.26702">
        <ele>364.9</ele>
        <time>2018-10-25T08:18:51.000Z</time>
      </trkpt>
      <trkpt lat="45.91595" lon="1.26702">
        <ele>365.1</ele>
        <time>2018-10-25T08:18:54.000Z</time>
      </trkpt>
      <trkpt lat="45.91604" lon="1.26701">
        <ele>365.4</ele>
        <time>2018-10-25T08:18:57.000Z</time>
      </trkpt>
      <trkpt lat="45.91613" lon="1.26698">
        <ele>365.5</ele>
        <time>2018-10-25T08:19:00.000Z</time>
      </trkpt>
      <trkpt lat="45.91623" lon="1.26696">
        <ele>365.7</ele>
        <time>2018-10-25T08:19:03.000Z</time>
      </trkpt>
      <trkpt lat="45.91632" lon="1.26696">
        <ele>365.8</ele>
        <time>2018-10-25T08:19:06.000Z</time>
      </trkpt>
      <trkpt lat="45.91642" lon="1.26694">
        <ele>366</ele>
        <time>2018-10-25T08:19:09.000Z</time>
      </trkpt>
      <trkpt lat="45.91651" lon="1.26691">
        <ele>366.1</ele>
        <time>2018-10-25T08:19:12.000Z</time>
      </trkpt>
      <trkpt lat="45.91661" lon="1.26688">
        <ele>366.3</ele>
        <time>2018-10-25T08:19:15.000Z</time>
      </trkpt>
      <trkpt lat="45.9167" lon="1.26685">
        <ele>366.5</ele>
        <time>2018-10-25T08:19:18.000Z</time>
      </trkpt>
      <trkpt lat="45.9168" lon="1.26683">
        <ele>366.7</ele>
        <time>2018-10-25T08:19:21.000Z</time>
      </trkpt>
      <trkpt lat="45.91689" lon="1.2668">
        <ele>366.9</ele>
        <time>2018-10-25T08:19:24.000Z</time>
      </trkpt>
      <trkpt lat="45.91698" lon="1.26677">
        <ele>367.2</ele>
        <time>2018-10-25T08:19:28.000Z</time>
      </trkpt>
      <trkpt lat="45.91707" lon="1.26675">
        <ele>367.5</ele>
        <time>2018-10-25T08:19:30.000Z</time>
      </trkpt>
      <trkpt lat="45.91717" lon="1.26672">
        <ele>367.9</ele>
        <time>2018-10-25T08:19:33.000Z</time>
      </trkpt>
      <trkpt lat="45.91726" lon="1.2667">
        <ele>368.2</ele>
        <time>2018-10-25T08:19:36.000Z</time>
      </trkpt>
      <trkpt lat="45.91734" lon="1.26667">
        <ele>368.6</ele>
        <time>2018-10-25T08:19:39.000Z</time>
      </trkpt>
      <trkpt lat="45.9174" lon="1.26665">
        <ele>369</ele>
        <time>2018-10-25T08:19:41.000Z</time>
      </trkpt>
      <trkpt lat="45.91745" lon="1.26663">
        <ele>369.3</ele>
        <time>2018-10-25T08:19:43.000Z</time>
      </trkpt>
      <trkpt lat="45.91749" lon="1.26662">
        <ele>369.6</ele>
        <time>2018-10-25T08:19:45.000Z</time>
      </trkpt>
      <trkpt lat="45.91752" lon="1.26662">
        <ele>369.8</ele>
        <time>2018-10-25T08:19:47.000Z</time>
      </trkpt>
      <trkpt lat="45.91756" lon="1.26661">
        <ele>370</ele>
        <time>2018-10-25T08:19:49.000Z</time>
      </trkpt>
      <trkpt lat="45.91759" lon="1.26659">
        <ele>370.1</ele>
        <time>2018-10-25T08:19:51.000Z</time>
      </trkpt>
      <trkpt lat="45.91763" lon="1.26657">
        <ele>370.2</ele>
        <time>2018-10-25T08:19:53.000Z</time>
      </trkpt>
      <trkpt lat="45.91766" lon="1.26655">
        <ele>370.3</ele>
        <time>2018-10-25T08:19:55.000Z</time>
      </trkpt>
      <trkpt lat="45.91771" lon="1.26654">
        <ele>370.4</ele>
        <time>2018-10-25T08:19:57.000Z</time>
      </trkpt>
      <trkpt lat="45.91777" lon="1.26654">
        <ele>370.6</ele>
        <time>2018-10-25T08:19:59.000Z</time>
      </trkpt>
      <trkpt lat="45.91783" lon="1.26654">
        <ele>370.7</ele>
        <time>2018-10-25T08:20:01.000Z</time>
      </trkpt>
      <trkpt lat="45.91788" lon="1.26652">
        <ele>370.9</ele>
        <time>2018-10-25T08:20:03.000Z</time>
      </trkpt>
      <trkpt lat="45.91794" lon="1.26651">
        <ele>371</ele>
        <time>2018-10-25T08:20:05.000Z</time>
      </trkpt>
      <trkpt lat="45.91799" lon="1.26649">
        <ele>371.2</ele>
        <time>2018-10-25T08:20:07.000Z</time>
      </trkpt>
      <trkpt lat="45.91805" lon="1.26648">
        <ele>371.3</ele>
        <time>2018-10-25T08:20:09.000Z</time>
      </trkpt>
      <trkpt lat="45.9181" lon="1.26647">
        <ele>371.5</ele>
        <time>2018-10-25T08:20:11.000Z</time>
      </trkpt>
      <trkpt lat="45.91816" lon="1.26645">
        <ele>371.7</ele>
        <time>2018-10-25T08:20:13.000Z</time>
      </trkpt>
      <trkpt lat="45.91822" lon="1.26644">
        <ele>371.9</ele>
        <time>2018-10-25T08:20:15.000Z</time>
      </trkpt>
      <trkpt lat="45.91827" lon="1.26643">
        <ele>372</ele>
        <time>2018-10-25T08:20:17.000Z</time>
      </trkpt>
      <trkpt lat="45.91833" lon="1.26643">
        <ele>372.2</ele>
        <time>2018-10-25T08:20:19.000Z</time>
      </trkpt>
      <trkpt lat="45.91839" lon="1.26643">
        <ele>372.3</ele>
        <time>2018-10-25T08:20:21.000Z</time>
      </trkpt>
      <trkpt lat="45.91845" lon="1.26644">
        <ele>372.4</ele>
        <time>2018-10-25T08:20:23.000Z</time>
      </trkpt>
      <trkpt lat="45.91851" lon="1.26646">
        <ele>372.4</ele>
        <time>2018-10-25T08:20:25.000Z</time>
      </trkpt>
      <trkpt lat="45.91857" lon="1.26647">
        <ele>372.3</ele>
        <time>2018-10-25T08:20:27.000Z</time>
      </trkpt>
      <trkpt lat="45.91863" lon="1.26649">
        <ele>372.2</ele>
        <time>2018-10-25T08:20:29.000Z</time>
      </trkpt>
      <trkpt lat="45.91869" lon="1.26651">
        <ele>372</ele>
        <time>2018-10-25T08:20:31.000Z</time>
      </trkpt>
      <trkpt lat="45.91879" lon="1.26654">
        <ele>371.9</ele>
        <time>2018-10-25T08:20:34.000Z</time>
      </trkpt>
      <trkpt lat="45.91887" lon="1.26656">
        <ele>371.8</ele>
        <time>2018-10-25T08:20:37.000Z</time>
      </trkpt>
      <trkpt lat="45.91895" lon="1.26655">
        <ele>371.6</ele>
        <time>2018-10-25T08:20:40.000Z</time>
      </trkpt>
      <trkpt lat="45.91901" lon="1.26655">
        <ele>371.5</ele>
        <time>2018-10-25T08:20:43.000Z</time>
      </trkpt>
      <trkpt lat="45.91905" lon="1.26654">
        <ele>371.4</ele>
        <time>2018-10-25T08:20:46.000Z</time>
      </trkpt>
      <trkpt lat="45.91909" lon="1.26653">
        <ele>371.3</ele>
        <time>2018-10-25T08:20:49.000Z</time>
      </trkpt>
      <trkpt lat="45.91914" lon="1.26651">
        <ele>371.2</ele>
        <time>2018-10-25T08:20:52.000Z</time>
      </trkpt>
      <trkpt lat="45.91924" lon="1.26649">
        <ele>371.1</ele>
        <time>2018-10-25T08:20:55.000Z</time>
      </trkpt>
      <trkpt lat="45.91936" lon="1.26649">
        <ele>370.9</ele>
        <time>2018-10-25T08:20:58.000Z</time>
      </trkpt>
      <trkpt lat="45.9195" lon="1.26648">
        <ele>370.7</ele>
        <time>2018-10-25T08:21:07.000Z</time>
      </trkpt>
      <trkpt lat="45.91964" lon="1.26645">
        <ele>370.4</ele>
        <time>2018-10-25T08:21:07.000Z</time>
      </trkpt>
      <trkpt lat="45.91979" lon="1.26645">
        <ele>370</ele>
        <time>2018-10-25T08:21:07.000Z</time>
      </trkpt>
      <trkpt lat="45.91994" lon="1.26643">
        <ele>369.6</ele>
        <time>2018-10-25T08:21:10.000Z</time>
      </trkpt>
      <trkpt lat="45.92009" lon="1.26642">
        <ele>369.2</ele>
        <time>2018-10-25T08:21:13.000Z</time>
      </trkpt>
      <trkpt lat="45.92025" lon="1.2664">
        <ele>369</ele>
        <time>2018-10-25T08:21:16.000Z</time>
      </trkpt>
      <trkpt lat="45.92039" lon="1.26633">
        <ele>368.8</ele>
        <time>2018-10-25T08:21:19.000Z</time>
      </trkpt>
      <trkpt lat="45.92052" lon="1.26622">
        <ele>368.8</ele>
        <time>2018-10-25T08:21:22.000Z</time>
      </trkpt>
      <trkpt lat="45.92065" lon="1.26609">
        <ele>368.9</ele>
        <time>2018-10-25T08:21:25.000Z</time>
      </trkpt>
      <trkpt lat="45.92079" lon="1.26598">
        <ele>369</ele>
        <time>2018-10-25T08:21:28.000Z</time>
      </trkpt>
      <trkpt lat="45.92092" lon="1.26585">
        <ele>369</ele>
        <time>2018-10-25T08:21:31.000Z</time>
      </trkpt>
      <trkpt lat="45.92104" lon="1.26572">
        <ele>368.9</ele>
        <time>2018-10-25T08:21:34.000Z</time>
      </trkpt>
      <trkpt lat="45.92115" lon="1.26565">
        <ele>368.7</ele>
        <time>2018-10-25T08:21:37.000Z</time>
      </trkpt>
      <trkpt lat="45.92126" lon="1.26558">
        <ele>368.4</ele>
        <time>2018-10-25T08:21:40.000Z</time>
      </trkpt>
      <trkpt lat="45.92138" lon="1.26553">
        <ele>368.1</ele>
        <time>2018-10-25T08:21:43.000Z</time>
      </trkpt>
      <trkpt lat="45.92148" lon="1.26551">
        <ele>367.8</ele>
        <time>2018-10-25T08:21:46.000Z</time>
      </trkpt>
      <trkpt lat="45.9216" lon="1.26554">
        <ele>367.6</ele>
        <time>2018-10-25T08:21:49.000Z</time>
      </trkpt>
      <trkpt lat="45.92171" lon="1.26557">
        <ele>367.5</ele>
        <time>2018-10-25T08:21:52.000Z</time>
      </trkpt>
      <trkpt lat="45.92184" lon="1.26569">
        <ele>367.5</ele>
        <time>2018-10-25T08:21:55.000Z</time>
      </trkpt>
      <trkpt lat="45.92198" lon="1.26584">
        <ele>367.5</ele>
        <time>2018-10-25T08:21:58.000Z</time>
      </trkpt>
      <trkpt lat="45.92211" lon="1.2659">
        <ele>367.5</ele>
        <time>2018-10-25T08:22:01.000Z</time>
      </trkpt>
      <trkpt lat="45.92223" lon="1.26593">
        <ele>367.3</ele>
        <time>2018-10-25T08:22:04.000Z</time>
      </trkpt>
      <trkpt lat="45.92235" lon="1.26592">
        <ele>367</ele>
        <time>2018-10-25T08:22:08.000Z</time>
      </trkpt>
      <trkpt lat="45.92246" lon="1.26589">
        <ele>366.6</ele>
        <time>2018-10-25T08:22:10.000Z</time>
      </trkpt>
      <trkpt lat="45.92259" lon="1.26585">
        <ele>366.1</ele>
        <time>2018-10-25T08:22:13.000Z</time>
      </trkpt>
      <trkpt lat="45.9227" lon="1.26578">
        <ele>365.8</ele>
        <time>2018-10-25T08:22:16.000Z</time>
      </trkpt>
      <trkpt lat="45.92281" lon="1.26573">
        <ele>365.7</ele>
        <time>2018-10-25T08:22:19.000Z</time>
      </trkpt>
      <trkpt lat="45.92291" lon="1.26567">
        <ele>365.7</ele>
        <time>2018-10-25T08:22:22.000Z</time>
      </trkpt>
      <trkpt lat="45.92301" lon="1.26561">
        <ele>365.8</ele>
        <time>2018-10-25T08:22:25.000Z</time>
      </trkpt>
      <trkpt lat="45.92312" lon="1.26557">
        <ele>366.1</ele>
        <time>2018-10-25T08:22:28.000Z</time>
      </trkpt>
      <trkpt lat="45.92323" lon="1.26554">
        <ele>366.3</ele>
        <time>2018-10-25T08:22:31.000Z</time>
      </trkpt>
      <trkpt lat="45.92333" lon="1.2655">
        <ele>366.4</ele>
        <time>2018-10-25T08:22:34.000Z</time>
      </trkpt>
      <trkpt lat="45.92345" lon="1.26546">
        <ele>366.6</ele>
        <time>2018-10-25T08:22:37.000Z</time>
      </trkpt>
      <trkpt lat="45.92356" lon="1.26542">
        <ele>366.9</ele>
        <time>2018-10-25T08:22:40.000Z</time>
      </trkpt>
      <trkpt lat="45.92367" lon="1.26537">
        <ele>367.1</ele>
        <time>2018-10-25T08:22:43.000Z</time>
      </trkpt>
      <trkpt lat="45.92378" lon="1.26531">
        <ele>367.4</ele>
        <time>2018-10-25T08:22:46.000Z</time>
      </trkpt>
      <trkpt lat="45.92389" lon="1.26528">
        <ele>367.7</ele>
        <time>2018-10-25T08:22:49.000Z</time>
      </trkpt>
      <trkpt lat="45.924" lon="1.26526">
        <ele>368</ele>
        <time>2018-10-25T08:22:52.000Z</time>
      </trkpt>
      <trkpt lat="45.9241" lon="1.26525">
        <ele>368.3</ele>
        <time>2018-10-25T08:22:55.000Z</time>
      </trkpt>
      <trkpt lat="45.92421" lon="1.26524">
        <ele>368.5</ele>
        <time>2018-10-25T08:22:58.000Z</time>
      </trkpt>
      <trkpt lat="45.92434" lon="1.26527">
        <ele>368.6</ele>
        <time>2018-10-25T08:23:01.000Z</time>
      </trkpt>
      <trkpt lat="45.92442" lon="1.26548">
        <ele>368.8</ele>
        <time>2018-10-25T08:23:04.000Z</time>
      </trkpt>
      <trkpt lat="45.92445" lon="1.26563">
        <ele>369</ele>
        <time>2018-10-25T08:23:07.000Z</time>
      </trkpt>
      <trkpt lat="45.9245" lon="1.26577">
        <ele>369.3</ele>
        <time>2018-10-25T08:23:10.000Z</time>
      </trkpt>
      <trkpt lat="45.92458" lon="1.26588">
        <ele>369.5</ele>
        <time>2018-10-25T08:23:13.000Z</time>
      </trkpt>
      <trkpt lat="45.92464" lon="1.26596">
        <ele>369.9</ele>
        <time>2018-10-25T08:23:16.000Z</time>
      </trkpt>
      <trkpt lat="45.9247" lon="1.26601">
        <ele>370.2</ele>
        <time>2018-10-25T08:23:19.000Z</time>
      </trkpt>
      <trkpt lat="45.92478" lon="1.26604">
        <ele>370.4</ele>
        <time>2018-10-25T08:23:22.000Z</time>
      </trkpt>
      <trkpt lat="45.92486" lon="1.26606">
        <ele>370.4</ele>
        <time>2018-10-25T08:23:25.000Z</time>
      </trkpt>
      <trkpt lat="45.92495" lon="1.26607">
        <ele>370.3</ele>
        <time>2018-10-25T08:23:28.000Z</time>
      </trkpt>
      <trkpt lat="45.92503" lon="1.26606">
        <ele>370.2</ele>
        <time>2018-10-25T08:23:31.000Z</time>
      </trkpt>
      <trkpt lat="45.92511" lon="1.26607">
        <ele>370.2</ele>
        <time>2018-10-25T08:23:34.000Z</time>
      </trkpt>
      <trkpt lat="45.92521" lon="1.26608">
        <ele>370.4</ele>
        <time>2018-10-25T08:23:37.000Z</time>
      </trkpt>
      <trkpt lat="45.92532" lon="1.26607">
        <ele>370.7</ele>
        <time>2018-10-25T08:23:40.000Z</time>
      </trkpt>
      <trkpt lat="45.92542" lon="1.26608">
        <ele>371.3</ele>
        <time>2018-10-25T08:23:43.000Z</time>
      </trkpt>
      <trkpt lat="45.92551" lon="1.2661">
        <ele>372</ele>
        <time>2018-10-25T08:23:46.000Z</time>
      </trkpt>
      <trkpt lat="45.9256" lon="1.26612">
        <ele>372.8</ele>
        <time>2018-10-25T08:23:49.000Z</time>
      </trkpt>
      <trkpt lat="45.92569" lon="1.26614">
        <ele>373.6</ele>
        <time>2018-10-25T08:23:52.000Z</time>
      </trkpt>
      <trkpt lat="45.92578" lon="1.26616">
        <ele>374.4</ele>
        <time>2018-10-25T08:23:55.000Z</time>
      </trkpt>
      <trkpt lat="45.92587" lon="1.26616">
        <ele>375.1</ele>
        <time>2018-10-25T08:23:58.000Z</time>
      </trkpt>
      <trkpt lat="45.92596" lon="1.26616">
        <ele>375.8</ele>
        <time>2018-10-25T08:24:01.000Z</time>
      </trkpt>
      <trkpt lat="45.92607" lon="1.26614">
        <ele>376.4</ele>
        <time>2018-10-25T08:24:04.000Z</time>
      </trkpt>
      <trkpt lat="45.92616" lon="1.26614">
        <ele>376.9</ele>
        <time>2018-10-25T08:24:07.000Z</time>
      </trkpt>
      <trkpt lat="45.92624" lon="1.26611">
        <ele>377.3</ele>
        <time>2018-10-25T08:24:10.000Z</time>
      </trkpt>
      <trkpt lat="45.92633" lon="1.26609">
        <ele>377.6</ele>
        <time>2018-10-25T08:24:13.000Z</time>
      </trkpt>
      <trkpt lat="45.92643" lon="1.26605">
        <ele>377.9</ele>
        <time>2018-10-25T08:24:16.000Z</time>
      </trkpt>
      <trkpt lat="45.92653" lon="1.26602">
        <ele>378.2</ele>
        <time>2018-10-25T08:24:19.000Z</time>
      </trkpt>
      <trkpt lat="45.92663" lon="1.26599">
        <ele>378.5</ele>
        <time>2018-10-25T08:24:22.000Z</time>
      </trkpt>
      <trkpt lat="45.92673" lon="1.26596">
        <ele>378.7</ele>
        <time>2018-10-25T08:24:25.000Z</time>
      </trkpt>
      <trkpt lat="45.92683" lon="1.26593">
        <ele>378.8</ele>
        <time>2018-10-25T08:24:28.000Z</time>
      </trkpt>
      <trkpt lat="45.92693" lon="1.26591">
        <ele>378.8</ele>
        <time>2018-10-25T08:24:31.000Z</time>
      </trkpt>
      <trkpt lat="45.92704" lon="1.26589">
        <ele>378.8</ele>
        <time>2018-10-25T08:24:34.000Z</time>
      </trkpt>
      <trkpt lat="45.92714" lon="1.26584">
        <ele>378.7</ele>
        <time>2018-10-25T08:24:37.000Z</time>
      </trkpt>
      <trkpt lat="45.92724" lon="1.2658">
        <ele>378.7</ele>
        <time>2018-10-25T08:24:40.000Z</time>
      </trkpt>
      <trkpt lat="45.92736" lon="1.26578">
        <ele>378.6</ele>
        <time>2018-10-25T08:24:43.000Z</time>
      </trkpt>
      <trkpt lat="45.92747" lon="1.26575">
        <ele>378.6</ele>
        <time>2018-10-25T08:24:46.000Z</time>
      </trkpt>
      <trkpt lat="45.92757" lon="1.26575">
        <ele>378.7</ele>
        <time>2018-10-25T08:24:49.000Z</time>
      </trkpt>
      <trkpt lat="45.92767" lon="1.26571">
        <ele>378.7</ele>
        <time>2018-10-25T08:24:52.000Z</time>
      </trkpt>
      <trkpt lat="45.92776" lon="1.26568">
        <ele>378.8</ele>
        <time>2018-10-25T08:24:55.000Z</time>
      </trkpt>
      <trkpt lat="45.92784" lon="1.26565">
        <ele>378.8</ele>
        <time>2018-10-25T08:24:58.000Z</time>
      </trkpt>
      <trkpt lat="45.92788" lon="1.26562">
        <ele>378.8</ele>
        <time>2018-10-25T08:25:01.000Z</time>
      </trkpt>
      <trkpt lat="45.92785" lon="1.26557">
        <ele>378.7</ele>
        <time>2018-10-25T08:25:20.000Z</time>
      </trkpt>
      <trkpt lat="45.92786" lon="1.26556">
        <ele>378.7</ele>
        <time>2018-10-25T08:25:34.000Z</time>
      </trkpt>
      <trkpt lat="45.92786" lon="1.26553">
        <ele>378.6</ele>
        <time>2018-10-25T08:26:34.000Z</time>
      </trkpt>
      <trkpt lat="45.92788" lon="1.26543">
        <ele>378.4</ele>
        <time>2018-10-25T08:26:37.000Z</time>
      </trkpt>
      <trkpt lat="45.92796" lon="1.26533">
        <ele>378.2</ele>
        <time>2018-10-25T08:26:40.000Z</time>
      </trkpt>
      <trkpt lat="45.92805" lon="1.2652">
        <ele>377.9</ele>
        <time>2018-10-25T08:26:43.000Z</time>
      </trkpt>
      <trkpt lat="45.92818" lon="1.26501">
        <ele>377.5</ele>
        <time>2018-10-25T08:26:46.000Z</time>
      </trkpt>
      <trkpt lat="45.92832" lon="1.26478">
        <ele>376.8</ele>
        <time>2018-10-25T08:26:49.000Z</time>
      </trkpt>
      <trkpt lat="45.92849" lon="1.26449">
        <ele>375.7</ele>
        <time>2018-10-25T08:26:52.000Z</time>
      </trkpt>
      <trkpt lat="45.92868" lon="1.2642">
        <ele>374.3</ele>
        <time>2018-10-25T08:26:55.000Z</time>
      </trkpt>
      <trkpt lat="45.92887" lon="1.26393">
        <ele>372.7</ele>
        <time>2018-10-25T08:26:58.000Z</time>
      </trkpt>
      <trkpt lat="45.92903" lon="1.26365">
        <ele>371.4</ele>
        <time>2018-10-25T08:27:01.000Z</time>
      </trkpt>
      <trkpt lat="45.92918" lon="1.26346">
        <ele>370.5</ele>
        <time>2018-10-25T08:27:04.000Z</time>
      </trkpt>
      <trkpt lat="45.9293" lon="1.26329">
        <ele>370.2</ele>
        <time>2018-10-25T08:27:07.000Z</time>
      </trkpt>
      <trkpt lat="45.92945" lon="1.26312">
        <ele>370.3</ele>
        <time>2018-10-25T08:27:10.000Z</time>
      </trkpt>
      <trkpt lat="45.92961" lon="1.26303">
        <ele>370.7</ele>
        <time>2018-10-25T08:27:13.000Z</time>
      </trkpt>
      <trkpt lat="45.92974" lon="1.26296">
        <ele>371</ele>
        <time>2018-10-25T08:27:16.000Z</time>
      </trkpt>
      <trkpt lat="45.92985" lon="1.26288">
        <ele>371.3</ele>
        <time>2018-10-25T08:27:19.000Z</time>
      </trkpt>
      <trkpt lat="45.92994" lon="1.26276">
        <ele>371.6</ele>
        <time>2018-10-25T08:27:22.000Z</time>
      </trkpt>
      <trkpt lat="45.93002" lon="1.26266">
        <ele>372</ele>
        <time>2018-10-25T08:27:25.000Z</time>
      </trkpt>
      <trkpt lat="45.93008" lon="1.26256">
        <ele>372.5</ele>
        <time>2018-10-25T08:27:28.000Z</time>
      </trkpt>
      <trkpt lat="45.93015" lon="1.26244">
        <ele>373</ele>
        <time>2018-10-25T08:27:31.000Z</time>
      </trkpt>
      <trkpt lat="45.93023" lon="1.26236">
        <ele>373.5</ele>
        <time>2018-10-25T08:27:34.000Z</time>
      </trkpt>
      <trkpt lat="45.93032" lon="1.26231">
        <ele>373.8</ele>
        <time>2018-10-25T08:27:37.000Z</time>
      </trkpt>
      <trkpt lat="45.93041" lon="1.26223">
        <ele>374.1</ele>
        <time>2018-10-25T08:27:40.000Z</time>
      </trkpt>
      <trkpt lat="45.9305" lon="1.26216">
        <ele>374.4</ele>
        <time>2018-10-25T08:27:43.000Z</time>
      </trkpt>
      <trkpt lat="45.93057" lon="1.26208">
        <ele>374.7</ele>
        <time>2018-10-25T08:27:46.000Z</time>
      </trkpt>
      <trkpt lat="45.93065" lon="1.26199">
        <ele>375.2</ele>
        <time>2018-10-25T08:27:49.000Z</time>
      </trkpt>
      <trkpt lat="45.93073" lon="1.26192">
        <ele>375.7</ele>
        <time>2018-10-25T08:27:52.000Z</time>
      </trkpt>
      <trkpt lat="45.9308" lon="1.26186">
        <ele>376.3</ele>
        <time>2018-10-25T08:27:55.000Z</time>
      </trkpt>
      <trkpt lat="45.93087" lon="1.26178">
        <ele>377</ele>
        <time>2018-10-25T08:27:58.000Z</time>
      </trkpt>
      <trkpt lat="45.93095" lon="1.26169">
        <ele>377.7</ele>
        <time>2018-10-25T08:28:01.000Z</time>
      </trkpt>
      <trkpt lat="45.93102" lon="1.26162">
        <ele>378.4</ele>
        <time>2018-10-25T08:28:04.000Z</time>
      </trkpt>
      <trkpt lat="45.9311" lon="1.26158">
        <ele>379</ele>
        <time>2018-10-25T08:28:07.000Z</time>
      </trkpt>
      <trkpt lat="45.93118" lon="1.26152">
        <ele>379.5</ele>
        <time>2018-10-25T08:28:10.000Z</time>
      </trkpt>
      <trkpt lat="45.93126" lon="1.26148">
        <ele>379.8</ele>
        <time>2018-10-25T08:28:13.000Z</time>
      </trkpt>
      <trkpt lat="45.93134" lon="1.26144">
        <ele>380.1</ele>
        <time>2018-10-25T08:28:16.000Z</time>
      </trkpt>
      <trkpt lat="45.93141" lon="1.2614">
        <ele>380.5</ele>
        <time>2018-10-25T08:28:19.000Z</time>
      </trkpt>
      <trkpt lat="45.93148" lon="1.26137">
        <ele>380.9</ele>
        <time>2018-10-25T08:28:22.000Z</time>
      </trkpt>
      <trkpt lat="45.93156" lon="1.26134">
        <ele>381.3</ele>
        <time>2018-10-25T08:28:25.000Z</time>
      </trkpt>
      <trkpt lat="45.93163" lon="1.2613">
        <ele>381.7</ele>
        <time>2018-10-25T08:28:28.000Z</time>
      </trkpt>
      <trkpt lat="45.93171" lon="1.26125">
        <ele>382.2</ele>
        <time>2018-10-25T08:28:31.000Z</time>
      </trkpt>
      <trkpt lat="45.93179" lon="1.26122">
        <ele>382.6</ele>
        <time>2018-10-25T08:28:34.000Z</time>
      </trkpt>
      <trkpt lat="45.93187" lon="1.26119">
        <ele>383.1</ele>
        <time>2018-10-25T08:28:37.000Z</time>
      </trkpt>
      <trkpt lat="45.93192" lon="1.26116">
        <ele>383.5</ele>
        <time>2018-10-25T08:28:39.000Z</time>
      </trkpt>
      <trkpt lat="45.93197" lon="1.26114">
        <ele>383.9</ele>
        <time>2018-10-25T08:28:41.000Z</time>
      </trkpt>
      <trkpt lat="45.93202" lon="1.26112">
        <ele>384.2</ele>
        <time>2018-10-25T08:28:43.000Z</time>
      </trkpt>
      <trkpt lat="45.93207" lon="1.26109">
        <ele>384.5</ele>
        <time>2018-10-25T08:28:45.000Z</time>
      </trkpt>
      <trkpt lat="45.93212" lon="1.26107">
        <ele>384.7</ele>
        <time>2018-10-25T08:28:47.000Z</time>
      </trkpt>
      <trkpt lat="45.93217" lon="1.26106">
        <ele>385</ele>
        <time>2018-10-25T08:28:49.000Z</time>
      </trkpt>
      <trkpt lat="45.93222" lon="1.26104">
        <ele>385.2</ele>
        <time>2018-10-25T08:28:51.000Z</time>
      </trkpt>
      <trkpt lat="45.93227" lon="1.26102">
        <ele>385.4</ele>
        <time>2018-10-25T08:28:53.000Z</time>
      </trkpt>
      <trkpt lat="45.93232" lon="1.26099">
        <ele>385.7</ele>
        <time>2018-10-25T08:28:55.000Z</time>
      </trkpt>
      <trkpt lat="45.93237" lon="1.26097">
        <ele>385.9</ele>
        <time>2018-10-25T08:28:57.000Z</time>
      </trkpt>
      <trkpt lat="45.93243" lon="1.26094">
        <ele>386.1</ele>
        <time>2018-10-25T08:28:59.000Z</time>
      </trkpt>
      <trkpt lat="45.93248" lon="1.26091">
        <ele>386.4</ele>
        <time>2018-10-25T08:29:01.000Z</time>
      </trkpt>
      <trkpt lat="45.93253" lon="1.26088">
        <ele>386.5</ele>
        <time>2018-10-25T08:29:03.000Z</time>
      </trkpt>
      <trkpt lat="45.93258" lon="1.26086">
        <ele>386.6</ele>
        <time>2018-10-25T08:29:05.000Z</time>
      </trkpt>
      <trkpt lat="45.93263" lon="1.26084">
        <ele>386.6</ele>
        <time>2018-10-25T08:29:07.000Z</time>
      </trkpt>
      <trkpt lat="45.93268" lon="1.26082">
        <ele>386.5</ele>
        <time>2018-10-25T08:29:09.000Z</time>
      </trkpt>
      <trkpt lat="45.93273" lon="1.2608">
        <ele>386.3</ele>
        <time>2018-10-25T08:29:11.000Z</time>
      </trkpt>
      <trkpt lat="45.93279" lon="1.26078">
        <ele>386.1</ele>
        <time>2018-10-25T08:29:13.000Z</time>
      </trkpt>
      <trkpt lat="45.93283" lon="1.26076">
        <ele>385.9</ele>
        <time>2018-10-25T08:29:15.000Z</time>
      </trkpt>
      <trkpt lat="45.93289" lon="1.26074">
        <ele>385.7</ele>
        <time>2018-10-25T08:29:17.000Z</time>
      </trkpt>
      <trkpt lat="45.93294" lon="1.26071">
        <ele>385.5</ele>
        <time>2018-10-25T08:29:19.000Z</time>
      </trkpt>
      <trkpt lat="45.93299" lon="1.26068">
        <ele>385.3</ele>
        <time>2018-10-25T08:29:21.000Z</time>
      </trkpt>
      <trkpt lat="45.93304" lon="1.26065">
        <ele>385.2</ele>
        <time>2018-10-25T08:29:23.000Z</time>
      </trkpt>
      <trkpt lat="45.93309" lon="1.26064">
        <ele>385.1</ele>
        <time>2018-10-25T08:29:25.000Z</time>
      </trkpt>
      <trkpt lat="45.93314" lon="1.26062">
        <ele>385</ele>
        <time>2018-10-25T08:29:27.000Z</time>
      </trkpt>
      <trkpt lat="45.93318" lon="1.26061">
        <ele>384.9</ele>
        <time>2018-10-25T08:29:29.000Z</time>
      </trkpt>
      <trkpt lat="45.93323" lon="1.26059">
        <ele>384.8</ele>
        <time>2018-10-25T08:29:31.000Z</time>
      </trkpt>
      <trkpt lat="45.93332" lon="1.26055">
        <ele>384.8</ele>
        <time>2018-10-25T08:29:34.000Z</time>
      </trkpt>
      <trkpt lat="45.93341" lon="1.2605">
        <ele>384.8</ele>
        <time>2018-10-25T08:29:37.000Z</time>
      </trkpt>
      <trkpt lat="45.93353" lon="1.26045">
        <ele>385</ele>
        <time>2018-10-25T08:29:40.000Z</time>
      </trkpt>
      <trkpt lat="45.93367" lon="1.26041">
        <ele>385.2</ele>
        <time>2018-10-25T08:29:43.000Z</time>
      </trkpt>
      <trkpt lat="45.93382" lon="1.26037">
        <ele>385.5</ele>
        <time>2018-10-25T08:29:46.000Z</time>
      </trkpt>
      <trkpt lat="45.93399" lon="1.26035">
        <ele>385.9</ele>
        <time>2018-10-25T08:29:49.000Z</time>
      </trkpt>
      <trkpt lat="45.93412" lon="1.26036">
        <ele>386.1</ele>
        <time>2018-10-25T08:29:52.000Z</time>
      </trkpt>
      <trkpt lat="45.93428" lon="1.26043">
        <ele>386.4</ele>
        <time>2018-10-25T08:29:56.000Z</time>
      </trkpt>
      <trkpt lat="45.93442" lon="1.26055">
        <ele>386.5</ele>
        <time>2018-10-25T08:29:58.000Z</time>
      </trkpt>
      <trkpt lat="45.93452" lon="1.26067">
        <ele>386.6</ele>
        <time>2018-10-25T08:30:01.000Z</time>
      </trkpt>
      <trkpt lat="45.93456" lon="1.26084">
        <ele>386.7</ele>
        <time>2018-10-25T08:30:04.000Z</time>
      </trkpt>
      <trkpt lat="45.93456" lon="1.26096">
        <ele>386.9</ele>
        <time>2018-10-25T08:30:07.000Z</time>
      </trkpt>
      <trkpt lat="45.93453" lon="1.26108">
        <ele>387.2</ele>
        <time>2018-10-25T08:30:10.000Z</time>
      </trkpt>
      <trkpt lat="45.93449" lon="1.26119">
        <ele>387.5</ele>
        <time>2018-10-25T08:30:13.000Z</time>
      </trkpt>
      <trkpt lat="45.93445" lon="1.26129">
        <ele>387.9</ele>
        <time>2018-10-25T08:30:16.000Z</time>
      </trkpt>
      <trkpt lat="45.93441" lon="1.26139">
        <ele>388.3</ele>
        <time>2018-10-25T08:30:19.000Z</time>
      </trkpt>
      <trkpt lat="45.93438" lon="1.2615">
        <ele>388.7</ele>
        <time>2018-10-25T08:30:22.000Z</time>
      </trkpt>
      <trkpt lat="45.93436" lon="1.2616">
        <ele>389</ele>
        <time>2018-10-25T08:30:25.000Z</time>
      </trkpt>
      <trkpt lat="45.93433" lon="1.26171">
        <ele>389.3</ele>
        <time>2018-10-25T08:30:28.000Z</time>
      </trkpt>
      <trkpt lat="45.93432" lon="1.26178">
        <ele>389.6</ele>
        <time>2018-10-25T08:30:30.000Z</time>
      </trkpt>
      <trkpt lat="45.93429" lon="1.26185">
        <ele>389.8</ele>
        <time>2018-10-25T08:30:32.000Z</time>
      </trkpt>
      <trkpt lat="45.93427" lon="1.26193">
        <ele>389.9</ele>
        <time>2018-10-25T08:30:34.000Z</time>
      </trkpt>
      <trkpt lat="45.93425" lon="1.26201">
        <ele>390.1</ele>
        <time>2018-10-25T08:30:36.000Z</time>
      </trkpt>
      <trkpt lat="45.93422" lon="1.26209">
        <ele>390.1</ele>
        <time>2018-10-25T08:30:38.000Z</time>
      </trkpt>
      <trkpt lat="45.93421" lon="1.26217">
        <ele>390.2</ele>
        <time>2018-10-25T08:30:40.000Z</time>
      </trkpt>
      <trkpt lat="45.9342" lon="1.26225">
        <ele>390.3</ele>
        <time>2018-10-25T08:30:42.000Z</time>
      </trkpt>
      <trkpt lat="45.9342" lon="1.26234">
        <ele>390.5</ele>
        <time>2018-10-25T08:30:44.000Z</time>
      </trkpt>
      <trkpt lat="45.93422" lon="1.26242">
        <ele>390.6</ele>
        <time>2018-10-25T08:30:46.000Z</time>
      </trkpt>
      <trkpt lat="45.93424" lon="1.2625">
        <ele>390.8</ele>
        <time>2018-10-25T08:30:48.000Z</time>
      </trkpt>
      <trkpt lat="45.93428" lon="1.26256">
        <ele>391</ele>
        <time>2018-10-25T08:30:50.000Z</time>
      </trkpt>
      <trkpt lat="45.93433" lon="1.26261">
        <ele>391</ele>
        <time>2018-10-25T08:30:52.000Z</time>
      </trkpt>
      <trkpt lat="45.93438" lon="1.26265">
        <ele>391.1</ele>
        <time>2018-10-25T08:30:54.000Z</time>
      </trkpt>
      <trkpt lat="45.93444" lon="1.26266">
        <ele>391.1</ele>
        <time>2018-10-25T08:30:56.000Z</time>
      </trkpt>
      <trkpt lat="45.9345" lon="1.26267">
        <ele>391.1</ele>
        <time>2018-10-25T08:30:58.000Z</time>
      </trkpt>
      <trkpt lat="45.93456" lon="1.26268">
        <ele>391.2</ele>
        <time>2018-10-25T08:31:00.000Z</time>
      </trkpt>
      <trkpt lat="45.93462" lon="1.26267">
        <ele>391.3</ele>
        <time>2018-10-25T08:31:05.000Z</time>
      </trkpt>
      <trkpt lat="45.93468" lon="1.26267">
        <ele>391.6</ele>
        <time>2018-10-25T08:31:06.000Z</time>
      </trkpt>
      <trkpt lat="45.93474" lon="1.26266">
        <ele>391.8</ele>
        <time>2018-10-25T08:31:06.000Z</time>
      </trkpt>
      <trkpt lat="45.93483" lon="1.26266">
        <ele>392.1</ele>
        <time>2018-10-25T08:31:09.000Z</time>
      </trkpt>
      <trkpt lat="45.93491" lon="1.26267">
        <ele>392.5</ele>
        <time>2018-10-25T08:31:15.000Z</time>
      </trkpt>
      <trkpt lat="45.93501" lon="1.26267">
        <ele>392.8</ele>
        <time>2018-10-25T08:31:15.000Z</time>
      </trkpt>
      <trkpt lat="45.9351" lon="1.26267">
        <ele>393.2</ele>
        <time>2018-10-25T08:31:18.000Z</time>
      </trkpt>
      <trkpt lat="45.93519" lon="1.26267">
        <ele>393.7</ele>
        <time>2018-10-25T08:31:21.000Z</time>
      </trkpt>
      <trkpt lat="45.93528" lon="1.26267">
        <ele>394.2</ele>
        <time>2018-10-25T08:31:24.000Z</time>
      </trkpt>
      <trkpt lat="45.93537" lon="1.26267">
        <ele>394.7</ele>
        <time>2018-10-25T08:31:27.000Z</time>
      </trkpt>
      <trkpt lat="45.93547" lon="1.26268">
        <ele>395.2</ele>
        <time>2018-10-25T08:31:30.000Z</time>
      </trkpt>
      <trkpt lat="45.93556" lon="1.26267">
        <ele>395.8</ele>
        <time>2018-10-25T08:31:33.000Z</time>
      </trkpt>
      <trkpt lat="45.93565" lon="1.26267">
        <ele>396.3</ele>
        <time>2018-10-25T08:31:36.000Z</time>
      </trkpt>
      <trkpt lat="45.93573" lon="1.26267">
        <ele>396.9</ele>
        <time>2018-10-25T08:31:39.000Z</time>
      </trkpt>
      <trkpt lat="45.93582" lon="1.26267">
        <ele>397.4</ele>
        <time>2018-10-25T08:31:42.000Z</time>
      </trkpt>
      <trkpt lat="45.93591" lon="1.26267">
        <ele>397.8</ele>
        <time>2018-10-25T08:31:45.000Z</time>
      </trkpt>
      <trkpt lat="45.936" lon="1.26267">
        <ele>398.2</ele>
        <time>2018-10-25T08:31:48.000Z</time>
      </trkpt>
      <trkpt lat="45.93611" lon="1.26267">
        <ele>398.4</ele>
        <time>2018-10-25T08:31:51.000Z</time>
      </trkpt>
      <trkpt lat="45.93621" lon="1.26266">
        <ele>398.5</ele>
        <time>2018-10-25T08:31:54.000Z</time>
      </trkpt>
      <trkpt lat="45.93633" lon="1.26265">
        <ele>398.4</ele>
        <time>2018-10-25T08:31:57.000Z</time>
      </trkpt>
      <trkpt lat="45.93645" lon="1.26263">
        <ele>398.4</ele>
        <time>2018-10-25T08:32:00.000Z</time>
      </trkpt>
      <trkpt lat="45.93656" lon="1.26261">
        <ele>398.4</ele>
        <time>2018-10-25T08:32:03.000Z</time>
      </trkpt>
      <trkpt lat="45.93667" lon="1.2626">
        <ele>398.4</ele>
        <time>2018-10-25T08:32:06.000Z</time>
      </trkpt>
      <trkpt lat="45.93678" lon="1.26259">
        <ele>398.5</ele>
        <time>2018-10-25T08:32:09.000Z</time>
      </trkpt>
      <trkpt lat="45.93687" lon="1.2626">
        <ele>398.6</ele>
        <time>2018-10-25T08:32:12.000Z</time>
      </trkpt>
      <trkpt lat="45.93697" lon="1.26262">
        <ele>398.7</ele>
        <time>2018-10-25T08:32:15.000Z</time>
      </trkpt>
      <trkpt lat="45.93706" lon="1.26266">
        <ele>398.9</ele>
        <time>2018-10-25T08:32:18.000Z</time>
      </trkpt>
      <trkpt lat="45.93716" lon="1.2627">
        <ele>399.1</ele>
        <time>2018-10-25T08:32:21.000Z</time>
      </trkpt>
      <trkpt lat="45.93728" lon="1.26276">
        <ele>399.3</ele>
        <time>2018-10-25T08:32:24.000Z</time>
      </trkpt>
      <trkpt lat="45.93741" lon="1.26282">
        <ele>399.5</ele>
        <time>2018-10-25T08:32:27.000Z</time>
      </trkpt>
      <trkpt lat="45.93752" lon="1.26288">
        <ele>399.7</ele>
        <time>2018-10-25T08:32:30.000Z</time>
      </trkpt>
      <trkpt lat="45.93763" lon="1.26294">
        <ele>400</ele>
        <time>2018-10-25T08:32:33.000Z</time>
      </trkpt>
      <trkpt lat="45.93772" lon="1.26298">
        <ele>400.3</ele>
        <time>2018-10-25T08:32:36.000Z</time>
      </trkpt>
      <trkpt lat="45.9378" lon="1.26302">
        <ele>400.7</ele>
        <time>2018-10-25T08:32:39.000Z</time>
      </trkpt>
      <trkpt lat="45.93787" lon="1.26305">
        <ele>401.2</ele>
        <time>2018-10-25T08:32:42.000Z</time>
      </trkpt>
      <trkpt lat="45.93793" lon="1.26307">
        <ele>401.5</ele>
        <time>2018-10-25T08:32:45.000Z</time>
      </trkpt>
      <trkpt lat="45.93795" lon="1.26307">
        <ele>401.8</ele>
        <time>2018-10-25T08:32:48.000Z</time>
      </trkpt>
      <trkpt lat="45.93793" lon="1.26307">
        <ele>402</ele>
        <time>2018-10-25T08:33:27.000Z</time>
      </trkpt>
      <trkpt lat="45.93793" lon="1.26309">
        <ele>402.1</ele>
        <time>2018-10-25T08:33:44.000Z</time>
      </trkpt>
      <trkpt lat="45.93795" lon="1.26308">
        <ele>402.2</ele>
        <time>2018-10-25T08:33:55.000Z</time>
      </trkpt>
      <trkpt lat="45.93799" lon="1.26305">
        <ele>402.3</ele>
        <time>2018-10-25T08:33:58.000Z</time>
      </trkpt>
      <trkpt lat="45.93798" lon="1.26296">
        <ele>402.5</ele>
        <time>2018-10-25T08:34:01.000Z</time>
      </trkpt>
      <trkpt lat="45.93795" lon="1.26287">
        <ele>402.6</ele>
        <time>2018-10-25T08:34:04.000Z</time>
      </trkpt>
      <trkpt lat="45.93791" lon="1.26277">
        <ele>402.9</ele>
        <time>2018-10-25T08:34:07.000Z</time>
      </trkpt>
      <trkpt lat="45.93787" lon="1.26266">
        <ele>403.1</ele>
        <time>2018-10-25T08:34:10.000Z</time>
      </trkpt>
      <trkpt lat="45.93785" lon="1.26254">
        <ele>403.4</ele>
        <time>2018-10-25T08:34:13.000Z</time>
      </trkpt>
      <trkpt lat="45.93782" lon="1.2624">
        <ele>403.5</ele>
        <time>2018-10-25T08:34:16.000Z</time>
      </trkpt>
      <trkpt lat="45.93781" lon="1.26227">
        <ele>403.5</ele>
        <time>2018-10-25T08:34:19.000Z</time>
      </trkpt>
      <trkpt lat="45.9378" lon="1.26214">
        <ele>403.4</ele>
        <time>2018-10-25T08:34:22.000Z</time>
      </trkpt>
      <trkpt lat="45.93779" lon="1.26202">
        <ele>403.2</ele>
        <time>2018-10-25T08:34:25.000Z</time>
      </trkpt>
      <trkpt lat="45.93777" lon="1.26191">
        <ele>403</ele>
        <time>2018-10-25T08:34:28.000Z</time>
      </trkpt>
      <trkpt lat="45.93776" lon="1.26176">
        <ele>402.6</ele>
        <time>2018-10-25T08:34:31.000Z</time>
      </trkpt>
      <trkpt lat="45.93774" lon="1.26157">
        <ele>402.3</ele>
        <time>2018-10-25T08:34:34.000Z</time>
      </trkpt>
      <trkpt lat="45.93772" lon="1.26136">
        <ele>401.8</ele>
        <time>2018-10-25T08:34:37.000Z</time>
      </trkpt>
      <trkpt lat="45.93771" lon="1.26114">
        <ele>401.3</ele>
        <time>2018-10-25T08:34:40.000Z</time>
      </trkpt>
      <trkpt lat="45.9377" lon="1.26089">
        <ele>400.6</ele>
        <time>2018-10-25T08:34:43.000Z</time>
      </trkpt>
      <trkpt lat="45.93767" lon="1.26064">
        <ele>400</ele>
        <time>2018-10-25T08:34:46.000Z</time>
      </trkpt>
      <trkpt lat="45.93764" lon="1.26037">
        <ele>399.6</ele>
        <time>2018-10-25T08:34:49.000Z</time>
      </trkpt>
      <trkpt lat="45.93761" lon="1.2601">
        <ele>399.4</ele>
        <time>2018-10-25T08:34:52.000Z</time>
      </trkpt>
      <trkpt lat="45.93759" lon="1.25983">
        <ele>399.6</ele>
        <time>2018-10-25T08:34:55.000Z</time>
      </trkpt>
      <trkpt lat="45.93757" lon="1.25961">
        <ele>400</ele>
        <time>2018-10-25T08:34:58.000Z</time>
      </trkpt>
      <trkpt lat="45.93755" lon="1.25938">
        <ele>400.7</ele>
        <time>2018-10-25T08:35:01.000Z</time>
      </trkpt>
      <trkpt lat="45.93752" lon="1.25912">
        <ele>401.6</ele>
        <time>2018-10-25T08:35:04.000Z</time>
      </trkpt>
      <trkpt lat="45.9375" lon="1.25886">
        <ele>402.7</ele>
        <time>2018-10-25T08:35:07.000Z</time>
      </trkpt>
      <trkpt lat="45.93749" lon="1.25865">
        <ele>403.8</ele>
        <time>2018-10-25T08:35:10.000Z</time>
      </trkpt>
      <trkpt lat="45.93748" lon="1.25847">
        <ele>405.1</ele>
        <time>2018-10-25T08:35:13.000Z</time>
      </trkpt>
      <trkpt lat="45.93747" lon="1.25833">
        <ele>406.3</ele>
        <time>2018-10-25T08:35:16.000Z</time>
      </trkpt>
      <trkpt lat="45.93745" lon="1.25822">
        <ele>407.5</ele>
        <time>2018-10-25T08:35:19.000Z</time>
      </trkpt>
      <trkpt lat="45.93745" lon="1.25809">
        <ele>408.5</ele>
        <time>2018-10-25T08:35:22.000Z</time>
      </trkpt>
      <trkpt lat="45.93744" lon="1.25786">
        <ele>410.5</ele>
        <time>2018-10-25T08:35:28.000Z</time>
      </trkpt>
      <trkpt lat="45.93742" lon="1.25775">
        <ele>411.4</ele>
        <time>2018-10-25T08:35:31.000Z</time>
      </trkpt>
      <trkpt lat="45.93741" lon="1.25749">
        <ele>413.4</ele>
        <time>2018-10-25T08:35:37.000Z</time>
      </trkpt>
      <trkpt lat="45.93737" lon="1.25736">
        <ele>414.3</ele>
        <time>2018-10-25T08:35:40.000Z</time>
      </trkpt>
      <trkpt lat="45.93731" lon="1.25722">
        <ele>415.2</ele>
        <time>2018-10-25T08:35:43.000Z</time>
      </trkpt>
      <trkpt lat="45.93724" lon="1.25708">
        <ele>415.8</ele>
        <time>2018-10-25T08:35:46.000Z</time>
      </trkpt>
      <trkpt lat="45.93717" lon="1.25695">
        <ele>416.3</ele>
        <time>2018-10-25T08:35:49.000Z</time>
      </trkpt>
      <trkpt lat="45.93711" lon="1.25684">
        <ele>416.4</ele>
        <time>2018-10-25T08:35:52.000Z</time>
      </trkpt>
      <trkpt lat="45.93704" lon="1.25673">
        <ele>416.4</ele>
        <time>2018-10-25T08:35:55.000Z</time>
      </trkpt>
      <trkpt lat="45.93698" lon="1.25662">
        <ele>416.3</ele>
        <time>2018-10-25T08:35:58.000Z</time>
      </trkpt>
      <trkpt lat="45.9369" lon="1.25652">
        <ele>416.4</ele>
        <time>2018-10-25T08:36:02.000Z</time>
      </trkpt>
      <trkpt lat="45.93683" lon="1.25642">
        <ele>416.4</ele>
        <time>2018-10-25T08:36:07.000Z</time>
      </trkpt>
      <trkpt lat="45.93678" lon="1.25633">
        <ele>416.7</ele>
        <time>2018-10-25T08:36:07.000Z</time>
      </trkpt>
      <trkpt lat="45.93671" lon="1.25624">
        <ele>417</ele>
        <time>2018-10-25T08:36:10.000Z</time>
      </trkpt>
      <trkpt lat="45.93665" lon="1.25616">
        <ele>417.3</ele>
        <time>2018-10-25T08:36:13.000Z</time>
      </trkpt>
      <trkpt lat="45.93658" lon="1.25607">
        <ele>417.6</ele>
        <time>2018-10-25T08:36:16.000Z</time>
      </trkpt>
      <trkpt lat="45.93651" lon="1.25599">
        <ele>418</ele>
        <time>2018-10-25T08:36:19.000Z</time>
      </trkpt>
      <trkpt lat="45.93644" lon="1.25591">
        <ele>418.3</ele>
        <time>2018-10-25T08:36:22.000Z</time>
      </trkpt>
      <trkpt lat="45.93639" lon="1.25581">
        <ele>418.6</ele>
        <time>2018-10-25T08:36:25.000Z</time>
      </trkpt>
      <trkpt lat="45.93634" lon="1.25571">
        <ele>419</ele>
        <time>2018-10-25T08:36:28.000Z</time>
      </trkpt>
      <trkpt lat="45.93631" lon="1.25561">
        <ele>419.4</ele>
        <time>2018-10-25T08:36:31.000Z</time>
      </trkpt>
      <trkpt lat="45.93627" lon="1.25549">
        <ele>419.9</ele>
        <time>2018-10-25T08:36:34.000Z</time>
      </trkpt>
      <trkpt lat="45.93624" lon="1.25537">
        <ele>420.5</ele>
        <time>2018-10-25T08:36:37.000Z</time>
      </trkpt>
      <trkpt lat="45.93623" lon="1.25524">
        <ele>421.2</ele>
        <time>2018-10-25T08:36:40.000Z</time>
      </trkpt>
      <trkpt lat="45.93621" lon="1.25512">
        <ele>422.1</ele>
        <time>2018-10-25T08:36:43.000Z</time>
      </trkpt>
      <trkpt lat="45.93621" lon="1.25499">
        <ele>423.1</ele>
        <time>2018-10-25T08:36:46.000Z</time>
      </trkpt>
      <trkpt lat="45.93622" lon="1.25473">
        <ele>425</ele>
        <time>2018-10-25T08:36:53.000Z</time>
      </trkpt>
      <trkpt lat="45.93624" lon="1.25461">
        <ele>425.9</ele>
        <time>2018-10-25T08:36:55.000Z</time>
      </trkpt>
      <trkpt lat="45.93626" lon="1.2545">
        <ele>426.7</ele>
        <time>2018-10-25T08:36:58.000Z</time>
      </trkpt>
      <trkpt lat="45.93629" lon="1.25439">
        <ele>427.5</ele>
        <time>2018-10-25T08:37:01.000Z</time>
      </trkpt>
      <trkpt lat="45.93631" lon="1.25427">
        <ele>428.4</ele>
        <time>2018-10-25T08:37:05.000Z</time>
      </trkpt>
      <trkpt lat="45.93633" lon="1.25416">
        <ele>429.3</ele>
        <time>2018-10-25T08:37:07.000Z</time>
      </trkpt>
      <trkpt lat="45.93635" lon="1.25405">
        <ele>430</ele>
        <time>2018-10-25T08:37:10.000Z</time>
      </trkpt>
      <trkpt lat="45.93637" lon="1.25393">
        <ele>430.7</ele>
        <time>2018-10-25T08:37:13.000Z</time>
      </trkpt>
      <trkpt lat="45.93641" lon="1.25381">
        <ele>431.2</ele>
        <time>2018-10-25T08:37:16.000Z</time>
      </trkpt>
      <trkpt lat="45.93643" lon="1.2537">
        <ele>431.6</ele>
        <time>2018-10-25T08:37:19.000Z</time>
      </trkpt>
      <trkpt lat="45.93645" lon="1.25358">
        <ele>431.8</ele>
        <time>2018-10-25T08:37:22.000Z</time>
      </trkpt>
      <trkpt lat="45.93647" lon="1.25347">
        <ele>432</ele>
        <time>2018-10-25T08:37:25.000Z</time>
      </trkpt>
      <trkpt lat="45.9365" lon="1.25336">
        <ele>432</ele>
        <time>2018-10-25T08:37:28.000Z</time>
      </trkpt>
      <trkpt lat="45.93652" lon="1.25325">
        <ele>432.1</ele>
        <time>2018-10-25T08:37:31.000Z</time>
      </trkpt>
      <trkpt lat="45.93654" lon="1.25314">
        <ele>432.2</ele>
        <time>2018-10-25T08:37:34.000Z</time>
      </trkpt>
      <trkpt lat="45.93657" lon="1.25302">
        <ele>432.3</ele>
        <time>2018-10-25T08:37:37.000Z</time>
      </trkpt>
      <trkpt lat="45.93658" lon="1.25291">
        <ele>432.6</ele>
        <time>2018-10-25T08:37:40.000Z</time>
      </trkpt>
      <trkpt lat="45.9366" lon="1.25283">
        <ele>432.8</ele>
        <time>2018-10-25T08:37:42.000Z</time>
      </trkpt>
      <trkpt lat="45.93662" lon="1.25275">
        <ele>433</ele>
        <time>2018-10-25T08:37:44.000Z</time>
      </trkpt>
      <trkpt lat="45.93663" lon="1.25267">
        <ele>433.1</ele>
        <time>2018-10-25T08:37:46.000Z</time>
      </trkpt>
      <trkpt lat="45.93664" lon="1.25259">
        <ele>433.2</ele>
        <time>2018-10-25T08:37:48.000Z</time>
      </trkpt>
      <trkpt lat="45.93665" lon="1.25252">
        <ele>433.2</ele>
        <time>2018-10-25T08:37:50.000Z</time>
      </trkpt>
      <trkpt lat="45.93667" lon="1.25244">
        <ele>433.2</ele>
        <time>2018-10-25T08:37:52.000Z</time>
      </trkpt>
      <trkpt lat="45.93668" lon="1.25236">
        <ele>433.2</ele>
        <time>2018-10-25T08:37:54.000Z</time>
      </trkpt>
      <trkpt lat="45.9367" lon="1.25229">
        <ele>433.3</ele>
        <time>2018-10-25T08:37:56.000Z</time>
      </trkpt>
      <trkpt lat="45.93671" lon="1.25221">
        <ele>433.4</ele>
        <time>2018-10-25T08:37:58.000Z</time>
      </trkpt>
      <trkpt lat="45.93672" lon="1.25212">
        <ele>433.6</ele>
        <time>2018-10-25T08:38:00.000Z</time>
      </trkpt>
      <trkpt lat="45.93674" lon="1.25203">
        <ele>433.8</ele>
        <time>2018-10-25T08:38:02.000Z</time>
      </trkpt>
      <trkpt lat="45.93674" lon="1.25194">
        <ele>434</ele>
        <time>2018-10-25T08:38:04.000Z</time>
      </trkpt>
      <trkpt lat="45.93674" lon="1.25173">
        <ele>434.3</ele>
        <time>2018-10-25T08:38:08.000Z</time>
      </trkpt>
      <trkpt lat="45.93675" lon="1.25149">
        <ele>434.3</ele>
        <time>2018-10-25T08:38:12.000Z</time>
      </trkpt>
      <trkpt lat="45.93674" lon="1.25135">
        <ele>434.2</ele>
        <time>2018-10-25T08:38:14.000Z</time>
      </trkpt>
      <trkpt lat="45.93675" lon="1.25121">
        <ele>433.8</ele>
        <time>2018-10-25T08:38:16.000Z</time>
      </trkpt>
      <trkpt lat="45.93676" lon="1.25107">
        <ele>433.4</ele>
        <time>2018-10-25T08:38:18.000Z</time>
      </trkpt>
      <trkpt lat="45.93675" lon="1.25091">
        <ele>432.8</ele>
        <time>2018-10-25T08:38:20.000Z</time>
      </trkpt>
      <trkpt lat="45.93676" lon="1.25074">
        <ele>432.2</ele>
        <time>2018-10-25T08:38:22.000Z</time>
      </trkpt>
      <trkpt lat="45.93675" lon="1.25041">
        <ele>430.6</ele>
        <time>2018-10-25T08:38:26.000Z</time>
      </trkpt>
      <trkpt lat="45.93674" lon="1.2501">
        <ele>428.5</ele>
        <time>2018-10-25T08:38:30.000Z</time>
      </trkpt>
      <trkpt lat="45.93672" lon="1.24993">
        <ele>427.5</ele>
        <time>2018-10-25T08:38:32.000Z</time>
      </trkpt>
      <trkpt lat="45.93667" lon="1.24966">
        <ele>426.3</ele>
        <time>2018-10-25T08:38:35.000Z</time>
      </trkpt>
      <trkpt lat="45.9366" lon="1.2494">
        <ele>425.2</ele>
        <time>2018-10-25T08:38:38.000Z</time>
      </trkpt>
      <trkpt lat="45.93652" lon="1.24913">
        <ele>424.1</ele>
        <time>2018-10-25T08:38:41.000Z</time>
      </trkpt>
      <trkpt lat="45.93644" lon="1.24887">
        <ele>423.3</ele>
        <time>2018-10-25T08:38:44.000Z</time>
      </trkpt>
      <trkpt lat="45.93637" lon="1.24863">
        <ele>423</ele>
        <time>2018-10-25T08:38:47.000Z</time>
      </trkpt>
      <trkpt lat="45.93633" lon="1.24841">
        <ele>423.1</ele>
        <time>2018-10-25T08:38:50.000Z</time>
      </trkpt>
      <trkpt lat="45.93628" lon="1.2482">
        <ele>423.6</ele>
        <time>2018-10-25T08:38:53.000Z</time>
      </trkpt>
      <trkpt lat="45.93626" lon="1.248">
        <ele>424.2</ele>
        <time>2018-10-25T08:38:56.000Z</time>
      </trkpt>
      <trkpt lat="45.93623" lon="1.2478">
        <ele>424.7</ele>
        <time>2018-10-25T08:38:59.000Z</time>
      </trkpt>
      <trkpt lat="45.93619" lon="1.2476">
        <ele>425</ele>
        <time>2018-10-25T08:39:02.000Z</time>
      </trkpt>
      <trkpt lat="45.93616" lon="1.24739">
        <ele>425.2</ele>
        <time>2018-10-25T08:39:05.000Z</time>
      </trkpt>
      <trkpt lat="45.93613" lon="1.24719">
        <ele>425.4</ele>
        <time>2018-10-25T08:39:08.000Z</time>
      </trkpt>
      <trkpt lat="45.9361" lon="1.24702">
        <ele>425.5</ele>
        <time>2018-10-25T08:39:11.000Z</time>
      </trkpt>
      <trkpt lat="45.93605" lon="1.24689">
        <ele>425.8</ele>
        <time>2018-10-25T08:39:14.000Z</time>
      </trkpt>
      <trkpt lat="45.93599" lon="1.24676">
        <ele>426</ele>
        <time>2018-10-25T08:39:17.000Z</time>
      </trkpt>
      <trkpt lat="45.93591" lon="1.24663">
        <ele>426.3</ele>
        <time>2018-10-25T08:39:20.000Z</time>
      </trkpt>
      <trkpt lat="45.93581" lon="1.24646">
        <ele>426.5</ele>
        <time>2018-10-25T08:39:23.000Z</time>
      </trkpt>
      <trkpt lat="45.9357" lon="1.24635">
        <ele>426.7</ele>
        <time>2018-10-25T08:39:26.000Z</time>
      </trkpt>
      <trkpt lat="45.9356" lon="1.24626">
        <ele>426.8</ele>
        <time>2018-10-25T08:39:29.000Z</time>
      </trkpt>
      <trkpt lat="45.93548" lon="1.24616">
        <ele>426.9</ele>
        <time>2018-10-25T08:39:32.000Z</time>
      </trkpt>
      <trkpt lat="45.93535" lon="1.24611">
        <ele>426.9</ele>
        <time>2018-10-25T08:39:35.000Z</time>
      </trkpt>
      <trkpt lat="45.93521" lon="1.24606">
        <ele>427</ele>
        <time>2018-10-25T08:39:38.000Z</time>
      </trkpt>
      <trkpt lat="45.9351" lon="1.24601">
        <ele>427.2</ele>
        <time>2018-10-25T08:39:41.000Z</time>
      </trkpt>
      <trkpt lat="45.93499" lon="1.24593">
        <ele>427.4</ele>
        <time>2018-10-25T08:39:44.000Z</time>
      </trkpt>
      <trkpt lat="45.93487" lon="1.24585">
        <ele>427.4</ele>
        <time>2018-10-25T08:39:47.000Z</time>
      </trkpt>
      <trkpt lat="45.93475" lon="1.24577">
        <ele>427.3</ele>
        <time>2018-10-25T08:39:50.000Z</time>
      </trkpt>
      <trkpt lat="45.93464" lon="1.24568">
        <ele>427.1</ele>
        <time>2018-10-25T08:39:53.000Z</time>
      </trkpt>
      <trkpt lat="45.93453" lon="1.2456">
        <ele>426.8</ele>
        <time>2018-10-25T08:39:56.000Z</time>
      </trkpt>
      <trkpt lat="45.93442" lon="1.24549">
        <ele>426.7</ele>
        <time>2018-10-25T08:39:59.000Z</time>
      </trkpt>
      <trkpt lat="45.93433" lon="1.2454">
        <ele>426.7</ele>
        <time>2018-10-25T08:40:02.000Z</time>
      </trkpt>
      <trkpt lat="45.93422" lon="1.24532">
        <ele>426.9</ele>
        <time>2018-10-25T08:40:05.000Z</time>
      </trkpt>
      <trkpt lat="45.93412" lon="1.24524">
        <ele>427.2</ele>
        <time>2018-10-25T08:40:08.000Z</time>
      </trkpt>
      <trkpt lat="45.93402" lon="1.24517">
        <ele>427.4</ele>
        <time>2018-10-25T08:40:11.000Z</time>
      </trkpt>
      <trkpt lat="45.93393" lon="1.2451">
        <ele>427.5</ele>
        <time>2018-10-25T08:40:14.000Z</time>
      </trkpt>
      <trkpt lat="45.93383" lon="1.24503">
        <ele>427.4</ele>
        <time>2018-10-25T08:40:17.000Z</time>
      </trkpt>
      <trkpt lat="45.93373" lon="1.24496">
        <ele>427.2</ele>
        <time>2018-10-25T08:40:20.000Z</time>
      </trkpt>
      <trkpt lat="45.93363" lon="1.24489">
        <ele>426.7</ele>
        <time>2018-10-25T08:40:23.000Z</time>
      </trkpt>
      <trkpt lat="45.93353" lon="1.24482">
        <ele>426.2</ele>
        <time>2018-10-25T08:40:26.000Z</time>
      </trkpt>
      <trkpt lat="45.93342" lon="1.24473">
        <ele>425.5</ele>
        <time>2018-10-25T08:40:29.000Z</time>
      </trkpt>
      <trkpt lat="45.9333" lon="1.24465">
        <ele>424.9</ele>
        <time>2018-10-25T08:40:32.000Z</time>
      </trkpt>
      <trkpt lat="45.93319" lon="1.24456">
        <ele>424.2</ele>
        <time>2018-10-25T08:40:35.000Z</time>
      </trkpt>
      <trkpt lat="45.93307" lon="1.24447">
        <ele>423.6</ele>
        <time>2018-10-25T08:40:38.000Z</time>
      </trkpt>
      <trkpt lat="45.93294" lon="1.24436">
        <ele>423.1</ele>
        <time>2018-10-25T08:40:41.000Z</time>
      </trkpt>
      <trkpt lat="45.93282" lon="1.24427">
        <ele>422.7</ele>
        <time>2018-10-25T08:40:44.000Z</time>
      </trkpt>
      <trkpt lat="45.93268" lon="1.24417">
        <ele>422.5</ele>
        <time>2018-10-25T08:40:47.000Z</time>
      </trkpt>
      <trkpt lat="45.93255" lon="1.24405">
        <ele>422.3</ele>
        <time>2018-10-25T08:40:50.000Z</time>
      </trkpt>
      <trkpt lat="45.93243" lon="1.24395">
        <ele>422.2</ele>
        <time>2018-10-25T08:40:53.000Z</time>
      </trkpt>
      <trkpt lat="45.93232" lon="1.24387">
        <ele>422.1</ele>
        <time>2018-10-25T08:40:56.000Z</time>
      </trkpt>
      <trkpt lat="45.93222" lon="1.24378">
        <ele>422.1</ele>
        <time>2018-10-25T08:40:59.000Z</time>
      </trkpt>
      <trkpt lat="45.9321" lon="1.24368">
        <ele>422.1</ele>
        <time>2018-10-25T08:41:04.000Z</time>
      </trkpt>
      <trkpt lat="45.932" lon="1.2436">
        <ele>422.2</ele>
        <time>2018-10-25T08:41:05.000Z</time>
      </trkpt>
      <trkpt lat="45.93192" lon="1.24354">
        <ele>422.3</ele>
        <time>2018-10-25T08:41:08.000Z</time>
      </trkpt>
      <trkpt lat="45.93182" lon="1.24349">
        <ele>422.4</ele>
        <time>2018-10-25T08:41:11.000Z</time>
      </trkpt>
      <trkpt lat="45.93173" lon="1.24353">
        <ele>422.5</ele>
        <time>2018-10-25T08:41:14.000Z</time>
      </trkpt>
      <trkpt lat="45.93167" lon="1.24368">
        <ele>422.6</ele>
        <time>2018-10-25T08:41:17.000Z</time>
      </trkpt>
      <trkpt lat="45.93163" lon="1.24385">
        <ele>422.6</ele>
        <time>2018-10-25T08:41:20.000Z</time>
      </trkpt>
      <trkpt lat="45.93159" lon="1.24402">
        <ele>422.5</ele>
        <time>2018-10-25T08:41:23.000Z</time>
      </trkpt>
      <trkpt lat="45.93155" lon="1.24419">
        <ele>422.3</ele>
        <time>2018-10-25T08:41:26.000Z</time>
      </trkpt>
      <trkpt lat="45.93148" lon="1.24439">
        <ele>421.9</ele>
        <time>2018-10-25T08:41:29.000Z</time>
      </trkpt>
      <trkpt lat="45.93142" lon="1.24461">
        <ele>421.4</ele>
        <time>2018-10-25T08:41:32.000Z</time>
      </trkpt>
      <trkpt lat="45.93135" lon="1.24485">
        <ele>420.9</ele>
        <time>2018-10-25T08:41:35.000Z</time>
      </trkpt>
      <trkpt lat="45.93129" lon="1.24509">
        <ele>420.4</ele>
        <time>2018-10-25T08:41:38.000Z</time>
      </trkpt>
      <trkpt lat="45.93122" lon="1.24534">
        <ele>419.8</ele>
        <time>2018-10-25T08:41:41.000Z</time>
      </trkpt>
      <trkpt lat="45.93114" lon="1.2456">
        <ele>419.4</ele>
        <time>2018-10-25T08:41:44.000Z</time>
      </trkpt>
      <trkpt lat="45.93106" lon="1.2459">
        <ele>419.1</ele>
        <time>2018-10-25T08:41:47.000Z</time>
      </trkpt>
      <trkpt lat="45.93099" lon="1.24617">
        <ele>419.1</ele>
        <time>2018-10-25T08:41:50.000Z</time>
      </trkpt>
      <trkpt lat="45.93093" lon="1.24645">
        <ele>419.3</ele>
        <time>2018-10-25T08:41:53.000Z</time>
      </trkpt>
      <trkpt lat="45.93087" lon="1.2467">
        <ele>419.6</ele>
        <time>2018-10-25T08:41:56.000Z</time>
      </trkpt>
      <trkpt lat="45.93082" lon="1.24694">
        <ele>419.9</ele>
        <time>2018-10-25T08:41:59.000Z</time>
      </trkpt>
      <trkpt lat="45.93077" lon="1.24714">
        <ele>420.2</ele>
        <time>2018-10-25T08:42:02.000Z</time>
      </trkpt>
      <trkpt lat="45.93071" lon="1.24733">
        <ele>420.4</ele>
        <time>2018-10-25T08:42:05.000Z</time>
      </trkpt>
      <trkpt lat="45.93062" lon="1.24751">
        <ele>420.7</ele>
        <time>2018-10-25T08:42:08.000Z</time>
      </trkpt>
      <trkpt lat="45.93052" lon="1.24763">
        <ele>421.2</ele>
        <time>2018-10-25T08:42:11.000Z</time>
      </trkpt>
      <trkpt lat="45.93044" lon="1.24776">
        <ele>421.8</ele>
        <time>2018-10-25T08:42:14.000Z</time>
      </trkpt>
      <trkpt lat="45.93038" lon="1.24791">
        <ele>422.3</ele>
        <time>2018-10-25T08:42:17.000Z</time>
      </trkpt>
      <trkpt lat="45.93036" lon="1.24808">
        <ele>422.6</ele>
        <time>2018-10-25T08:42:20.000Z</time>
      </trkpt>
      <trkpt lat="45.93034" lon="1.24827">
        <ele>422.5</ele>
        <time>2018-10-25T08:42:23.000Z</time>
      </trkpt>
      <trkpt lat="45.93031" lon="1.24852">
        <ele>421.9</ele>
        <time>2018-10-25T08:42:26.000Z</time>
      </trkpt>
      <trkpt lat="45.93023" lon="1.24877">
        <ele>420.8</ele>
        <time>2018-10-25T08:42:29.000Z</time>
      </trkpt>
      <trkpt lat="45.9301" lon="1.24893">
        <ele>419.6</ele>
        <time>2018-10-25T08:42:32.000Z</time>
      </trkpt>
      <trkpt lat="45.92995" lon="1.24908">
        <ele>418.3</ele>
        <time>2018-10-25T08:42:35.000Z</time>
      </trkpt>
      <trkpt lat="45.92974" lon="1.2491">
        <ele>417</ele>
        <time>2018-10-25T08:42:38.000Z</time>
      </trkpt>
      <trkpt lat="45.92955" lon="1.24898">
        <ele>416.3</ele>
        <time>2018-10-25T08:42:41.000Z</time>
      </trkpt>
      <trkpt lat="45.92936" lon="1.24886">
        <ele>416.2</ele>
        <time>2018-10-25T08:42:44.000Z</time>
      </trkpt>
      <trkpt lat="45.92918" lon="1.24875">
        <ele>416.5</ele>
        <time>2018-10-25T08:42:47.000Z</time>
      </trkpt>
      <trkpt lat="45.92896" lon="1.24864">
        <ele>417.1</ele>
        <time>2018-10-25T08:42:50.000Z</time>
      </trkpt>
      <trkpt lat="45.92876" lon="1.24856">
        <ele>417.7</ele>
        <time>2018-10-25T08:42:53.000Z</time>
      </trkpt>
      <trkpt lat="45.92858" lon="1.24853">
        <ele>417.6</ele>
        <time>2018-10-25T08:42:56.000Z</time>
      </trkpt>
      <trkpt lat="45.92839" lon="1.24853">
        <ele>416.8</ele>
        <time>2018-10-25T08:42:59.000Z</time>
      </trkpt>
      <trkpt lat="45.92823" lon="1.2485">
        <ele>415.2</ele>
        <time>2018-10-25T08:43:02.000Z</time>
      </trkpt>
      <trkpt lat="45.92807" lon="1.24841">
        <ele>413.4</ele>
        <time>2018-10-25T08:43:05.000Z</time>
      </trkpt>
      <trkpt lat="45.92791" lon="1.2483">
        <ele>411.5</ele>
        <time>2018-10-25T08:43:08.000Z</time>
      </trkpt>
      <trkpt lat="45.9277" lon="1.24816">
        <ele>409.7</ele>
        <time>2018-10-25T08:43:11.000Z</time>
      </trkpt>
      <trkpt lat="45.92749" lon="1.24798">
        <ele>408</ele>
        <time>2018-10-25T08:43:14.000Z</time>
      </trkpt>
      <trkpt lat="45.92727" lon="1.24783">
        <ele>406.4</ele>
        <time>2018-10-25T08:43:17.000Z</time>
      </trkpt>
      <trkpt lat="45.92702" lon="1.24769">
        <ele>404.4</ele>
        <time>2018-10-25T08:43:20.000Z</time>
      </trkpt>
      <trkpt lat="45.92678" lon="1.24753">
        <ele>402.1</ele>
        <time>2018-10-25T08:43:23.000Z</time>
      </trkpt>
      <trkpt lat="45.92655" lon="1.2474">
        <ele>399.9</ele>
        <time>2018-10-25T08:43:26.000Z</time>
      </trkpt>
      <trkpt lat="45.92633" lon="1.24739">
        <ele>398.1</ele>
        <time>2018-10-25T08:43:29.000Z</time>
      </trkpt>
      <trkpt lat="45.9262" lon="1.24746">
        <ele>396.7</ele>
        <time>2018-10-25T08:43:32.000Z</time>
      </trkpt>
      <trkpt lat="45.92612" lon="1.24753">
        <ele>395.8</ele>
        <time>2018-10-25T08:43:35.000Z</time>
      </trkpt>
      <trkpt lat="45.92604" lon="1.24767">
        <ele>395.3</ele>
        <time>2018-10-25T08:43:38.000Z</time>
      </trkpt>
      <trkpt lat="45.92592" lon="1.2478">
        <ele>395.1</ele>
        <time>2018-10-25T08:43:41.000Z</time>
      </trkpt>
      <trkpt lat="45.92582" lon="1.24791">
        <ele>394.7</ele>
        <time>2018-10-25T08:43:44.000Z</time>
      </trkpt>
      <trkpt lat="45.92578" lon="1.24796">
        <ele>394.3</ele>
        <time>2018-10-25T08:43:47.000Z</time>
      </trkpt>
      <trkpt lat="45.92577" lon="1.24797">
        <ele>393.9</ele>
        <time>2018-10-25T08:43:50.000Z</time>
      </trkpt>
      <trkpt lat="45.92575" lon="1.24796">
        <ele>393.8</ele>
        <time>2018-10-25T08:44:09.000Z</time>
      </trkpt>
      <trkpt lat="45.92574" lon="1.24795">
        <ele>393.7</ele>
        <time>2018-10-25T08:44:20.000Z</time>
      </trkpt>
      <trkpt lat="45.92573" lon="1.24795">
        <ele>393.8</ele>
        <time>2018-10-25T08:44:32.000Z</time>
      </trkpt>
      <trkpt lat="45.92572" lon="1.24797">
        <ele>393.8</ele>
        <time>2018-10-25T08:44:37.000Z</time>
      </trkpt>
      <trkpt lat="45.92568" lon="1.248">
        <ele>393.9</ele>
        <time>2018-10-25T08:44:40.000Z</time>
      </trkpt>
      <trkpt lat="45.92563" lon="1.24805">
        <ele>394</ele>
        <time>2018-10-25T08:44:43.000Z</time>
      </trkpt>
      <trkpt lat="45.92559" lon="1.2481">
        <ele>394</ele>
        <time>2018-10-25T08:44:46.000Z</time>
      </trkpt>
      <trkpt lat="45.92553" lon="1.24815">
        <ele>394</ele>
        <time>2018-10-25T08:44:49.000Z</time>
      </trkpt>
      <trkpt lat="45.92546" lon="1.24822">
        <ele>394</ele>
        <time>2018-10-25T08:44:52.000Z</time>
      </trkpt>
      <trkpt lat="45.92538" lon="1.24831">
        <ele>394</ele>
        <time>2018-10-25T08:44:55.000Z</time>
      </trkpt>
      <trkpt lat="45.92529" lon="1.2484">
        <ele>393.9</ele>
        <time>2018-10-25T08:44:58.000Z</time>
      </trkpt>
      <trkpt lat="45.92519" lon="1.24851">
        <ele>393.9</ele>
        <time>2018-10-25T08:45:01.000Z</time>
      </trkpt>
      <trkpt lat="45.9251" lon="1.24861">
        <ele>393.8</ele>
        <time>2018-10-25T08:45:04.000Z</time>
      </trkpt>
      <trkpt lat="45.92501" lon="1.24871">
        <ele>393.6</ele>
        <time>2018-10-25T08:45:07.000Z</time>
      </trkpt>
      <trkpt lat="45.92492" lon="1.24881">
        <ele>393.5</ele>
        <time>2018-10-25T08:45:10.000Z</time>
      </trkpt>
      <trkpt lat="45.92482" lon="1.24891">
        <ele>393.3</ele>
        <time>2018-10-25T08:45:13.000Z</time>
      </trkpt>
      <trkpt lat="45.92471" lon="1.24902">
        <ele>393.2</ele>
        <time>2018-10-25T08:45:16.000Z</time>
      </trkpt>
      <trkpt lat="45.9246" lon="1.24912">
        <ele>393.1</ele>
        <time>2018-10-25T08:45:19.000Z</time>
      </trkpt>
      <trkpt lat="45.92448" lon="1.2492">
        <ele>393.2</ele>
        <time>2018-10-25T08:45:22.000Z</time>
      </trkpt>
      <trkpt lat="45.92435" lon="1.24929">
        <ele>393.3</ele>
        <time>2018-10-25T08:45:25.000Z</time>
      </trkpt>
      <trkpt lat="45.92421" lon="1.24936">
        <ele>393.6</ele>
        <time>2018-10-25T08:45:28.000Z</time>
      </trkpt>
      <trkpt lat="45.92403" lon="1.24945">
        <ele>393.7</ele>
        <time>2018-10-25T08:45:31.000Z</time>
      </trkpt>
      <trkpt lat="45.92386" lon="1.2496">
        <ele>393.4</ele>
        <time>2018-10-25T08:45:34.000Z</time>
      </trkpt>
      <trkpt lat="45.92365" lon="1.24975">
        <ele>392.8</ele>
        <time>2018-10-25T08:45:37.000Z</time>
      </trkpt>
      <trkpt lat="45.92339" lon="1.24988">
        <ele>391.9</ele>
        <time>2018-10-25T08:45:40.000Z</time>
      </trkpt>
      <trkpt lat="45.92312" lon="1.25002">
        <ele>390.5</ele>
        <time>2018-10-25T08:45:43.000Z</time>
      </trkpt>
      <trkpt lat="45.92286" lon="1.25017">
        <ele>388.8</ele>
        <time>2018-10-25T08:45:46.000Z</time>
      </trkpt>
      <trkpt lat="45.92258" lon="1.25034">
        <ele>386.9</ele>
        <time>2018-10-25T08:45:49.000Z</time>
      </trkpt>
      <trkpt lat="45.92229" lon="1.25051">
        <ele>385.1</ele>
        <time>2018-10-25T08:45:52.000Z</time>
      </trkpt>
      <trkpt lat="45.92204" lon="1.25069">
        <ele>383.5</ele>
        <time>2018-10-25T08:45:55.000Z</time>
      </trkpt>
      <trkpt lat="45.92185" lon="1.25093">
        <ele>382.4</ele>
        <time>2018-10-25T08:45:58.000Z</time>
      </trkpt>
      <trkpt lat="45.92172" lon="1.25124">
        <ele>381.6</ele>
        <time>2018-10-25T08:46:01.000Z</time>
      </trkpt>
      <trkpt lat="45.92163" lon="1.25146">
        <ele>381.4</ele>
        <time>2018-10-25T08:46:07.000Z</time>
      </trkpt>
      <trkpt lat="45.92152" lon="1.25173">
        <ele>381.4</ele>
        <time>2018-10-25T08:46:07.000Z</time>
      </trkpt>
      <trkpt lat="45.92144" lon="1.25193">
        <ele>381.2</ele>
        <time>2018-10-25T08:46:10.000Z</time>
      </trkpt>
      <trkpt lat="45.92139" lon="1.25219">
        <ele>380.9</ele>
        <time>2018-10-25T08:46:13.000Z</time>
      </trkpt>
      <trkpt lat="45.92132" lon="1.25243">
        <ele>380.4</ele>
        <time>2018-10-25T08:46:16.000Z</time>
      </trkpt>
      <trkpt lat="45.92125" lon="1.25269">
        <ele>379.7</ele>
        <time>2018-10-25T08:46:19.000Z</time>
      </trkpt>
      <trkpt lat="45.92109" lon="1.25291">
        <ele>379</ele>
        <time>2018-10-25T08:46:22.000Z</time>
      </trkpt>
      <trkpt lat="45.92088" lon="1.25302">
        <ele>378.7</ele>
        <time>2018-10-25T08:46:25.000Z</time>
      </trkpt>
      <trkpt lat="45.92063" lon="1.25308">
        <ele>378.1</ele>
        <time>2018-10-25T08:46:28.000Z</time>
      </trkpt>
      <trkpt lat="45.92038" lon="1.25321">
        <ele>377</ele>
        <time>2018-10-25T08:46:31.000Z</time>
      </trkpt>
      <trkpt lat="45.92018" lon="1.25345">
        <ele>375.2</ele>
        <time>2018-10-25T08:46:34.000Z</time>
      </trkpt>
      <trkpt lat="45.92002" lon="1.25381">
        <ele>372.8</ele>
        <time>2018-10-25T08:46:37.000Z</time>
      </trkpt>
      <trkpt lat="45.91986" lon="1.25413">
        <ele>369.7</ele>
        <time>2018-10-25T08:46:40.000Z</time>
      </trkpt>
      <trkpt lat="45.9196" lon="1.25438">
        <ele>366.4</ele>
        <time>2018-10-25T08:46:43.000Z</time>
      </trkpt>
      <trkpt lat="45.9193" lon="1.25454">
        <ele>363.3</ele>
        <time>2018-10-25T08:46:46.000Z</time>
      </trkpt>
      <trkpt lat="45.91899" lon="1.25464">
        <ele>360.6</ele>
        <time>2018-10-25T08:46:49.000Z</time>
      </trkpt>
      <trkpt lat="45.91868" lon="1.25477">
        <ele>358.1</ele>
        <time>2018-10-25T08:46:52.000Z</time>
      </trkpt>
      <trkpt lat="45.91835" lon="1.25484">
        <ele>355.7</ele>
        <time>2018-10-25T08:46:55.000Z</time>
      </trkpt>
      <trkpt lat="45.91802" lon="1.25485">
        <ele>353.5</ele>
        <time>2018-10-25T08:46:58.000Z</time>
      </trkpt>
      <trkpt lat="45.9177" lon="1.25484">
        <ele>351.7</ele>
        <time>2018-10-25T08:47:01.000Z</time>
      </trkpt>
      <trkpt lat="45.91742" lon="1.25486">
        <ele>350.3</ele>
        <time>2018-10-25T08:47:04.000Z</time>
      </trkpt>
      <trkpt lat="45.91717" lon="1.25486">
        <ele>349.6</ele>
        <time>2018-10-25T08:47:07.000Z</time>
      </trkpt>
      <trkpt lat="45.91694" lon="1.25486">
        <ele>349.8</ele>
        <time>2018-10-25T08:47:10.000Z</time>
      </trkpt>
      <trkpt lat="45.91678" lon="1.25486">
        <ele>350.4</ele>
        <time>2018-10-25T08:47:13.000Z</time>
      </trkpt>
      <trkpt lat="45.91662" lon="1.25488">
        <ele>351.5</ele>
        <time>2018-10-25T08:47:16.000Z</time>
      </trkpt>
      <trkpt lat="45.91648" lon="1.25492">
        <ele>352.8</ele>
        <time>2018-10-25T08:47:19.000Z</time>
      </trkpt>
      <trkpt lat="45.91636" lon="1.25501">
        <ele>353.8</ele>
        <time>2018-10-25T08:47:22.000Z</time>
      </trkpt>
      <trkpt lat="45.91626" lon="1.25513">
        <ele>354.7</ele>
        <time>2018-10-25T08:47:25.000Z</time>
      </trkpt>
      <trkpt lat="45.91616" lon="1.25523">
        <ele>355.6</ele>
        <time>2018-10-25T08:47:28.000Z</time>
      </trkpt>
      <trkpt lat="45.91608" lon="1.25534">
        <ele>356.4</ele>
        <time>2018-10-25T08:47:31.000Z</time>
      </trkpt>
      <trkpt lat="45.916" lon="1.25545">
        <ele>357.2</ele>
        <time>2018-10-25T08:47:34.000Z</time>
      </trkpt>
      <trkpt lat="45.91593" lon="1.25555">
        <ele>358</ele>
        <time>2018-10-25T08:47:37.000Z</time>
      </trkpt>
      <trkpt lat="45.91586" lon="1.25566">
        <ele>358.8</ele>
        <time>2018-10-25T08:47:40.000Z</time>
      </trkpt>
      <trkpt lat="45.91578" lon="1.25574">
        <ele>359.6</ele>
        <time>2018-10-25T08:47:43.000Z</time>
      </trkpt>
      <trkpt lat="45.91572" lon="1.25585">
        <ele>360.2</ele>
        <time>2018-10-25T08:47:46.000Z</time>
      </trkpt>
      <trkpt lat="45.91565" lon="1.25594">
        <ele>360.5</ele>
        <time>2018-10-25T08:47:49.000Z</time>
      </trkpt>
      <trkpt lat="45.91559" lon="1.25604">
        <ele>360.7</ele>
        <time>2018-10-25T08:47:52.000Z</time>
      </trkpt>
      <trkpt lat="45.91552" lon="1.25614">
        <ele>360.7</ele>
        <time>2018-10-25T08:47:55.000Z</time>
      </trkpt>
      <trkpt lat="45.91545" lon="1.25623">
        <ele>360.5</ele>
        <time>2018-10-25T08:47:58.000Z</time>
      </trkpt>
      <trkpt lat="45.91535" lon="1.25631">
        <ele>360.3</ele>
        <time>2018-10-25T08:48:01.000Z</time>
      </trkpt>
      <trkpt lat="45.91524" lon="1.25638">
        <ele>360.1</ele>
        <time>2018-10-25T08:48:04.000Z</time>
      </trkpt>
      <trkpt lat="45.9151" lon="1.25643">
        <ele>359.9</ele>
        <time>2018-10-25T08:48:07.000Z</time>
      </trkpt>
      <trkpt lat="45.91497" lon="1.25649">
        <ele>359.7</ele>
        <time>2018-10-25T08:48:10.000Z</time>
      </trkpt>
      <trkpt lat="45.91483" lon="1.25656">
        <ele>359.5</ele>
        <time>2018-10-25T08:48:13.000Z</time>
      </trkpt>
      <trkpt lat="45.91465" lon="1.25665">
        <ele>359.3</ele>
        <time>2018-10-25T08:48:16.000Z</time>
      </trkpt>
      <trkpt lat="45.91452" lon="1.25679">
        <ele>359</ele>
        <time>2018-10-25T08:48:19.000Z</time>
      </trkpt>
      <trkpt lat="45.91442" lon="1.25699">
        <ele>358.6</ele>
        <time>2018-10-25T08:48:22.000Z</time>
      </trkpt>
      <trkpt lat="45.91434" lon="1.25714">
        <ele>358.3</ele>
        <time>2018-10-25T08:48:25.000Z</time>
      </trkpt>
      <trkpt lat="45.91425" lon="1.25728">
        <ele>358</ele>
        <time>2018-10-25T08:48:28.000Z</time>
      </trkpt>
      <trkpt lat="45.91416" lon="1.25739">
        <ele>357.9</ele>
        <time>2018-10-25T08:48:31.000Z</time>
      </trkpt>
      <trkpt lat="45.91402" lon="1.25748">
        <ele>357.9</ele>
        <time>2018-10-25T08:48:34.000Z</time>
      </trkpt>
      <trkpt lat="45.91391" lon="1.25757">
        <ele>357.9</ele>
        <time>2018-10-25T08:48:37.000Z</time>
      </trkpt>
      <trkpt lat="45.9138" lon="1.25766">
        <ele>357.9</ele>
        <time>2018-10-25T08:48:40.000Z</time>
      </trkpt>
      <trkpt lat="45.91367" lon="1.2577">
        <ele>357.8</ele>
        <time>2018-10-25T08:48:43.000Z</time>
      </trkpt>
      <trkpt lat="45.91355" lon="1.25773">
        <ele>357.7</ele>
        <time>2018-10-25T08:48:46.000Z</time>
      </trkpt>
      <trkpt lat="45.91342" lon="1.25772">
        <ele>357.5</ele>
        <time>2018-10-25T08:48:49.000Z</time>
      </trkpt>
      <trkpt lat="45.9133" lon="1.2577">
        <ele>357.4</ele>
        <time>2018-10-25T08:48:52.000Z</time>
      </trkpt>
      <trkpt lat="45.91319" lon="1.25767">
        <ele>357.5</ele>
        <time>2018-10-25T08:48:55.000Z</time>
      </trkpt>
      <trkpt lat="45.91308" lon="1.25762">
        <ele>357.8</ele>
        <time>2018-10-25T08:48:58.000Z</time>
      </trkpt>
      <trkpt lat="45.91297" lon="1.25758">
        <ele>358.2</ele>
        <time>2018-10-25T08:49:01.000Z</time>
      </trkpt>
      <trkpt lat="45.91285" lon="1.25753">
        <ele>358.8</ele>
        <time>2018-10-25T08:49:04.000Z</time>
      </trkpt>
      <trkpt lat="45.91274" lon="1.25752">
        <ele>359.5</ele>
        <time>2018-10-25T08:49:07.000Z</time>
      </trkpt>
      <trkpt lat="45.9126" lon="1.25754">
        <ele>360.2</ele>
        <time>2018-10-25T08:49:10.000Z</time>
      </trkpt>
      <trkpt lat="45.91247" lon="1.25753">
        <ele>360.8</ele>
        <time>2018-10-25T08:49:13.000Z</time>
      </trkpt>
      <trkpt lat="45.91234" lon="1.25751">
        <ele>361.3</ele>
        <time>2018-10-25T08:49:16.000Z</time>
      </trkpt>
      <trkpt lat="45.91222" lon="1.2575">
        <ele>361.7</ele>
        <time>2018-10-25T08:49:18.000Z</time>
      </trkpt>
      <trkpt lat="45.91212" lon="1.25751">
        <ele>362.1</ele>
        <time>2018-10-25T08:49:20.000Z</time>
      </trkpt>
      <trkpt lat="45.91204" lon="1.25754">
        <ele>362.3</ele>
        <time>2018-10-25T08:49:22.000Z</time>
      </trkpt>
      <trkpt lat="45.912" lon="1.25757">
        <ele>362.4</ele>
        <time>2018-10-25T08:49:24.000Z</time>
      </trkpt>
      <trkpt lat="45.91195" lon="1.25759">
        <ele>362.5</ele>
        <time>2018-10-25T08:49:26.000Z</time>
      </trkpt>
      <trkpt lat="45.9119" lon="1.25761">
        <ele>362.5</ele>
        <time>2018-10-25T08:49:28.000Z</time>
      </trkpt>
      <trkpt lat="45.91185" lon="1.25764">
        <ele>362.6</ele>
        <time>2018-10-25T08:49:30.000Z</time>
      </trkpt>
      <trkpt lat="45.91179" lon="1.25765">
        <ele>362.7</ele>
        <time>2018-10-25T08:49:32.000Z</time>
      </trkpt>
      <trkpt lat="45.91174" lon="1.25765">
        <ele>362.7</ele>
        <time>2018-10-25T08:49:34.000Z</time>
      </trkpt>
      <trkpt lat="45.91167" lon="1.25765">
        <ele>362.8</ele>
        <time>2018-10-25T08:49:36.000Z</time>
      </trkpt>
      <trkpt lat="45.91161" lon="1.25765">
        <ele>362.9</ele>
        <time>2018-10-25T08:49:38.000Z</time>
      </trkpt>
      <trkpt lat="45.91155" lon="1.25765">
        <ele>362.9</ele>
        <time>2018-10-25T08:49:40.000Z</time>
      </trkpt>
      <trkpt lat="45.91149" lon="1.25766">
        <ele>362.9</ele>
        <time>2018-10-25T08:49:42.000Z</time>
      </trkpt>
      <trkpt lat="45.91143" lon="1.25766">
        <ele>362.9</ele>
        <time>2018-10-25T08:49:44.000Z</time>
      </trkpt>
      <trkpt lat="45.91138" lon="1.25766">
        <ele>362.9</ele>
        <time>2018-10-25T08:49:46.000Z</time>
      </trkpt>
      <trkpt lat="45.91132" lon="1.25767">
        <ele>362.9</ele>
        <time>2018-10-25T08:49:48.000Z</time>
      </trkpt>
      <trkpt lat="45.91125" lon="1.25767">
        <ele>362.9</ele>
        <time>2018-10-25T08:49:50.000Z</time>
      </trkpt>
      <trkpt lat="45.91119" lon="1.25767">
        <ele>362.8</ele>
        <time>2018-10-25T08:49:52.000Z</time>
      </trkpt>
      <trkpt lat="45.91113" lon="1.25767">
        <ele>362.8</ele>
        <time>2018-10-25T08:49:54.000Z</time>
      </trkpt>
      <trkpt lat="45.91107" lon="1.25766">
        <ele>362.8</ele>
        <time>2018-10-25T08:49:56.000Z</time>
      </trkpt>
      <trkpt lat="45.91101" lon="1.25767">
        <ele>362.7</ele>
        <time>2018-10-25T08:49:58.000Z</time>
      </trkpt>
      <trkpt lat="45.91095" lon="1.25767">
        <ele>362.7</ele>
        <time>2018-10-25T08:50:00.000Z</time>
      </trkpt>
      <trkpt lat="45.91088" lon="1.25768">
        <ele>362.7</ele>
        <time>2018-10-25T08:50:02.000Z</time>
      </trkpt>
      <trkpt lat="45.91082" lon="1.25768">
        <ele>362.6</ele>
        <time>2018-10-25T08:50:04.000Z</time>
      </trkpt>
      <trkpt lat="45.91076" lon="1.25768">
        <ele>362.6</ele>
        <time>2018-10-25T08:50:06.000Z</time>
      </trkpt>
      <trkpt lat="45.91069" lon="1.25769">
        <ele>362.5</ele>
        <time>2018-10-25T08:50:08.000Z</time>
      </trkpt>
      <trkpt lat="45.91063" lon="1.25769">
        <ele>362.5</ele>
        <time>2018-10-25T08:50:10.000Z</time>
      </trkpt>
      <trkpt lat="45.91056" lon="1.25769">
        <ele>362.4</ele>
        <time>2018-10-25T08:50:12.000Z</time>
      </trkpt>
      <trkpt lat="45.91047" lon="1.2577">
        <ele>362.4</ele>
        <time>2018-10-25T08:50:15.000Z</time>
      </trkpt>
      <trkpt lat="45.91037" lon="1.25771">
        <ele>362.3</ele>
        <time>2018-10-25T08:50:18.000Z</time>
      </trkpt>
      <trkpt lat="45.91027" lon="1.25771">
        <ele>362.2</ele>
        <time>2018-10-25T08:50:21.000Z</time>
      </trkpt>
      <trkpt lat="45.91017" lon="1.25771">
        <ele>362.1</ele>
        <time>2018-10-25T08:50:24.000Z</time>
      </trkpt>
      <trkpt lat="45.91007" lon="1.25771">
        <ele>362</ele>
        <time>2018-10-25T08:50:27.000Z</time>
      </trkpt>
      <trkpt lat="45.90997" lon="1.25771">
        <ele>361.9</ele>
        <time>2018-10-25T08:50:30.000Z</time>
      </trkpt>
      <trkpt lat="45.90988" lon="1.25771">
        <ele>361.9</ele>
        <time>2018-10-25T08:50:33.000Z</time>
      </trkpt>
      <trkpt lat="45.90978" lon="1.25769">
        <ele>362</ele>
        <time>2018-10-25T08:50:36.000Z</time>
      </trkpt>
      <trkpt lat="45.90968" lon="1.25768">
        <ele>362.2</ele>
        <time>2018-10-25T08:50:39.000Z</time>
      </trkpt>
      <trkpt lat="45.90959" lon="1.25765">
        <ele>362.5</ele>
        <time>2018-10-25T08:50:42.000Z</time>
      </trkpt>
      <trkpt lat="45.9095" lon="1.25764">
        <ele>362.9</ele>
        <time>2018-10-25T08:50:45.000Z</time>
      </trkpt>
      <trkpt lat="45.90941" lon="1.25762">
        <ele>363.2</ele>
        <time>2018-10-25T08:50:48.000Z</time>
      </trkpt>
      <trkpt lat="45.90935" lon="1.25758">
        <ele>363.6</ele>
        <time>2018-10-25T08:50:51.000Z</time>
      </trkpt>
      <trkpt lat="45.90927" lon="1.25758">
        <ele>363.9</ele>
        <time>2018-10-25T08:50:54.000Z</time>
      </trkpt>
      <trkpt lat="45.9092" lon="1.25769">
        <ele>364.1</ele>
        <time>2018-10-25T08:50:57.000Z</time>
      </trkpt>
      <trkpt lat="45.90915" lon="1.25783">
        <ele>364.1</ele>
        <time>2018-10-25T08:51:00.000Z</time>
      </trkpt>
      <trkpt lat="45.90908" lon="1.25796">
        <ele>364</ele>
        <time>2018-10-25T08:51:03.000Z</time>
      </trkpt>
      <trkpt lat="45.90902" lon="1.25809">
        <ele>363.8</ele>
        <time>2018-10-25T08:51:06.000Z</time>
      </trkpt>
      <trkpt lat="45.90895" lon="1.25822">
        <ele>363.5</ele>
        <time>2018-10-25T08:51:09.000Z</time>
      </trkpt>
      <trkpt lat="45.90888" lon="1.25835">
        <ele>363.1</ele>
        <time>2018-10-25T08:51:12.000Z</time>
      </trkpt>
      <trkpt lat="45.90882" lon="1.25848">
        <ele>362.7</ele>
        <time>2018-10-25T08:51:15.000Z</time>
      </trkpt>
      <trkpt lat="45.90878" lon="1.25861">
        <ele>362.3</ele>
        <time>2018-10-25T08:51:18.000Z</time>
      </trkpt>
      <trkpt lat="45.90874" lon="1.25869">
        <ele>362</ele>
        <time>2018-10-25T08:51:21.000Z</time>
      </trkpt>
      <trkpt lat="45.90868" lon="1.25867">
        <ele>361.8</ele>
        <time>2018-10-25T08:51:24.000Z</time>
      </trkpt>
      <trkpt lat="45.90863" lon="1.2586">
        <ele>361.7</ele>
        <time>2018-10-25T08:51:27.000Z</time>
      </trkpt>
      <trkpt lat="45.90861" lon="1.25856">
        <ele>361.8</ele>
        <time>2018-10-25T08:51:30.000Z</time>
      </trkpt>
      <trkpt lat="45.90862" lon="1.25853">
        <ele>361.9</ele>
        <time>2018-10-25T08:52:03.000Z</time>
      </trkpt>
      <trkpt lat="45.90863" lon="1.25846">
        <ele>362.2</ele>
        <time>2018-10-25T08:52:09.000Z</time>
      </trkpt>
      <trkpt lat="45.90864" lon="1.25846">
        <ele>362.2</ele>
        <time>2018-10-25T08:52:19.000Z</time>
      </trkpt>
      <trkpt lat="45.90862" lon="1.25846">
        <ele>362.3</ele>
        <time>2018-10-25T08:52:28.000Z</time>
      </trkpt>
      <trkpt lat="45.90861" lon="1.2585">
        <ele>362.3</ele>
        <time>2018-10-25T08:52:31.000Z</time>
      </trkpt>
      <trkpt lat="45.90864" lon="1.25846">
        <ele>362.3</ele>
        <time>2018-10-25T08:52:34.000Z</time>
      </trkpt>
      <trkpt lat="45.90867" lon="1.25841">
        <ele>362.3</ele>
        <time>2018-10-25T08:52:37.000Z</time>
      </trkpt>
      <trkpt lat="45.90868" lon="1.2584">
        <ele>362.3</ele>
        <time>2018-10-25T08:52:40.000Z</time>
      </trkpt>
      <trkpt lat="45.90865" lon="1.2584">
        <ele>362.4</ele>
        <time>2018-10-25T08:52:43.000Z</time>
      </trkpt>
      <trkpt lat="45.90862" lon="1.25843">
        <ele>362.4</ele>
        <time>2018-10-25T08:52:46.000Z</time>
      </trkpt>
      <trkpt lat="45.90855" lon="1.25842">
        <ele>362.4</ele>
        <time>2018-10-25T08:52:49.000Z</time>
      </trkpt>
      <trkpt lat="45.90858" lon="1.25834">
        <ele>362.5</ele>
        <time>2018-10-25T08:52:52.000Z</time>
      </trkpt>
      <trkpt lat="45.90862" lon="1.25834">
        <ele>362.5</ele>
        <time>2018-10-25T08:52:55.000Z</time>
      </trkpt>
      <trkpt lat="45.90866" lon="1.25842">
        <ele>362.5</ele>
        <time>2018-10-25T08:52:58.000Z</time>
      </trkpt>
      <trkpt lat="45.90869" lon="1.25848">
        <ele>362.5</ele>
        <time>2018-10-25T08:53:01.000Z</time>
      </trkpt>
      <trkpt lat="45.90868" lon="1.25843">
        <ele>362.4</ele>
        <time>2018-10-25T08:53:04.000Z</time>
      </trkpt>
      <trkpt lat="45.90869" lon="1.25844">
        <ele>362.4</ele>
        <time>2018-10-25T08:53:07.000Z</time>
      </trkpt>
      <trkpt lat="45.90868" lon="1.25841">
        <ele>362.3</ele>
        <time>2018-10-25T08:53:10.000Z</time>
      </trkpt>
      <trkpt lat="45.90866" lon="1.25839">
        <ele>362.3</ele>
        <time>2018-10-25T08:53:13.000Z</time>
      </trkpt>
      <trkpt lat="45.90868" lon="1.25838">
        <ele>362.4</ele>
        <time>2018-10-25T08:53:16.000Z</time>
      </trkpt>
      <trkpt lat="45.90862" lon="1.25846">
        <ele>362.4</ele>
        <time>2018-10-25T08:53:19.000Z</time>
      </trkpt>
      <trkpt lat="45.90858" lon="1.25852">
        <ele>362.4</ele>
        <time>2018-10-25T08:53:22.000Z</time>
      </trkpt>
      <trkpt lat="45.90858" lon="1.25862">
        <ele>362.3</ele>
        <time>2018-10-25T08:53:25.000Z</time>
      </trkpt>
      <trkpt lat="45.90858" lon="1.25838">
        <ele>362.3</ele>
        <time>2018-10-25T08:53:28.000Z</time>
      </trkpt>
      <trkpt lat="45.90859" lon="1.25841">
        <ele>362.4</ele>
        <time>2018-10-25T08:53:31.000Z</time>
      </trkpt>
      <trkpt lat="45.9086" lon="1.25798">
        <ele>362.7</ele>
        <time>2018-10-25T08:53:36.000Z</time>
      </trkpt>
      <trkpt lat="45.90865" lon="1.25781">
        <ele>363.1</ele>
        <time>2018-10-25T08:53:39.000Z</time>
      </trkpt>
      <trkpt lat="45.90869" lon="1.25771">
        <ele>363.7</ele>
        <time>2018-10-25T08:53:42.000Z</time>
      </trkpt>
      <trkpt lat="45.90867" lon="1.25798">
        <ele>363.9</ele>
        <time>2018-10-25T08:53:46.000Z</time>
      </trkpt>
      <trkpt lat="45.90867" lon="1.25814">
        <ele>364.1</ele>
        <time>2018-10-25T08:53:49.000Z</time>
      </trkpt>
      <trkpt lat="45.90867" lon="1.25824">
        <ele>363.9</ele>
        <time>2018-10-25T08:53:52.000Z</time>
      </trkpt>
      <trkpt lat="45.90866" lon="1.25831">
        <ele>363.5</ele>
        <time>2018-10-25T08:53:55.000Z</time>
      </trkpt>
      <trkpt lat="45.90864" lon="1.25836">
        <ele>363.1</ele>
        <time>2018-10-25T08:53:58.000Z</time>
      </trkpt>
      <trkpt lat="45.90862" lon="1.25837">
        <ele>362.8</ele>
        <time>2018-10-25T08:54:01.000Z</time>
      </trkpt>
      <trkpt lat="45.9086" lon="1.2584">
        <ele>362.7</ele>
        <time>2018-10-25T08:54:04.000Z</time>
      </trkpt>
      <trkpt lat="45.90859" lon="1.25837">
        <ele>362.6</ele>
        <time>2018-10-25T08:54:07.000Z</time>
      </trkpt>
      <trkpt lat="45.9086" lon="1.25838">
        <ele>362.6</ele>
        <time>2018-10-25T08:54:15.000Z</time>
      </trkpt>
      <trkpt lat="45.9086" lon="1.2584">
        <ele>362.6</ele>
        <time>2018-10-25T08:54:24.000Z</time>
      </trkpt>
      <trkpt lat="45.90861" lon="1.25839">
        <ele>362.6</ele>
        <time>2018-10-25T08:54:39.000Z</time>
      </trkpt>
      <trkpt lat="45.9086" lon="1.25847">
        <ele>362.5</ele>
        <time>2018-10-25T08:54:47.000Z</time>
      </trkpt>
      <trkpt lat="45.9086" lon="1.25857">
        <ele>362.4</ele>
        <time>2018-10-25T08:54:50.000Z</time>
      </trkpt>
      <trkpt lat="45.90857" lon="1.25863">
        <ele>362.3</ele>
        <time>2018-10-25T08:54:53.000Z</time>
      </trkpt>
      <trkpt lat="45.90855" lon="1.25863">
        <ele>362.2</ele>
        <time>2018-10-25T08:54:58.000Z</time>
      </trkpt>
      <trkpt lat="45.90851" lon="1.25864">
        <ele>362.2</ele>
        <time>2018-10-25T08:55:01.000Z</time>
      </trkpt>
      <trkpt lat="45.90845" lon="1.25858">
        <ele>362.2</ele>
        <time>2018-10-25T08:55:04.000Z</time>
      </trkpt>
      <trkpt lat="45.90839" lon="1.25848">
        <ele>362.3</ele>
        <time>2018-10-25T08:55:07.000Z</time>
      </trkpt>
      <trkpt lat="45.90833" lon="1.25841">
        <ele>362.5</ele>
        <time>2018-10-25T08:55:10.000Z</time>
      </trkpt>
      <trkpt lat="45.9083" lon="1.25838">
        <ele>362.6</ele>
        <time>2018-10-25T08:55:13.000Z</time>
      </trkpt>
      <trkpt lat="45.90828" lon="1.25837">
        <ele>362.8</ele>
        <time>2018-10-25T08:55:19.000Z</time>
      </trkpt>
      <trkpt lat="45.90827" lon="1.25836">
        <ele>362.9</ele>
        <time>2018-10-25T08:55:22.000Z</time>
      </trkpt>
      <trkpt lat="45.90828" lon="1.25836">
        <ele>362.9</ele>
        <time>2018-10-25T08:55:25.000Z</time>
      </trkpt>
      <trkpt lat="45.90831" lon="1.25835">
        <ele>363</ele>
        <time>2018-10-25T08:55:28.000Z</time>
      </trkpt>
      <trkpt lat="45.90833" lon="1.25838">
        <ele>363</ele>
        <time>2018-10-25T08:55:31.000Z</time>
      </trkpt>
      <trkpt lat="45.90832" lon="1.25839">
        <ele>363</ele>
        <time>2018-10-25T08:55:35.000Z</time>
      </trkpt>
      <trkpt lat="45.90831" lon="1.25837">
        <ele>363</ele>
        <time>2018-10-25T08:55:41.000Z</time>
      </trkpt>
      <trkpt lat="45.90841" lon="1.25842">
        <ele>362.9</ele>
        <time>2018-10-25T09:06:14.000Z</time>
      </trkpt>
      <trkpt lat="45.90839" lon="1.25842">
        <ele>362.9</ele>
        <time>2018-10-25T09:06:17.000Z</time>
      </trkpt>
      <trkpt lat="45.90841" lon="1.25844">
        <ele>362.8</ele>
        <time>2018-10-25T09:06:20.000Z</time>
      </trkpt>
      <trkpt lat="45.90845" lon="1.2585">
        <ele>362.8</ele>
        <time>2018-10-25T09:06:23.000Z</time>
      </trkpt>
      <trkpt lat="45.9085" lon="1.25859">
        <ele>362.6</ele>
        <time>2018-10-25T09:06:26.000Z</time>
      </trkpt>
      <trkpt lat="45.90854" lon="1.2587">
        <ele>362.5</ele>
        <time>2018-10-25T09:06:29.000Z</time>
      </trkpt>
      <trkpt lat="45.90856" lon="1.25877">
        <ele>362.3</ele>
        <time>2018-10-25T09:06:32.000Z</time>
      </trkpt>
      <trkpt lat="45.9086" lon="1.25888">
        <ele>362</ele>
        <time>2018-10-25T09:06:35.000Z</time>
      </trkpt>
      <trkpt lat="45.90865" lon="1.25905">
        <ele>361.7</ele>
        <time>2018-10-25T09:06:38.000Z</time>
      </trkpt>
      <trkpt lat="45.90866" lon="1.25925">
        <ele>361.3</ele>
        <time>2018-10-25T09:06:41.000Z</time>
      </trkpt>
      <trkpt lat="45.90862" lon="1.25946">
        <ele>360.9</ele>
        <time>2018-10-25T09:06:44.000Z</time>
      </trkpt>
      <trkpt lat="45.90855" lon="1.25968">
        <ele>360.6</ele>
        <time>2018-10-25T09:06:47.000Z</time>
      </trkpt>
      <trkpt lat="45.90849" lon="1.25991">
        <ele>360.4</ele>
        <time>2018-10-25T09:06:51.000Z</time>
      </trkpt>
      <trkpt lat="45.9084" lon="1.26014">
        <ele>360.3</ele>
        <time>2018-10-25T09:06:53.000Z</time>
      </trkpt>
      <trkpt lat="45.90832" lon="1.26037">
        <ele>360</ele>
        <time>2018-10-25T09:06:56.000Z</time>
      </trkpt>
      <trkpt lat="45.90826" lon="1.26064">
        <ele>359.6</ele>
        <time>2018-10-25T09:06:59.000Z</time>
      </trkpt>
      <trkpt lat="45.90825" lon="1.26093">
        <ele>358.8</ele>
        <time>2018-10-25T09:07:02.000Z</time>
      </trkpt>
      <trkpt lat="45.90826" lon="1.26122">
        <ele>357.9</ele>
        <time>2018-10-25T09:07:05.000Z</time>
      </trkpt>
      <trkpt lat="45.90828" lon="1.2615">
        <ele>357</ele>
        <time>2018-10-25T09:07:08.000Z</time>
      </trkpt>
      <trkpt lat="45.90832" lon="1.26181">
        <ele>356.1</ele>
        <time>2018-10-25T09:07:11.000Z</time>
      </trkpt>
      <trkpt lat="45.90836" lon="1.26211">
        <ele>355.2</ele>
        <time>2018-10-25T09:07:14.000Z</time>
      </trkpt>
      <trkpt lat="45.90843" lon="1.2624">
        <ele>354.3</ele>
        <time>2018-10-25T09:07:17.000Z</time>
      </trkpt>
      <trkpt lat="45.90854" lon="1.26263">
        <ele>353.5</ele>
        <time>2018-10-25T09:07:20.000Z</time>
      </trkpt>
      <trkpt lat="45.90857" lon="1.26289">
        <ele>352.8</ele>
        <time>2018-10-25T09:07:23.000Z</time>
      </trkpt>
      <trkpt lat="45.90861" lon="1.26314">
        <ele>352.3</ele>
        <time>2018-10-25T09:07:26.000Z</time>
      </trkpt>
      <trkpt lat="45.90857" lon="1.26342">
        <ele>352</ele>
        <time>2018-10-25T09:07:29.000Z</time>
      </trkpt>
      <trkpt lat="45.90851" lon="1.26368">
        <ele>352</ele>
        <time>2018-10-25T09:07:32.000Z</time>
      </trkpt>
      <trkpt lat="45.90843" lon="1.26394">
        <ele>352.2</ele>
        <time>2018-10-25T09:07:35.000Z</time>
      </trkpt>
      <trkpt lat="45.90834" lon="1.26419">
        <ele>352.4</ele>
        <time>2018-10-25T09:07:38.000Z</time>
      </trkpt>
      <trkpt lat="45.90827" lon="1.26442">
        <ele>352.3</ele>
        <time>2018-10-25T09:07:41.000Z</time>
      </trkpt>
      <trkpt lat="45.90817" lon="1.2647">
        <ele>352</ele>
        <time>2018-10-25T09:07:44.000Z</time>
      </trkpt>
      <trkpt lat="45.90806" lon="1.26496">
        <ele>351.3</ele>
        <time>2018-10-25T09:07:47.000Z</time>
      </trkpt>
      <trkpt lat="45.90789" lon="1.2652">
        <ele>350.3</ele>
        <time>2018-10-25T09:07:50.000Z</time>
      </trkpt>
      <trkpt lat="45.90769" lon="1.26538">
        <ele>349.1</ele>
        <time>2018-10-25T09:07:53.000Z</time>
      </trkpt>
      <trkpt lat="45.90749" lon="1.26553">
        <ele>347.9</ele>
        <time>2018-10-25T09:07:56.000Z</time>
      </trkpt>
      <trkpt lat="45.90731" lon="1.2657">
        <ele>347.3</ele>
        <time>2018-10-25T09:07:59.000Z</time>
      </trkpt>
      <trkpt lat="45.90714" lon="1.26584">
        <ele>347.1</ele>
        <time>2018-10-25T09:08:02.000Z</time>
      </trkpt>
      <trkpt lat="45.90696" lon="1.26597">
        <ele>347.1</ele>
        <time>2018-10-25T09:08:05.000Z</time>
      </trkpt>
      <trkpt lat="45.90679" lon="1.26611">
        <ele>347.4</ele>
        <time>2018-10-25T09:08:08.000Z</time>
      </trkpt>
      <trkpt lat="45.90661" lon="1.26625">
        <ele>347.8</ele>
        <time>2018-10-25T09:08:11.000Z</time>
      </trkpt>
      <trkpt lat="45.90641" lon="1.26642">
        <ele>347.7</ele>
        <time>2018-10-25T09:08:14.000Z</time>
      </trkpt>
      <trkpt lat="45.90623" lon="1.26658">
        <ele>347.2</ele>
        <time>2018-10-25T09:08:17.000Z</time>
      </trkpt>
      <trkpt lat="45.90604" lon="1.26678">
        <ele>346.5</ele>
        <time>2018-10-25T09:08:21.000Z</time>
      </trkpt>
      <trkpt lat="45.9059" lon="1.26703">
        <ele>345.6</ele>
        <time>2018-10-25T09:08:23.000Z</time>
      </trkpt>
      <trkpt lat="45.90583" lon="1.26728">
        <ele>344.6</ele>
        <time>2018-10-25T09:08:26.000Z</time>
      </trkpt>
      <trkpt lat="45.90583" lon="1.2676">
        <ele>343.9</ele>
        <time>2018-10-25T09:08:29.000Z</time>
      </trkpt>
      <trkpt lat="45.90591" lon="1.26791">
        <ele>343.2</ele>
        <time>2018-10-25T09:08:32.000Z</time>
      </trkpt>
      <trkpt lat="45.90601" lon="1.26822">
        <ele>342.7</ele>
        <time>2018-10-25T09:08:35.000Z</time>
      </trkpt>
      <trkpt lat="45.90612" lon="1.26857">
        <ele>342.1</ele>
        <time>2018-10-25T09:08:38.000Z</time>
      </trkpt>
      <trkpt lat="45.90622" lon="1.26887">
        <ele>341.3</ele>
        <time>2018-10-25T09:08:41.000Z</time>
      </trkpt>
      <trkpt lat="45.90634" lon="1.26916">
        <ele>340.4</ele>
        <time>2018-10-25T09:08:44.000Z</time>
      </trkpt>
      <trkpt lat="45.90644" lon="1.26943">
        <ele>339.5</ele>
        <time>2018-10-25T09:08:47.000Z</time>
      </trkpt>
      <trkpt lat="45.90652" lon="1.26966">
        <ele>338.5</ele>
        <time>2018-10-25T09:08:50.000Z</time>
      </trkpt>
      <trkpt lat="45.9066" lon="1.2699">
        <ele>337.6</ele>
        <time>2018-10-25T09:08:53.000Z</time>
      </trkpt>
      <trkpt lat="45.90668" lon="1.27014">
        <ele>337.2</ele>
        <time>2018-10-25T09:08:56.000Z</time>
      </trkpt>
      <trkpt lat="45.90673" lon="1.2703">
        <ele>337.3</ele>
        <time>2018-10-25T09:08:59.000Z</time>
      </trkpt>
      <trkpt lat="45.90679" lon="1.27046">
        <ele>337.9</ele>
        <time>2018-10-25T09:09:02.000Z</time>
      </trkpt>
      <trkpt lat="45.90683" lon="1.27058">
        <ele>338.8</ele>
        <time>2018-10-25T09:09:05.000Z</time>
      </trkpt>
      <trkpt lat="45.90688" lon="1.27074">
        <ele>340.1</ele>
        <time>2018-10-25T09:09:08.000Z</time>
      </trkpt>
      <trkpt lat="45.90691" lon="1.27089">
        <ele>341.5</ele>
        <time>2018-10-25T09:09:11.000Z</time>
      </trkpt>
      <trkpt lat="45.90694" lon="1.27103">
        <ele>342.7</ele>
        <time>2018-10-25T09:09:14.000Z</time>
      </trkpt>
      <trkpt lat="45.90699" lon="1.2712">
        <ele>343.9</ele>
        <time>2018-10-25T09:09:17.000Z</time>
      </trkpt>
      <trkpt lat="45.90705" lon="1.27136">
        <ele>345</ele>
        <time>2018-10-25T09:09:20.000Z</time>
      </trkpt>
      <trkpt lat="45.90711" lon="1.27152">
        <ele>346</ele>
        <time>2018-10-25T09:09:23.000Z</time>
      </trkpt>
      <trkpt lat="45.90716" lon="1.27167">
        <ele>347.1</ele>
        <time>2018-10-25T09:09:26.000Z</time>
      </trkpt>
      <trkpt lat="45.90722" lon="1.27184">
        <ele>347.9</ele>
        <time>2018-10-25T09:09:29.000Z</time>
      </trkpt>
      <trkpt lat="45.90726" lon="1.272">
        <ele>348.6</ele>
        <time>2018-10-25T09:09:32.000Z</time>
      </trkpt>
      <trkpt lat="45.90732" lon="1.27216">
        <ele>349.1</ele>
        <time>2018-10-25T09:09:35.000Z</time>
      </trkpt>
      <trkpt lat="45.90737" lon="1.27232">
        <ele>349.5</ele>
        <time>2018-10-25T09:09:38.000Z</time>
      </trkpt>
      <trkpt lat="45.90743" lon="1.27247">
        <ele>349.9</ele>
        <time>2018-10-25T09:09:41.000Z</time>
      </trkpt>
      <trkpt lat="45.90751" lon="1.27265">
        <ele>350.1</ele>
        <time>2018-10-25T09:09:44.000Z</time>
      </trkpt>
      <trkpt lat="45.90756" lon="1.27282">
        <ele>350.3</ele>
        <time>2018-10-25T09:09:47.000Z</time>
      </trkpt>
      <trkpt lat="45.9076" lon="1.27304">
        <ele>350.2</ele>
        <time>2018-10-25T09:09:50.000Z</time>
      </trkpt>
      <trkpt lat="45.90759" lon="1.27334">
        <ele>349.9</ele>
        <time>2018-10-25T09:09:53.000Z</time>
      </trkpt>
      <trkpt lat="45.90752" lon="1.27366">
        <ele>349.1</ele>
        <time>2018-10-25T09:09:56.000Z</time>
      </trkpt>
      <trkpt lat="45.90744" lon="1.27398">
        <ele>348.1</ele>
        <time>2018-10-25T09:09:59.000Z</time>
      </trkpt>
      <trkpt lat="45.90735" lon="1.2743">
        <ele>346.7</ele>
        <time>2018-10-25T09:10:02.000Z</time>
      </trkpt>
      <trkpt lat="45.90726" lon="1.27461">
        <ele>345.1</ele>
        <time>2018-10-25T09:10:05.000Z</time>
      </trkpt>
      <trkpt lat="45.90715" lon="1.27493">
        <ele>343.3</ele>
        <time>2018-10-25T09:10:08.000Z</time>
      </trkpt>
      <trkpt lat="45.90703" lon="1.27525">
        <ele>341.3</ele>
        <time>2018-10-25T09:10:11.000Z</time>
      </trkpt>
      <trkpt lat="45.90694" lon="1.27557">
        <ele>339.4</ele>
        <time>2018-10-25T09:10:14.000Z</time>
      </trkpt>
      <trkpt lat="45.90684" lon="1.27591">
        <ele>337.5</ele>
        <time>2018-10-25T09:10:17.000Z</time>
      </trkpt>
      <trkpt lat="45.90673" lon="1.27625">
        <ele>336</ele>
        <time>2018-10-25T09:10:20.000Z</time>
      </trkpt>
      <trkpt lat="45.90662" lon="1.27659">
        <ele>334.7</ele>
        <time>2018-10-25T09:10:23.000Z</time>
      </trkpt>
      <trkpt lat="45.90652" lon="1.2769">
        <ele>334</ele>
        <time>2018-10-25T09:10:26.000Z</time>
      </trkpt>
      <trkpt lat="45.90644" lon="1.27721">
        <ele>333.7</ele>
        <time>2018-10-25T09:10:29.000Z</time>
      </trkpt>
      <trkpt lat="45.90635" lon="1.2775">
        <ele>333.8</ele>
        <time>2018-10-25T09:10:32.000Z</time>
      </trkpt>
      <trkpt lat="45.90628" lon="1.27776">
        <ele>334</ele>
        <time>2018-10-25T09:10:35.000Z</time>
      </trkpt>
      <trkpt lat="45.90622" lon="1.278">
        <ele>334.3</ele>
        <time>2018-10-25T09:10:38.000Z</time>
      </trkpt>
      <trkpt lat="45.90615" lon="1.27823">
        <ele>334.6</ele>
        <time>2018-10-25T09:10:41.000Z</time>
      </trkpt>
      <trkpt lat="45.9061" lon="1.27845">
        <ele>334.7</ele>
        <time>2018-10-25T09:10:44.000Z</time>
      </trkpt>
      <trkpt lat="45.90603" lon="1.27865">
        <ele>334.7</ele>
        <time>2018-10-25T09:10:47.000Z</time>
      </trkpt>
      <trkpt lat="45.90596" lon="1.27888">
        <ele>334.8</ele>
        <time>2018-10-25T09:10:50.000Z</time>
      </trkpt>
      <trkpt lat="45.90586" lon="1.27908">
        <ele>335</ele>
        <time>2018-10-25T09:10:53.000Z</time>
      </trkpt>
      <trkpt lat="45.90578" lon="1.27925">
        <ele>335.2</ele>
        <time>2018-10-25T09:10:56.000Z</time>
      </trkpt>
      <trkpt lat="45.9057" lon="1.27945">
        <ele>335.3</ele>
        <time>2018-10-25T09:10:59.000Z</time>
      </trkpt>
      <trkpt lat="45.90562" lon="1.27964">
        <ele>335.2</ele>
        <time>2018-10-25T09:11:02.000Z</time>
      </trkpt>
      <trkpt lat="45.90552" lon="1.2798">
        <ele>335</ele>
        <time>2018-10-25T09:11:05.000Z</time>
      </trkpt>
      <trkpt lat="45.90541" lon="1.27999">
        <ele>334.6</ele>
        <time>2018-10-25T09:11:08.000Z</time>
      </trkpt>
      <trkpt lat="45.9053" lon="1.28017">
        <ele>334</ele>
        <time>2018-10-25T09:11:11.000Z</time>
      </trkpt>
      <trkpt lat="45.90521" lon="1.28032">
        <ele>333.6</ele>
        <time>2018-10-25T09:11:14.000Z</time>
      </trkpt>
      <trkpt lat="45.90513" lon="1.2805">
        <ele>333.2</ele>
        <time>2018-10-25T09:11:17.000Z</time>
      </trkpt>
      <trkpt lat="45.90505" lon="1.28066">
        <ele>333</ele>
        <time>2018-10-25T09:11:20.000Z</time>
      </trkpt>
      <trkpt lat="45.90499" lon="1.28086">
        <ele>332.9</ele>
        <time>2018-10-25T09:11:23.000Z</time>
      </trkpt>
      <trkpt lat="45.90493" lon="1.28109">
        <ele>333.1</ele>
        <time>2018-10-25T09:11:26.000Z</time>
      </trkpt>
      <trkpt lat="45.9049" lon="1.28131">
        <ele>333.4</ele>
        <time>2018-10-25T09:11:29.000Z</time>
      </trkpt>
      <trkpt lat="45.90485" lon="1.28154">
        <ele>333.8</ele>
        <time>2018-10-25T09:11:32.000Z</time>
      </trkpt>
      <trkpt lat="45.9048" lon="1.28175">
        <ele>334.4</ele>
        <time>2018-10-25T09:11:35.000Z</time>
      </trkpt>
      <trkpt lat="45.90475" lon="1.282">
        <ele>334.9</ele>
        <time>2018-10-25T09:11:38.000Z</time>
      </trkpt>
      <trkpt lat="45.90471" lon="1.2822">
        <ele>335.3</ele>
        <time>2018-10-25T09:11:41.000Z</time>
      </trkpt>
      <trkpt lat="45.90467" lon="1.28242">
        <ele>335.7</ele>
        <time>2018-10-25T09:11:44.000Z</time>
      </trkpt>
      <trkpt lat="45.90466" lon="1.28265">
        <ele>335.9</ele>
        <time>2018-10-25T09:11:47.000Z</time>
      </trkpt>
      <trkpt lat="45.90464" lon="1.28285">
        <ele>336</ele>
        <time>2018-10-25T09:11:50.000Z</time>
      </trkpt>
      <trkpt lat="45.90463" lon="1.28307">
        <ele>336.1</ele>
        <time>2018-10-25T09:11:53.000Z</time>
      </trkpt>
      <trkpt lat="45.90462" lon="1.2835">
        <ele>336.2</ele>
        <time>2018-10-25T09:11:59.000Z</time>
      </trkpt>
      <trkpt lat="45.9046" lon="1.28369">
        <ele>336.1</ele>
        <time>2018-10-25T09:12:02.000Z</time>
      </trkpt>
      <trkpt lat="45.90459" lon="1.28388">
        <ele>336</ele>
        <time>2018-10-25T09:12:05.000Z</time>
      </trkpt>
      <trkpt lat="45.90457" lon="1.28407">
        <ele>335.8</ele>
        <time>2018-10-25T09:12:08.000Z</time>
      </trkpt>
      <trkpt lat="45.90447" lon="1.28416">
        <ele>335.6</ele>
        <time>2018-10-25T09:12:11.000Z</time>
      </trkpt>
      <trkpt lat="45.90437" lon="1.28423">
        <ele>335.2</ele>
        <time>2018-10-25T09:12:14.000Z</time>
      </trkpt>
      <trkpt lat="45.90428" lon="1.28429">
        <ele>334.8</ele>
        <time>2018-10-25T09:12:17.000Z</time>
      </trkpt>
      <trkpt lat="45.90416" lon="1.28434">
        <ele>334.3</ele>
        <time>2018-10-25T09:12:20.000Z</time>
      </trkpt>
      <trkpt lat="45.90404" lon="1.2844">
        <ele>333.8</ele>
        <time>2018-10-25T09:12:23.000Z</time>
      </trkpt>
      <trkpt lat="45.90391" lon="1.28446">
        <ele>333.4</ele>
        <time>2018-10-25T09:12:26.000Z</time>
      </trkpt>
      <trkpt lat="45.90379" lon="1.28452">
        <ele>333</ele>
        <time>2018-10-25T09:12:29.000Z</time>
      </trkpt>
      <trkpt lat="45.90369" lon="1.28458">
        <ele>332.6</ele>
        <time>2018-10-25T09:12:32.000Z</time>
      </trkpt>
      <trkpt lat="45.90356" lon="1.28465">
        <ele>332.3</ele>
        <time>2018-10-25T09:12:35.000Z</time>
      </trkpt>
      <trkpt lat="45.90345" lon="1.28473">
        <ele>332</ele>
        <time>2018-10-25T09:12:38.000Z</time>
      </trkpt>
      <trkpt lat="45.90334" lon="1.28483">
        <ele>331.7</ele>
        <time>2018-10-25T09:12:44.000Z</time>
      </trkpt>
      <trkpt lat="45.90324" lon="1.28492">
        <ele>331.4</ele>
        <time>2018-10-25T09:12:45.000Z</time>
      </trkpt>
      <trkpt lat="45.90315" lon="1.28504">
        <ele>331.2</ele>
        <time>2018-10-25T09:12:47.000Z</time>
      </trkpt>
      <trkpt lat="45.90306" lon="1.28517">
        <ele>331</ele>
        <time>2018-10-25T09:12:50.000Z</time>
      </trkpt>
      <trkpt lat="45.90297" lon="1.2853">
        <ele>331</ele>
        <time>2018-10-25T09:12:53.000Z</time>
      </trkpt>
      <trkpt lat="45.90287" lon="1.28542">
        <ele>331</ele>
        <time>2018-10-25T09:12:56.000Z</time>
      </trkpt>
      <trkpt lat="45.90278" lon="1.28552">
        <ele>331.1</ele>
        <time>2018-10-25T09:12:59.000Z</time>
      </trkpt>
      <trkpt lat="45.90268" lon="1.28562">
        <ele>331.1</ele>
        <time>2018-10-25T09:13:02.000Z</time>
      </trkpt>
      <trkpt lat="45.90257" lon="1.28572">
        <ele>331.1</ele>
        <time>2018-10-25T09:13:05.000Z</time>
      </trkpt>
      <trkpt lat="45.90245" lon="1.28579">
        <ele>331</ele>
        <time>2018-10-25T09:13:08.000Z</time>
      </trkpt>
      <trkpt lat="45.90233" lon="1.28588">
        <ele>330.9</ele>
        <time>2018-10-25T09:13:11.000Z</time>
      </trkpt>
      <trkpt lat="45.90222" lon="1.28593">
        <ele>330.6</ele>
        <time>2018-10-25T09:13:14.000Z</time>
      </trkpt>
      <trkpt lat="45.90211" lon="1.28599">
        <ele>330.3</ele>
        <time>2018-10-25T09:13:17.000Z</time>
      </trkpt>
      <trkpt lat="45.902" lon="1.28605">
        <ele>329.9</ele>
        <time>2018-10-25T09:13:20.000Z</time>
      </trkpt>
      <trkpt lat="45.90189" lon="1.28612">
        <ele>329.5</ele>
        <time>2018-10-25T09:13:23.000Z</time>
      </trkpt>
      <trkpt lat="45.90179" lon="1.28617">
        <ele>329.2</ele>
        <time>2018-10-25T09:13:26.000Z</time>
      </trkpt>
      <trkpt lat="45.90168" lon="1.28625">
        <ele>329</ele>
        <time>2018-10-25T09:13:29.000Z</time>
      </trkpt>
      <trkpt lat="45.9016" lon="1.28634">
        <ele>328.8</ele>
        <time>2018-10-25T09:13:32.000Z</time>
      </trkpt>
      <trkpt lat="45.90152" lon="1.28646">
        <ele>328.7</ele>
        <time>2018-10-25T09:13:35.000Z</time>
      </trkpt>
      <trkpt lat="45.90146" lon="1.28659">
        <ele>328.7</ele>
        <time>2018-10-25T09:13:38.000Z</time>
      </trkpt>
      <trkpt lat="45.90139" lon="1.28672">
        <ele>328.8</ele>
        <time>2018-10-25T09:13:41.000Z</time>
      </trkpt>
      <trkpt lat="45.90133" lon="1.28686">
        <ele>329</ele>
        <time>2018-10-25T09:13:44.000Z</time>
      </trkpt>
      <trkpt lat="45.90126" lon="1.287">
        <ele>329.2</ele>
        <time>2018-10-25T09:13:47.000Z</time>
      </trkpt>
      <trkpt lat="45.9012" lon="1.28713">
        <ele>329.5</ele>
        <time>2018-10-25T09:13:50.000Z</time>
      </trkpt>
      <trkpt lat="45.90113" lon="1.28726">
        <ele>329.8</ele>
        <time>2018-10-25T09:13:54.000Z</time>
      </trkpt>
      <trkpt lat="45.90107" lon="1.28739">
        <ele>330.2</ele>
        <time>2018-10-25T09:13:56.000Z</time>
      </trkpt>
      <trkpt lat="45.901" lon="1.28751">
        <ele>330.7</ele>
        <time>2018-10-25T09:13:59.000Z</time>
      </trkpt>
      <trkpt lat="45.90094" lon="1.28765">
        <ele>331.1</ele>
        <time>2018-10-25T09:14:02.000Z</time>
      </trkpt>
      <trkpt lat="45.90087" lon="1.28777">
        <ele>331.3</ele>
        <time>2018-10-25T09:14:05.000Z</time>
      </trkpt>
      <trkpt lat="45.90079" lon="1.28791">
        <ele>331.3</ele>
        <time>2018-10-25T09:14:08.000Z</time>
      </trkpt>
      <trkpt lat="45.90071" lon="1.28806">
        <ele>331.1</ele>
        <time>2018-10-25T09:14:11.000Z</time>
      </trkpt>
      <trkpt lat="45.90063" lon="1.28822">
        <ele>330.6</ele>
        <time>2018-10-25T09:14:14.000Z</time>
      </trkpt>
      <trkpt lat="45.90055" lon="1.28838">
        <ele>330</ele>
        <time>2018-10-25T09:14:17.000Z</time>
      </trkpt>
      <trkpt lat="45.90047" lon="1.28855">
        <ele>329.2</ele>
        <time>2018-10-25T09:14:20.000Z</time>
      </trkpt>
      <trkpt lat="45.90039" lon="1.28872">
        <ele>328.4</ele>
        <time>2018-10-25T09:14:23.000Z</time>
      </trkpt>
      <trkpt lat="45.90028" lon="1.2889">
        <ele>327.5</ele>
        <time>2018-10-25T09:14:26.000Z</time>
      </trkpt>
      <trkpt lat="45.90015" lon="1.28906">
        <ele>326.5</ele>
        <time>2018-10-25T09:14:29.000Z</time>
      </trkpt>
      <trkpt lat="45.9" lon="1.2892">
        <ele>325.6</ele>
        <time>2018-10-25T09:14:32.000Z</time>
      </trkpt>
      <trkpt lat="45.89984" lon="1.28933">
        <ele>324.9</ele>
        <time>2018-10-25T09:14:35.000Z</time>
      </trkpt>
      <trkpt lat="45.89969" lon="1.28945">
        <ele>324.4</ele>
        <time>2018-10-25T09:14:38.000Z</time>
      </trkpt>
      <trkpt lat="45.89953" lon="1.28956">
        <ele>324</ele>
        <time>2018-10-25T09:14:41.000Z</time>
      </trkpt>
      <trkpt lat="45.89936" lon="1.28969">
        <ele>323.8</ele>
        <time>2018-10-25T09:14:44.000Z</time>
      </trkpt>
      <trkpt lat="45.89919" lon="1.2898">
        <ele>323.9</ele>
        <time>2018-10-25T09:14:47.000Z</time>
      </trkpt>
      <trkpt lat="45.89905" lon="1.29001">
        <ele>323.8</ele>
        <time>2018-10-25T09:14:50.000Z</time>
      </trkpt>
      <trkpt lat="45.89894" lon="1.29021">
        <ele>323.7</ele>
        <time>2018-10-25T09:14:53.000Z</time>
      </trkpt>
      <trkpt lat="45.89882" lon="1.2904">
        <ele>323.6</ele>
        <time>2018-10-25T09:14:56.000Z</time>
      </trkpt>
      <trkpt lat="45.89869" lon="1.29059">
        <ele>323.4</ele>
        <time>2018-10-25T09:14:59.000Z</time>
      </trkpt>
      <trkpt lat="45.89857" lon="1.29072">
        <ele>323.2</ele>
        <time>2018-10-25T09:15:02.000Z</time>
      </trkpt>
      <trkpt lat="45.89843" lon="1.29084">
        <ele>323.2</ele>
        <time>2018-10-25T09:15:05.000Z</time>
      </trkpt>
      <trkpt lat="45.89828" lon="1.29093">
        <ele>323.1</ele>
        <time>2018-10-25T09:15:08.000Z</time>
      </trkpt>
      <trkpt lat="45.89815" lon="1.291">
        <ele>323</ele>
        <time>2018-10-25T09:15:11.000Z</time>
      </trkpt>
      <trkpt lat="45.89801" lon="1.29101">
        <ele>322.9</ele>
        <time>2018-10-25T09:15:14.000Z</time>
      </trkpt>
      <trkpt lat="45.89788" lon="1.29101">
        <ele>322.8</ele>
        <time>2018-10-25T09:15:17.000Z</time>
      </trkpt>
      <trkpt lat="45.89774" lon="1.29096">
        <ele>322.6</ele>
        <time>2018-10-25T09:15:20.000Z</time>
      </trkpt>
      <trkpt lat="45.89763" lon="1.2909">
        <ele>322.5</ele>
        <time>2018-10-25T09:15:23.000Z</time>
      </trkpt>
      <trkpt lat="45.89753" lon="1.29085">
        <ele>322.4</ele>
        <time>2018-10-25T09:15:26.000Z</time>
      </trkpt>
      <trkpt lat="45.89743" lon="1.2908">
        <ele>322.3</ele>
        <time>2018-10-25T09:15:29.000Z</time>
      </trkpt>
      <trkpt lat="45.89732" lon="1.29077">
        <ele>322.3</ele>
        <time>2018-10-25T09:15:32.000Z</time>
      </trkpt>
      <trkpt lat="45.89723" lon="1.29074">
        <ele>322.4</ele>
        <time>2018-10-25T09:15:35.000Z</time>
      </trkpt>
      <trkpt lat="45.89714" lon="1.29069">
        <ele>322.6</ele>
        <time>2018-10-25T09:15:38.000Z</time>
      </trkpt>
      <trkpt lat="45.89705" lon="1.29067">
        <ele>322.8</ele>
        <time>2018-10-25T09:15:41.000Z</time>
      </trkpt>
      <trkpt lat="45.89698" lon="1.29063">
        <ele>323.1</ele>
        <time>2018-10-25T09:15:44.000Z</time>
      </trkpt>
      <trkpt lat="45.89688" lon="1.29061">
        <ele>323.4</ele>
        <time>2018-10-25T09:15:47.000Z</time>
      </trkpt>
      <trkpt lat="45.89678" lon="1.29059">
        <ele>323.7</ele>
        <time>2018-10-25T09:15:50.000Z</time>
      </trkpt>
      <trkpt lat="45.89669" lon="1.29057">
        <ele>324</ele>
        <time>2018-10-25T09:15:53.000Z</time>
      </trkpt>
      <trkpt lat="45.89659" lon="1.29055">
        <ele>324.3</ele>
        <time>2018-10-25T09:15:56.000Z</time>
      </trkpt>
      <trkpt lat="45.89648" lon="1.2905">
        <ele>324.8</ele>
        <time>2018-10-25T09:15:59.000Z</time>
      </trkpt>
      <trkpt lat="45.89639" lon="1.29045">
        <ele>325.3</ele>
        <time>2018-10-25T09:16:02.000Z</time>
      </trkpt>
      <trkpt lat="45.8963" lon="1.2904">
        <ele>325.9</ele>
        <time>2018-10-25T09:16:05.000Z</time>
      </trkpt>
      <trkpt lat="45.8962" lon="1.29035">
        <ele>326.5</ele>
        <time>2018-10-25T09:16:08.000Z</time>
      </trkpt>
      <trkpt lat="45.8961" lon="1.2903">
        <ele>327.2</ele>
        <time>2018-10-25T09:16:11.000Z</time>
      </trkpt>
      <trkpt lat="45.89601" lon="1.29026">
        <ele>327.8</ele>
        <time>2018-10-25T09:16:14.000Z</time>
      </trkpt>
      <trkpt lat="45.89593" lon="1.29022">
        <ele>328.4</ele>
        <time>2018-10-25T09:16:17.000Z</time>
      </trkpt>
      <trkpt lat="45.89584" lon="1.29018">
        <ele>329</ele>
        <time>2018-10-25T09:16:20.000Z</time>
      </trkpt>
      <trkpt lat="45.89576" lon="1.29014">
        <ele>329.5</ele>
        <time>2018-10-25T09:16:23.000Z</time>
      </trkpt>
      <trkpt lat="45.89568" lon="1.29009">
        <ele>330</ele>
        <time>2018-10-25T09:16:26.000Z</time>
      </trkpt>
      <trkpt lat="45.89557" lon="1.29004">
        <ele>330.5</ele>
        <time>2018-10-25T09:16:29.000Z</time>
      </trkpt>
      <trkpt lat="45.89548" lon="1.28999">
        <ele>330.9</ele>
        <time>2018-10-25T09:16:32.000Z</time>
      </trkpt>
      <trkpt lat="45.89537" lon="1.28995">
        <ele>331.2</ele>
        <time>2018-10-25T09:16:35.000Z</time>
      </trkpt>
      <trkpt lat="45.89527" lon="1.28991">
        <ele>331.5</ele>
        <time>2018-10-25T09:16:38.000Z</time>
      </trkpt>
      <trkpt lat="45.89518" lon="1.28988">
        <ele>331.8</ele>
        <time>2018-10-25T09:16:41.000Z</time>
      </trkpt>
      <trkpt lat="45.89508" lon="1.28985">
        <ele>332</ele>
        <time>2018-10-25T09:16:44.000Z</time>
      </trkpt>
      <trkpt lat="45.89498" lon="1.2898">
        <ele>332.2</ele>
        <time>2018-10-25T09:16:47.000Z</time>
      </trkpt>
      <trkpt lat="45.89486" lon="1.28978">
        <ele>332.2</ele>
        <time>2018-10-25T09:16:50.000Z</time>
      </trkpt>
      <trkpt lat="45.89478" lon="1.28978">
        <ele>332.1</ele>
        <time>2018-10-25T09:16:53.000Z</time>
      </trkpt>
      <trkpt lat="45.89471" lon="1.28977">
        <ele>332</ele>
        <time>2018-10-25T09:16:56.000Z</time>
      </trkpt>
      <trkpt lat="45.89465" lon="1.28972">
        <ele>331.7</ele>
        <time>2018-10-25T09:16:59.000Z</time>
      </trkpt>
      <trkpt lat="45.89455" lon="1.28957">
        <ele>331.3</ele>
        <time>2018-10-25T09:17:02.000Z</time>
      </trkpt>
      <trkpt lat="45.89443" lon="1.28935">
        <ele>330.7</ele>
        <time>2018-10-25T09:17:05.000Z</time>
      </trkpt>
      <trkpt lat="45.89442" lon="1.28913">
        <ele>330</ele>
        <time>2018-10-25T09:17:07.000Z</time>
      </trkpt>
      <trkpt lat="45.89443" lon="1.28872">
        <ele>328</ele>
        <time>2018-10-25T09:17:11.000Z</time>
      </trkpt>
      <trkpt lat="45.89444" lon="1.28853">
        <ele>326.9</ele>
        <time>2018-10-25T09:17:13.000Z</time>
      </trkpt>
      <trkpt lat="45.8944" lon="1.28825">
        <ele>324.8</ele>
        <time>2018-10-25T09:17:17.000Z</time>
      </trkpt>
      <trkpt lat="45.89431" lon="1.2882">
        <ele>323.9</ele>
        <time>2018-10-25T09:17:19.000Z</time>
      </trkpt>
      <trkpt lat="45.89421" lon="1.28819">
        <ele>323.4</ele>
        <time>2018-10-25T09:17:21.000Z</time>
      </trkpt>
      <trkpt lat="45.89413" lon="1.28823">
        <ele>323.2</ele>
        <time>2018-10-25T09:17:23.000Z</time>
      </trkpt>
      <trkpt lat="45.89406" lon="1.28827">
        <ele>323</ele>
        <time>2018-10-25T09:17:25.000Z</time>
      </trkpt>
      <trkpt lat="45.89399" lon="1.28827">
        <ele>323</ele>
        <time>2018-10-25T09:17:27.000Z</time>
      </trkpt>
      <trkpt lat="45.89392" lon="1.28826">
        <ele>322.8</ele>
        <time>2018-10-25T09:17:29.000Z</time>
      </trkpt>
      <trkpt lat="45.89385" lon="1.28823">
        <ele>322.5</ele>
        <time>2018-10-25T09:17:31.000Z</time>
      </trkpt>
      <trkpt lat="45.89377" lon="1.28821">
        <ele>322.1</ele>
        <time>2018-10-25T09:17:33.000Z</time>
      </trkpt>
      <trkpt lat="45.89368" lon="1.28819">
        <ele>321.6</ele>
        <time>2018-10-25T09:17:35.000Z</time>
      </trkpt>
      <trkpt lat="45.89359" lon="1.28816">
        <ele>321.1</ele>
        <time>2018-10-25T09:17:37.000Z</time>
      </trkpt>
      <trkpt lat="45.8935" lon="1.28815">
        <ele>320.6</ele>
        <time>2018-10-25T09:17:39.000Z</time>
      </trkpt>
      <trkpt lat="45.89342" lon="1.28814">
        <ele>320.1</ele>
        <time>2018-10-25T09:17:41.000Z</time>
      </trkpt>
      <trkpt lat="45.89335" lon="1.28814">
        <ele>319.7</ele>
        <time>2018-10-25T09:17:45.000Z</time>
      </trkpt>
      <trkpt lat="45.89328" lon="1.28815">
        <ele>319.3</ele>
        <time>2018-10-25T09:17:45.000Z</time>
      </trkpt>
      <trkpt lat="45.89323" lon="1.28819">
        <ele>319</ele>
        <time>2018-10-25T09:17:47.000Z</time>
      </trkpt>
      <trkpt lat="45.89322" lon="1.28828">
        <ele>318.9</ele>
        <time>2018-10-25T09:17:49.000Z</time>
      </trkpt>
      <trkpt lat="45.8932" lon="1.28837">
        <ele>318.9</ele>
        <time>2018-10-25T09:17:51.000Z</time>
      </trkpt>
      <trkpt lat="45.89317" lon="1.2884">
        <ele>319</ele>
        <time>2018-10-25T09:17:53.000Z</time>
      </trkpt>
      <trkpt lat="45.89314" lon="1.28839">
        <ele>319.1</ele>
        <time>2018-10-25T09:17:55.000Z</time>
      </trkpt>
      <trkpt lat="45.89311" lon="1.28838">
        <ele>319.2</ele>
        <time>2018-10-25T09:17:57.000Z</time>
      </trkpt>
      <trkpt lat="45.89308" lon="1.28838">
        <ele>319.3</ele>
        <time>2018-10-25T09:17:59.000Z</time>
      </trkpt>
      <trkpt lat="45.89304" lon="1.28837">
        <ele>319.3</ele>
        <time>2018-10-25T09:18:01.000Z</time>
      </trkpt>
      <trkpt lat="45.89298" lon="1.28835">
        <ele>319.2</ele>
        <time>2018-10-25T09:18:03.000Z</time>
      </trkpt>
      <trkpt lat="45.89291" lon="1.28833">
        <ele>319.2</ele>
        <time>2018-10-25T09:18:05.000Z</time>
      </trkpt>
      <trkpt lat="45.89285" lon="1.28831">
        <ele>319.1</ele>
        <time>2018-10-25T09:18:07.000Z</time>
      </trkpt>
      <trkpt lat="45.89275" lon="1.28827">
        <ele>319</ele>
        <time>2018-10-25T09:18:10.000Z</time>
      </trkpt>
      <trkpt lat="45.89263" lon="1.28821">
        <ele>318.9</ele>
        <time>2018-10-25T09:18:13.000Z</time>
      </trkpt>
      <trkpt lat="45.89251" lon="1.28815">
        <ele>318.8</ele>
        <time>2018-10-25T09:18:16.000Z</time>
      </trkpt>
      <trkpt lat="45.8924" lon="1.28807">
        <ele>318.7</ele>
        <time>2018-10-25T09:18:19.000Z</time>
      </trkpt>
      <trkpt lat="45.89231" lon="1.28797">
        <ele>318.5</ele>
        <time>2018-10-25T09:18:22.000Z</time>
      </trkpt>
      <trkpt lat="45.89222" lon="1.28786">
        <ele>318.2</ele>
        <time>2018-10-25T09:18:25.000Z</time>
      </trkpt>
      <trkpt lat="45.89214" lon="1.28774">
        <ele>317.9</ele>
        <time>2018-10-25T09:18:28.000Z</time>
      </trkpt>
      <trkpt lat="45.89208" lon="1.28763">
        <ele>317.5</ele>
        <time>2018-10-25T09:18:31.000Z</time>
      </trkpt>
      <trkpt lat="45.89205" lon="1.28751">
        <ele>317.2</ele>
        <time>2018-10-25T09:18:34.000Z</time>
      </trkpt>
      <trkpt lat="45.89204" lon="1.28737">
        <ele>316.9</ele>
        <time>2018-10-25T09:18:37.000Z</time>
      </trkpt>
      <trkpt lat="45.89203" lon="1.28724">
        <ele>316.8</ele>
        <time>2018-10-25T09:18:40.000Z</time>
      </trkpt>
      <trkpt lat="45.89201" lon="1.28713">
        <ele>316.8</ele>
        <time>2018-10-25T09:18:43.000Z</time>
      </trkpt>
      <trkpt lat="45.89198" lon="1.28708">
        <ele>316.9</ele>
        <time>2018-10-25T09:18:46.000Z</time>
      </trkpt>
      <trkpt lat="45.89191" lon="1.28703">
        <ele>317.1</ele>
        <time>2018-10-25T09:18:49.000Z</time>
      </trkpt>
      <trkpt lat="45.89183" lon="1.28701">
        <ele>317.3</ele>
        <time>2018-10-25T09:18:52.000Z</time>
      </trkpt>
      <trkpt lat="45.89178" lon="1.287">
        <ele>317.5</ele>
        <time>2018-10-25T09:18:55.000Z</time>
      </trkpt>
      <trkpt lat="45.89175" lon="1.28699">
        <ele>317.6</ele>
        <time>2018-10-25T09:18:58.000Z</time>
      </trkpt>
      <trkpt lat="45.89167" lon="1.28695">
        <ele>317.7</ele>
        <time>2018-10-25T09:19:01.000Z</time>
      </trkpt>
      <trkpt lat="45.89154" lon="1.28693">
        <ele>317.7</ele>
        <time>2018-10-25T09:19:07.000Z</time>
      </trkpt>
      <trkpt lat="45.89149" lon="1.28698">
        <ele>317.6</ele>
        <time>2018-10-25T09:19:10.000Z</time>
      </trkpt>
      <trkpt lat="45.89138" lon="1.28699">
        <ele>317.4</ele>
        <time>2018-10-25T09:19:13.000Z</time>
      </trkpt>
      <trkpt lat="45.89127" lon="1.28699">
        <ele>317.2</ele>
        <time>2018-10-25T09:19:16.000Z</time>
      </trkpt>
      <trkpt lat="45.89116" lon="1.28697">
        <ele>316.7</ele>
        <time>2018-10-25T09:19:19.000Z</time>
      </trkpt>
      <trkpt lat="45.89105" lon="1.28698">
        <ele>316.3</ele>
        <time>2018-10-25T09:19:22.000Z</time>
      </trkpt>
      <trkpt lat="45.89096" lon="1.28699">
        <ele>315.9</ele>
        <time>2018-10-25T09:19:25.000Z</time>
      </trkpt>
      <trkpt lat="45.89086" lon="1.287">
        <ele>315.5</ele>
        <time>2018-10-25T09:19:28.000Z</time>
      </trkpt>
      <trkpt lat="45.89075" lon="1.28698">
        <ele>315.2</ele>
        <time>2018-10-25T09:19:31.000Z</time>
      </trkpt>
      <trkpt lat="45.89066" lon="1.28693">
        <ele>315</ele>
        <time>2018-10-25T09:19:34.000Z</time>
      </trkpt>
      <trkpt lat="45.89058" lon="1.28686">
        <ele>314.9</ele>
        <time>2018-10-25T09:19:37.000Z</time>
      </trkpt>
      <trkpt lat="45.89046" lon="1.28683">
        <ele>315</ele>
        <time>2018-10-25T09:19:40.000Z</time>
      </trkpt>
      <trkpt lat="45.89034" lon="1.28684">
        <ele>315.1</ele>
        <time>2018-10-25T09:19:43.000Z</time>
      </trkpt>
      <trkpt lat="45.89021" lon="1.28686">
        <ele>315.3</ele>
        <time>2018-10-25T09:19:46.000Z</time>
      </trkpt>
      <trkpt lat="45.89007" lon="1.28687">
        <ele>315.5</ele>
        <time>2018-10-25T09:19:49.000Z</time>
      </trkpt>
      <trkpt lat="45.88994" lon="1.28685">
        <ele>315.7</ele>
        <time>2018-10-25T09:19:52.000Z</time>
      </trkpt>
      <trkpt lat="45.88982" lon="1.28681">
        <ele>315.7</ele>
        <time>2018-10-25T09:19:55.000Z</time>
      </trkpt>
      <trkpt lat="45.88972" lon="1.28668">
        <ele>315.7</ele>
        <time>2018-10-25T09:19:58.000Z</time>
      </trkpt>
      <trkpt lat="45.88961" lon="1.28657">
        <ele>315.7</ele>
        <time>2018-10-25T09:20:01.000Z</time>
      </trkpt>
      <trkpt lat="45.88949" lon="1.28644">
        <ele>315.7</ele>
        <time>2018-10-25T09:20:04.000Z</time>
      </trkpt>
      <trkpt lat="45.88937" lon="1.28632">
        <ele>315.7</ele>
        <time>2018-10-25T09:20:07.000Z</time>
      </trkpt>
      <trkpt lat="45.88926" lon="1.28618">
        <ele>315.8</ele>
        <time>2018-10-25T09:20:10.000Z</time>
      </trkpt>
      <trkpt lat="45.88917" lon="1.28605">
        <ele>316</ele>
        <time>2018-10-25T09:20:13.000Z</time>
      </trkpt>
      <trkpt lat="45.88909" lon="1.28593">
        <ele>316.2</ele>
        <time>2018-10-25T09:20:16.000Z</time>
      </trkpt>
      <trkpt lat="45.88902" lon="1.28583">
        <ele>316.4</ele>
        <time>2018-10-25T09:20:19.000Z</time>
      </trkpt>
      <trkpt lat="45.88897" lon="1.28581">
        <ele>316.7</ele>
        <time>2018-10-25T09:20:22.000Z</time>
      </trkpt>
      <trkpt lat="45.88895" lon="1.2858">
        <ele>316.9</ele>
        <time>2018-10-25T09:20:25.000Z</time>
      </trkpt>
      <trkpt lat="45.88888" lon="1.2858">
        <ele>317.1</ele>
        <time>2018-10-25T09:20:30.000Z</time>
      </trkpt>
      <trkpt lat="45.88874" lon="1.28582">
        <ele>317.2</ele>
        <time>2018-10-25T09:20:33.000Z</time>
      </trkpt>
      <trkpt lat="45.88864" lon="1.28593">
        <ele>317.1</ele>
        <time>2018-10-25T09:20:36.000Z</time>
      </trkpt>
      <trkpt lat="45.88858" lon="1.28595">
        <ele>317.1</ele>
        <time>2018-10-25T09:20:39.000Z</time>
      </trkpt>
      <trkpt lat="45.88856" lon="1.28585">
        <ele>317</ele>
        <time>2018-10-25T09:20:42.000Z</time>
      </trkpt>
      <trkpt lat="45.88851" lon="1.28571">
        <ele>317.1</ele>
        <time>2018-10-25T09:20:45.000Z</time>
      </trkpt>
      <trkpt lat="45.88836" lon="1.28567">
        <ele>317.2</ele>
        <time>2018-10-25T09:20:48.000Z</time>
      </trkpt>
      <trkpt lat="45.88821" lon="1.28565">
        <ele>317.3</ele>
        <time>2018-10-25T09:20:51.000Z</time>
      </trkpt>
      <trkpt lat="45.88808" lon="1.28561">
        <ele>317.4</ele>
        <time>2018-10-25T09:20:54.000Z</time>
      </trkpt>
      <trkpt lat="45.88793" lon="1.28559">
        <ele>317.4</ele>
        <time>2018-10-25T09:20:57.000Z</time>
      </trkpt>
      <trkpt lat="45.88776" lon="1.28552">
        <ele>317.3</ele>
        <time>2018-10-25T09:21:00.000Z</time>
      </trkpt>
      <trkpt lat="45.88761" lon="1.28546">
        <ele>317.1</ele>
        <time>2018-10-25T09:21:03.000Z</time>
      </trkpt>
      <trkpt lat="45.88747" lon="1.28544">
        <ele>316.9</ele>
        <time>2018-10-25T09:21:06.000Z</time>
      </trkpt>
      <trkpt lat="45.88731" lon="1.28537">
        <ele>316.8</ele>
        <time>2018-10-25T09:21:09.000Z</time>
      </trkpt>
      <trkpt lat="45.88714" lon="1.28528">
        <ele>316.9</ele>
        <time>2018-10-25T09:21:12.000Z</time>
      </trkpt>
      <trkpt lat="45.88696" lon="1.28518">
        <ele>317</ele>
        <time>2018-10-25T09:21:15.000Z</time>
      </trkpt>
      <trkpt lat="45.88683" lon="1.28512">
        <ele>317.2</ele>
        <time>2018-10-25T09:21:18.000Z</time>
      </trkpt>
      <trkpt lat="45.88667" lon="1.28498">
        <ele>317.5</ele>
        <time>2018-10-25T09:21:21.000Z</time>
      </trkpt>
      <trkpt lat="45.88655" lon="1.28486">
        <ele>317.7</ele>
        <time>2018-10-25T09:21:24.000Z</time>
      </trkpt>
      <trkpt lat="45.88642" lon="1.2848">
        <ele>317.7</ele>
        <time>2018-10-25T09:21:27.000Z</time>
      </trkpt>
      <trkpt lat="45.88629" lon="1.2847">
        <ele>317.6</ele>
        <time>2018-10-25T09:21:30.000Z</time>
      </trkpt>
      <trkpt lat="45.88621" lon="1.28458">
        <ele>317.4</ele>
        <time>2018-10-25T09:21:33.000Z</time>
      </trkpt>
      <trkpt lat="45.8861" lon="1.28446">
        <ele>317.2</ele>
        <time>2018-10-25T09:21:36.000Z</time>
      </trkpt>
      <trkpt lat="45.88596" lon="1.2843">
        <ele>316.9</ele>
        <time>2018-10-25T09:21:39.000Z</time>
      </trkpt>
      <trkpt lat="45.88583" lon="1.28416">
        <ele>316.6</ele>
        <time>2018-10-25T09:21:42.000Z</time>
      </trkpt>
      <trkpt lat="45.8857" lon="1.28405">
        <ele>316.5</ele>
        <time>2018-10-25T09:21:45.000Z</time>
      </trkpt>
      <trkpt lat="45.88558" lon="1.28397">
        <ele>316.4</ele>
        <time>2018-10-25T09:21:48.000Z</time>
      </trkpt>
      <trkpt lat="45.88546" lon="1.28383">
        <ele>316.5</ele>
        <time>2018-10-25T09:21:51.000Z</time>
      </trkpt>
      <trkpt lat="45.88533" lon="1.28368">
        <ele>316.8</ele>
        <time>2018-10-25T09:21:54.000Z</time>
      </trkpt>
      <trkpt lat="45.88521" lon="1.28352">
        <ele>317.1</ele>
        <time>2018-10-25T09:21:57.000Z</time>
      </trkpt>
      <trkpt lat="45.88508" lon="1.28336">
        <ele>317.4</ele>
        <time>2018-10-25T09:22:00.000Z</time>
      </trkpt>
      <trkpt lat="45.88495" lon="1.2832">
        <ele>317.6</ele>
        <time>2018-10-25T09:22:03.000Z</time>
      </trkpt>
      <trkpt lat="45.88483" lon="1.28302">
        <ele>317.7</ele>
        <time>2018-10-25T09:22:06.000Z</time>
      </trkpt>
      <trkpt lat="45.88472" lon="1.28286">
        <ele>317.7</ele>
        <time>2018-10-25T09:22:09.000Z</time>
      </trkpt>
      <trkpt lat="45.88463" lon="1.28269">
        <ele>317.7</ele>
        <time>2018-10-25T09:22:12.000Z</time>
      </trkpt>
      <trkpt lat="45.88455" lon="1.28256">
        <ele>317.6</ele>
        <time>2018-10-25T09:22:15.000Z</time>
      </trkpt>
      <trkpt lat="45.88451" lon="1.28247">
        <ele>317.5</ele>
        <time>2018-10-25T09:22:18.000Z</time>
      </trkpt>
      <trkpt lat="45.88446" lon="1.28244">
        <ele>317.4</ele>
        <time>2018-10-25T09:22:21.000Z</time>
      </trkpt>
      <trkpt lat="45.88442" lon="1.2824">
        <ele>317.4</ele>
        <time>2018-10-25T09:22:24.000Z</time>
      </trkpt>
      <trkpt lat="45.88436" lon="1.28233">
        <ele>317.4</ele>
        <time>2018-10-25T09:22:27.000Z</time>
      </trkpt>
      <trkpt lat="45.88431" lon="1.2823">
        <ele>317.4</ele>
        <time>2018-10-25T09:22:30.000Z</time>
      </trkpt>
      <trkpt lat="45.88429" lon="1.28227">
        <ele>317.3</ele>
        <time>2018-10-25T09:22:40.000Z</time>
      </trkpt>
      <trkpt lat="45.88423" lon="1.28229">
        <ele>317.3</ele>
        <time>2018-10-25T09:22:45.000Z</time>
      </trkpt>
      <trkpt lat="45.88413" lon="1.28235">
        <ele>317.3</ele>
        <time>2018-10-25T09:22:46.000Z</time>
      </trkpt>
      <trkpt lat="45.88404" lon="1.28236">
        <ele>317.3</ele>
        <time>2018-10-25T09:22:49.000Z</time>
      </trkpt>
      <trkpt lat="45.88393" lon="1.28243">
        <ele>317.2</ele>
        <time>2018-10-25T09:22:52.000Z</time>
      </trkpt>
      <trkpt lat="45.88384" lon="1.28257">
        <ele>317.1</ele>
        <time>2018-10-25T09:22:55.000Z</time>
      </trkpt>
      <trkpt lat="45.88379" lon="1.28267">
        <ele>317</ele>
        <time>2018-10-25T09:22:58.000Z</time>
      </trkpt>
      <trkpt lat="45.88371" lon="1.28279">
        <ele>316.9</ele>
        <time>2018-10-25T09:23:01.000Z</time>
      </trkpt>
      <trkpt lat="45.88364" lon="1.28288">
        <ele>316.8</ele>
        <time>2018-10-25T09:23:04.000Z</time>
      </trkpt>
      <trkpt lat="45.88357" lon="1.28299">
        <ele>316.7</ele>
        <time>2018-10-25T09:23:07.000Z</time>
      </trkpt>
      <trkpt lat="45.8835" lon="1.28306">
        <ele>316.5</ele>
        <time>2018-10-25T09:23:10.000Z</time>
      </trkpt>
      <trkpt lat="45.88343" lon="1.28296">
        <ele>316.5</ele>
        <time>2018-10-25T09:23:13.000Z</time>
      </trkpt>
      <trkpt lat="45.88337" lon="1.28286">
        <ele>316.5</ele>
        <time>2018-10-25T09:23:16.000Z</time>
      </trkpt>
      <trkpt lat="45.8833" lon="1.28273">
        <ele>316.5</ele>
        <time>2018-10-25T09:23:19.000Z</time>
      </trkpt>
      <trkpt lat="45.88323" lon="1.28261">
        <ele>316.6</ele>
        <time>2018-10-25T09:23:22.000Z</time>
      </trkpt>
      <trkpt lat="45.88315" lon="1.2825">
        <ele>316.7</ele>
        <time>2018-10-25T09:23:25.000Z</time>
      </trkpt>
      <trkpt lat="45.88305" lon="1.28242">
        <ele>316.9</ele>
        <time>2018-10-25T09:23:28.000Z</time>
      </trkpt>
      <trkpt lat="45.88297" lon="1.28233">
        <ele>317</ele>
        <time>2018-10-25T09:23:31.000Z</time>
      </trkpt>
      <trkpt lat="45.88294" lon="1.28215">
        <ele>317.1</ele>
        <time>2018-10-25T09:23:34.000Z</time>
      </trkpt>
      <trkpt lat="45.88289" lon="1.28196">
        <ele>317.3</ele>
        <time>2018-10-25T09:23:37.000Z</time>
      </trkpt>
      <trkpt lat="45.88279" lon="1.28184">
        <ele>317.4</ele>
        <time>2018-10-25T09:23:40.000Z</time>
      </trkpt>
      <trkpt lat="45.88267" lon="1.28184">
        <ele>317.4</ele>
        <time>2018-10-25T09:23:43.000Z</time>
      </trkpt>
      <trkpt lat="45.88254" lon="1.28184">
        <ele>317.4</ele>
        <time>2018-10-25T09:23:46.000Z</time>
      </trkpt>
      <trkpt lat="45.88243" lon="1.28176">
        <ele>317.3</ele>
        <time>2018-10-25T09:23:49.000Z</time>
      </trkpt>
      <trkpt lat="45.88232" lon="1.28168">
        <ele>317.1</ele>
        <time>2018-10-25T09:23:52.000Z</time>
      </trkpt>
      <trkpt lat="45.88221" lon="1.28167">
        <ele>317</ele>
        <time>2018-10-25T09:23:55.000Z</time>
      </trkpt>
      <trkpt lat="45.8821" lon="1.28164">
        <ele>316.8</ele>
        <time>2018-10-25T09:23:58.000Z</time>
      </trkpt>
      <trkpt lat="45.882" lon="1.28155">
        <ele>316.7</ele>
        <time>2018-10-25T09:24:01.000Z</time>
      </trkpt>
      <trkpt lat="45.88192" lon="1.28142">
        <ele>316.5</ele>
        <time>2018-10-25T09:24:04.000Z</time>
      </trkpt>
      <trkpt lat="45.88183" lon="1.28129">
        <ele>316.4</ele>
        <time>2018-10-25T09:24:07.000Z</time>
      </trkpt>
      <trkpt lat="45.88173" lon="1.28116">
        <ele>316.4</ele>
        <time>2018-10-25T09:24:10.000Z</time>
      </trkpt>
      <trkpt lat="45.88162" lon="1.28105">
        <ele>316.5</ele>
        <time>2018-10-25T09:24:13.000Z</time>
      </trkpt>
      <trkpt lat="45.88152" lon="1.28094">
        <ele>316.6</ele>
        <time>2018-10-25T09:24:16.000Z</time>
      </trkpt>
      <trkpt lat="45.88146" lon="1.28083">
        <ele>316.8</ele>
        <time>2018-10-25T09:24:18.000Z</time>
      </trkpt>
      <trkpt lat="45.88142" lon="1.28071">
        <ele>317</ele>
        <time>2018-10-25T09:24:20.000Z</time>
      </trkpt>
      <trkpt lat="45.8814" lon="1.28063">
        <ele>317.1</ele>
        <time>2018-10-25T09:24:22.000Z</time>
      </trkpt>
      <trkpt lat="45.88134" lon="1.28053">
        <ele>317.2</ele>
        <time>2018-10-25T09:24:24.000Z</time>
      </trkpt>
      <trkpt lat="45.88128" lon="1.28042">
        <ele>317.2</ele>
        <time>2018-10-25T09:24:26.000Z</time>
      </trkpt>
      <trkpt lat="45.88121" lon="1.2803">
        <ele>317.2</ele>
        <time>2018-10-25T09:24:28.000Z</time>
      </trkpt>
      <trkpt lat="45.88118" lon="1.28018">
        <ele>317.2</ele>
        <time>2018-10-25T09:24:30.000Z</time>
      </trkpt>
      <trkpt lat="45.88118" lon="1.28007">
        <ele>317.2</ele>
        <time>2018-10-25T09:24:32.000Z</time>
      </trkpt>
      <trkpt lat="45.88115" lon="1.27995">
        <ele>317.1</ele>
        <time>2018-10-25T09:24:34.000Z</time>
      </trkpt>
      <trkpt lat="45.88113" lon="1.27983">
        <ele>317.1</ele>
        <time>2018-10-25T09:24:36.000Z</time>
      </trkpt>
      <trkpt lat="45.8811" lon="1.27971">
        <ele>317.2</ele>
        <time>2018-10-25T09:24:38.000Z</time>
      </trkpt>
      <trkpt lat="45.88106" lon="1.27959">
        <ele>317.2</ele>
        <time>2018-10-25T09:24:40.000Z</time>
      </trkpt>
      <trkpt lat="45.88102" lon="1.2795">
        <ele>317.3</ele>
        <time>2018-10-25T09:24:42.000Z</time>
      </trkpt>
      <trkpt lat="45.88096" lon="1.27941">
        <ele>317.5</ele>
        <time>2018-10-25T09:24:44.000Z</time>
      </trkpt>
      <trkpt lat="45.8809" lon="1.2793">
        <ele>317.6</ele>
        <time>2018-10-25T09:24:46.000Z</time>
      </trkpt>
      <trkpt lat="45.88084" lon="1.27921">
        <ele>317.7</ele>
        <time>2018-10-25T09:24:48.000Z</time>
      </trkpt>
      <trkpt lat="45.88077" lon="1.27916">
        <ele>317.8</ele>
        <time>2018-10-25T09:24:50.000Z</time>
      </trkpt>
      <trkpt lat="45.8807" lon="1.27913">
        <ele>317.8</ele>
        <time>2018-10-25T09:24:52.000Z</time>
      </trkpt>
      <trkpt lat="45.88063" lon="1.27906">
        <ele>317.9</ele>
        <time>2018-10-25T09:24:54.000Z</time>
      </trkpt>
      <trkpt lat="45.88059" lon="1.27895">
        <ele>317.9</ele>
        <time>2018-10-25T09:24:56.000Z</time>
      </trkpt>
      <trkpt lat="45.88057" lon="1.27885">
        <ele>318</ele>
        <time>2018-10-25T09:24:58.000Z</time>
      </trkpt>
      <trkpt lat="45.88053" lon="1.27874">
        <ele>318.2</ele>
        <time>2018-10-25T09:25:00.000Z</time>
      </trkpt>
      <trkpt lat="45.88046" lon="1.27867">
        <ele>318.3</ele>
        <time>2018-10-25T09:25:02.000Z</time>
      </trkpt>
      <trkpt lat="45.88039" lon="1.27861">
        <ele>318.3</ele>
        <time>2018-10-25T09:25:04.000Z</time>
      </trkpt>
      <trkpt lat="45.88033" lon="1.27855">
        <ele>318.3</ele>
        <time>2018-10-25T09:25:06.000Z</time>
      </trkpt>
      <trkpt lat="45.88022" lon="1.27846">
        <ele>318.1</ele>
        <time>2018-10-25T09:25:09.000Z</time>
      </trkpt>
      <trkpt lat="45.8801" lon="1.27836">
        <ele>317.7</ele>
        <time>2018-10-25T09:25:12.000Z</time>
      </trkpt>
      <trkpt lat="45.87999" lon="1.27831">
        <ele>317.3</ele>
        <time>2018-10-25T09:25:15.000Z</time>
      </trkpt>
      <trkpt lat="45.87987" lon="1.27826">
        <ele>316.8</ele>
        <time>2018-10-25T09:25:18.000Z</time>
      </trkpt>
      <trkpt lat="45.8798" lon="1.27822">
        <ele>316.5</ele>
        <time>2018-10-25T09:25:21.000Z</time>
      </trkpt>
      <trkpt lat="45.87972" lon="1.27818">
        <ele>316.3</ele>
        <time>2018-10-25T09:25:24.000Z</time>
      </trkpt>
      <trkpt lat="45.87962" lon="1.27818">
        <ele>316.2</ele>
        <time>2018-10-25T09:25:27.000Z</time>
      </trkpt>
      <trkpt lat="45.87952" lon="1.27814">
        <ele>316.3</ele>
        <time>2018-10-25T09:25:30.000Z</time>
      </trkpt>
      <trkpt lat="45.87942" lon="1.27807">
        <ele>316.4</ele>
        <time>2018-10-25T09:25:33.000Z</time>
      </trkpt>
      <trkpt lat="45.87932" lon="1.27799">
        <ele>316.4</ele>
        <time>2018-10-25T09:25:36.000Z</time>
      </trkpt>
      <trkpt lat="45.87921" lon="1.27793">
        <ele>316.5</ele>
        <time>2018-10-25T09:25:39.000Z</time>
      </trkpt>
      <trkpt lat="45.8791" lon="1.2779">
        <ele>316.5</ele>
        <time>2018-10-25T09:25:42.000Z</time>
      </trkpt>
      <trkpt lat="45.87899" lon="1.27788">
        <ele>316.6</ele>
        <time>2018-10-25T09:25:45.000Z</time>
      </trkpt>
      <trkpt lat="45.87888" lon="1.27783">
        <ele>316.7</ele>
        <time>2018-10-25T09:25:48.000Z</time>
      </trkpt>
      <trkpt lat="45.87878" lon="1.27778">
        <ele>316.8</ele>
        <time>2018-10-25T09:25:51.000Z</time>
      </trkpt>
      <trkpt lat="45.8787" lon="1.27768">
        <ele>316.9</ele>
        <time>2018-10-25T09:25:54.000Z</time>
      </trkpt>
      <trkpt lat="45.87866" lon="1.27754">
        <ele>316.9</ele>
        <time>2018-10-25T09:25:57.000Z</time>
      </trkpt>
      <trkpt lat="45.87864" lon="1.27743">
        <ele>316.9</ele>
        <time>2018-10-25T09:26:00.000Z</time>
      </trkpt>
      <trkpt lat="45.87859" lon="1.27727">
        <ele>316.8</ele>
        <time>2018-10-25T09:26:03.000Z</time>
      </trkpt>
      <trkpt lat="45.87851" lon="1.27711">
        <ele>316.6</ele>
        <time>2018-10-25T09:26:06.000Z</time>
      </trkpt>
      <trkpt lat="45.87842" lon="1.27698">
        <ele>316.5</ele>
        <time>2018-10-25T09:26:09.000Z</time>
      </trkpt>
      <trkpt lat="45.8783" lon="1.27689">
        <ele>316.4</ele>
        <time>2018-10-25T09:26:12.000Z</time>
      </trkpt>
      <trkpt lat="45.87821" lon="1.27684">
        <ele>316.4</ele>
        <time>2018-10-25T09:26:15.000Z</time>
      </trkpt>
      <trkpt lat="45.87812" lon="1.27674">
        <ele>316.5</ele>
        <time>2018-10-25T09:26:18.000Z</time>
      </trkpt>
      <trkpt lat="45.87808" lon="1.27666">
        <ele>316.6</ele>
        <time>2018-10-25T09:26:21.000Z</time>
      </trkpt>
      <trkpt lat="45.87809" lon="1.2766">
        <ele>316.7</ele>
        <time>2018-10-25T09:26:24.000Z</time>
      </trkpt>
      <trkpt lat="45.87808" lon="1.27655">
        <ele>316.8</ele>
        <time>2018-10-25T09:26:35.000Z</time>
      </trkpt>
      <trkpt lat="45.87805" lon="1.27646">
        <ele>316.8</ele>
        <time>2018-10-25T09:26:38.000Z</time>
      </trkpt>
      <trkpt lat="45.87801" lon="1.27638">
        <ele>316.8</ele>
        <time>2018-10-25T09:26:41.000Z</time>
      </trkpt>
      <trkpt lat="45.87793" lon="1.27625">
        <ele>316.8</ele>
        <time>2018-10-25T09:26:44.000Z</time>
      </trkpt>
      <trkpt lat="45.87783" lon="1.27602">
        <ele>316.7</ele>
        <time>2018-10-25T09:26:47.000Z</time>
      </trkpt>
      <trkpt lat="45.87778" lon="1.27586">
        <ele>316.5</ele>
        <time>2018-10-25T09:26:50.000Z</time>
      </trkpt>
      <trkpt lat="45.87772" lon="1.27572">
        <ele>316.4</ele>
        <time>2018-10-25T09:26:53.000Z</time>
      </trkpt>
      <trkpt lat="45.8777" lon="1.27554">
        <ele>316.3</ele>
        <time>2018-10-25T09:26:56.000Z</time>
      </trkpt>
      <trkpt lat="45.87775" lon="1.27545">
        <ele>316.1</ele>
        <time>2018-10-25T09:26:59.000Z</time>
      </trkpt>
      <trkpt lat="45.87777" lon="1.27529">
        <ele>316.1</ele>
        <time>2018-10-25T09:27:02.000Z</time>
      </trkpt>
      <trkpt lat="45.8778" lon="1.27516">
        <ele>316.2</ele>
        <time>2018-10-25T09:27:05.000Z</time>
      </trkpt>
      <trkpt lat="45.87784" lon="1.27514">
        <ele>316.2</ele>
        <time>2018-10-25T09:27:08.000Z</time>
      </trkpt>
      <trkpt lat="45.87788" lon="1.27519">
        <ele>316.3</ele>
        <time>2018-10-25T09:27:11.000Z</time>
      </trkpt>
      <trkpt lat="45.87789" lon="1.27516">
        <ele>316.3</ele>
        <time>2018-10-25T09:27:30.000Z</time>
      </trkpt>
      <trkpt lat="45.87792" lon="1.27511">
        <ele>316.4</ele>
        <time>2018-10-25T09:27:33.000Z</time>
      </trkpt>
      <trkpt lat="45.87794" lon="1.27503">
        <ele>316.4</ele>
        <time>2018-10-25T09:27:36.000Z</time>
      </trkpt>
      <trkpt lat="45.87799" lon="1.27492">
        <ele>316.5</ele>
        <time>2018-10-25T09:27:39.000Z</time>
      </trkpt>
      <trkpt lat="45.87807" lon="1.27491">
        <ele>316.5</ele>
        <time>2018-10-25T09:27:42.000Z</time>
      </trkpt>
      <trkpt lat="45.87814" lon="1.27485">
        <ele>316.6</ele>
        <time>2018-10-25T09:27:48.000Z</time>
      </trkpt>
      <trkpt lat="45.87823" lon="1.27478">
        <ele>316.7</ele>
        <time>2018-10-25T09:27:49.000Z</time>
      </trkpt>
      <trkpt lat="45.87828" lon="1.27469">
        <ele>316.8</ele>
        <time>2018-10-25T09:27:51.000Z</time>
      </trkpt>
      <trkpt lat="45.87832" lon="1.27461">
        <ele>316.8</ele>
        <time>2018-10-25T09:27:54.000Z</time>
      </trkpt>
      <trkpt lat="45.87838" lon="1.27452">
        <ele>316.9</ele>
        <time>2018-10-25T09:27:57.000Z</time>
      </trkpt>
      <trkpt lat="45.87844" lon="1.27441">
        <ele>317.1</ele>
        <time>2018-10-25T09:28:00.000Z</time>
      </trkpt>
      <trkpt lat="45.87849" lon="1.2743">
        <ele>317.2</ele>
        <time>2018-10-25T09:28:03.000Z</time>
      </trkpt>
      <trkpt lat="45.87856" lon="1.27421">
        <ele>317.4</ele>
        <time>2018-10-25T09:28:06.000Z</time>
      </trkpt>
      <trkpt lat="45.87861" lon="1.27409">
        <ele>317.6</ele>
        <time>2018-10-25T09:28:09.000Z</time>
      </trkpt>
      <trkpt lat="45.87866" lon="1.27398">
        <ele>317.9</ele>
        <time>2018-10-25T09:28:12.000Z</time>
      </trkpt>
      <trkpt lat="45.8787" lon="1.27387">
        <ele>318.2</ele>
        <time>2018-10-25T09:28:15.000Z</time>
      </trkpt>
      <trkpt lat="45.87874" lon="1.27371">
        <ele>318.6</ele>
        <time>2018-10-25T09:28:18.000Z</time>
      </trkpt>
      <trkpt lat="45.87878" lon="1.27358">
        <ele>319.1</ele>
        <time>2018-10-25T09:28:21.000Z</time>
      </trkpt>
      <trkpt lat="45.87884" lon="1.27345">
        <ele>319.6</ele>
        <time>2018-10-25T09:28:24.000Z</time>
      </trkpt>
      <trkpt lat="45.87889" lon="1.27332">
        <ele>320</ele>
        <time>2018-10-25T09:28:27.000Z</time>
      </trkpt>
      <trkpt lat="45.87893" lon="1.27321">
        <ele>320.5</ele>
        <time>2018-10-25T09:28:30.000Z</time>
      </trkpt>
      <trkpt lat="45.87898" lon="1.2731">
        <ele>321</ele>
        <time>2018-10-25T09:28:33.000Z</time>
      </trkpt>
      <trkpt lat="45.87903" lon="1.27299">
        <ele>321.5</ele>
        <time>2018-10-25T09:28:36.000Z</time>
      </trkpt>
      <trkpt lat="45.87908" lon="1.27287">
        <ele>322</ele>
        <time>2018-10-25T09:28:39.000Z</time>
      </trkpt>
      <trkpt lat="45.87912" lon="1.27276">
        <ele>322.4</ele>
        <time>2018-10-25T09:28:42.000Z</time>
      </trkpt>
      <trkpt lat="45.87917" lon="1.27265">
        <ele>322.9</ele>
        <time>2018-10-25T09:28:45.000Z</time>
      </trkpt>
      <trkpt lat="45.8792" lon="1.27253">
        <ele>323.2</ele>
        <time>2018-10-25T09:28:48.000Z</time>
      </trkpt>
      <trkpt lat="45.87925" lon="1.27241">
        <ele>323.6</ele>
        <time>2018-10-25T09:28:51.000Z</time>
      </trkpt>
      <trkpt lat="45.87927" lon="1.27228">
        <ele>323.9</ele>
        <time>2018-10-25T09:28:54.000Z</time>
      </trkpt>
      <trkpt lat="45.87928" lon="1.27214">
        <ele>324.1</ele>
        <time>2018-10-25T09:28:57.000Z</time>
      </trkpt>
      <trkpt lat="45.87934" lon="1.27204">
        <ele>324.3</ele>
        <time>2018-10-25T09:29:00.000Z</time>
      </trkpt>
      <trkpt lat="45.87941" lon="1.27199">
        <ele>324.6</ele>
        <time>2018-10-25T09:29:03.000Z</time>
      </trkpt>
      <trkpt lat="45.87947" lon="1.27189">
        <ele>324.8</ele>
        <time>2018-10-25T09:29:06.000Z</time>
      </trkpt>
      <trkpt lat="45.87951" lon="1.27178">
        <ele>325</ele>
        <time>2018-10-25T09:29:09.000Z</time>
      </trkpt>
      <trkpt lat="45.87955" lon="1.27165">
        <ele>325.3</ele>
        <time>2018-10-25T09:29:12.000Z</time>
      </trkpt>
      <trkpt lat="45.8796" lon="1.27154">
        <ele>325.7</ele>
        <time>2018-10-25T09:29:15.000Z</time>
      </trkpt>
      <trkpt lat="45.87965" lon="1.27144">
        <ele>326.1</ele>
        <time>2018-10-25T09:29:18.000Z</time>
      </trkpt>
      <trkpt lat="45.8797" lon="1.27133">
        <ele>326.6</ele>
        <time>2018-10-25T09:29:21.000Z</time>
      </trkpt>
      <trkpt lat="45.87975" lon="1.27121">
        <ele>327.1</ele>
        <time>2018-10-25T09:29:24.000Z</time>
      </trkpt>
      <trkpt lat="45.87979" lon="1.27109">
        <ele>327.7</ele>
        <time>2018-10-25T09:29:27.000Z</time>
      </trkpt>
      <trkpt lat="45.87984" lon="1.27097">
        <ele>328.2</ele>
        <time>2018-10-25T09:29:30.000Z</time>
      </trkpt>
      <trkpt lat="45.87989" lon="1.27086">
        <ele>328.7</ele>
        <time>2018-10-25T09:29:33.000Z</time>
      </trkpt>
      <trkpt lat="45.87993" lon="1.27075">
        <ele>329.2</ele>
        <time>2018-10-25T09:29:36.000Z</time>
      </trkpt>
      <trkpt lat="45.87998" lon="1.27064">
        <ele>329.7</ele>
        <time>2018-10-25T09:29:39.000Z</time>
      </trkpt>
      <trkpt lat="45.88002" lon="1.27053">
        <ele>330.1</ele>
        <time>2018-10-25T09:29:42.000Z</time>
      </trkpt>
      <trkpt lat="45.88007" lon="1.27043">
        <ele>330.4</ele>
        <time>2018-10-25T09:29:45.000Z</time>
      </trkpt>
      <trkpt lat="45.88012" lon="1.27031">
        <ele>330.7</ele>
        <time>2018-10-25T09:29:48.000Z</time>
      </trkpt>
      <trkpt lat="45.88017" lon="1.27019">
        <ele>330.9</ele>
        <time>2018-10-25T09:29:51.000Z</time>
      </trkpt>
      <trkpt lat="45.88022" lon="1.27007">
        <ele>331.1</ele>
        <time>2018-10-25T09:29:54.000Z</time>
      </trkpt>
      <trkpt lat="45.88027" lon="1.26996">
        <ele>331.3</ele>
        <time>2018-10-25T09:29:57.000Z</time>
      </trkpt>
      <trkpt lat="45.88028" lon="1.26984">
        <ele>331.6</ele>
        <time>2018-10-25T09:30:00.000Z</time>
      </trkpt>
      <trkpt lat="45.88023" lon="1.26973">
        <ele>331.9</ele>
        <time>2018-10-25T09:30:03.000Z</time>
      </trkpt>
      <trkpt lat="45.88015" lon="1.26964">
        <ele>332.2</ele>
        <time>2018-10-25T09:30:06.000Z</time>
      </trkpt>
      <trkpt lat="45.88007" lon="1.26955">
        <ele>332.6</ele>
        <time>2018-10-25T09:30:09.000Z</time>
      </trkpt>
      <trkpt lat="45.88" lon="1.26945">
        <ele>333</ele>
        <time>2018-10-25T09:30:12.000Z</time>
      </trkpt>
      <trkpt lat="45.87994" lon="1.26933">
        <ele>333.5</ele>
        <time>2018-10-25T09:30:15.000Z</time>
      </trkpt>
      <trkpt lat="45.87989" lon="1.2692">
        <ele>334</ele>
        <time>2018-10-25T09:30:18.000Z</time>
      </trkpt>
      <trkpt lat="45.87986" lon="1.26909">
        <ele>334.5</ele>
        <time>2018-10-25T09:30:21.000Z</time>
      </trkpt>
      <trkpt lat="45.87982" lon="1.26897">
        <ele>335.1</ele>
        <time>2018-10-25T09:30:24.000Z</time>
      </trkpt>
      <trkpt lat="45.87978" lon="1.26885">
        <ele>335.6</ele>
        <time>2018-10-25T09:30:27.000Z</time>
      </trkpt>
      <trkpt lat="45.87975" lon="1.26872">
        <ele>336.1</ele>
        <time>2018-10-25T09:30:30.000Z</time>
      </trkpt>
      <trkpt lat="45.87971" lon="1.2686">
        <ele>336.6</ele>
        <time>2018-10-25T09:30:33.000Z</time>
      </trkpt>
      <trkpt lat="45.87968" lon="1.26848">
        <ele>337.2</ele>
        <time>2018-10-25T09:30:36.000Z</time>
      </trkpt>
      <trkpt lat="45.87964" lon="1.26837">
        <ele>337.8</ele>
        <time>2018-10-25T09:30:39.000Z</time>
      </trkpt>
      <trkpt lat="45.8796" lon="1.26825">
        <ele>338.4</ele>
        <time>2018-10-25T09:30:42.000Z</time>
      </trkpt>
      <trkpt lat="45.87957" lon="1.26812">
        <ele>339</ele>
        <time>2018-10-25T09:30:45.000Z</time>
      </trkpt>
      <trkpt lat="45.87954" lon="1.26799">
        <ele>339.5</ele>
        <time>2018-10-25T09:30:48.000Z</time>
      </trkpt>
      <trkpt lat="45.87956" lon="1.26785">
        <ele>340</ele>
        <time>2018-10-25T09:30:51.000Z</time>
      </trkpt>
      <trkpt lat="45.87964" lon="1.26772">
        <ele>340.3</ele>
        <time>2018-10-25T09:30:54.000Z</time>
      </trkpt>
      <trkpt lat="45.87975" lon="1.26757">
        <ele>340.5</ele>
        <time>2018-10-25T09:30:57.000Z</time>
      </trkpt>
      <trkpt lat="45.87987" lon="1.26735">
        <ele>340.5</ele>
        <time>2018-10-25T09:31:00.000Z</time>
      </trkpt>
      <trkpt lat="45.88002" lon="1.26708">
        <ele>340.1</ele>
        <time>2018-10-25T09:31:03.000Z</time>
      </trkpt>
      <trkpt lat="45.88017" lon="1.26681">
        <ele>339.7</ele>
        <time>2018-10-25T09:31:06.000Z</time>
      </trkpt>
      <trkpt lat="45.88029" lon="1.26657">
        <ele>339.2</ele>
        <time>2018-10-25T09:31:09.000Z</time>
      </trkpt>
      <trkpt lat="45.88041" lon="1.26635">
        <ele>338.8</ele>
        <time>2018-10-25T09:31:12.000Z</time>
      </trkpt>
      <trkpt lat="45.8805" lon="1.26609">
        <ele>338.6</ele>
        <time>2018-10-25T09:31:15.000Z</time>
      </trkpt>
      <trkpt lat="45.88054" lon="1.26582">
        <ele>338.6</ele>
        <time>2018-10-25T09:31:18.000Z</time>
      </trkpt>
      <trkpt lat="45.88051" lon="1.26558">
        <ele>338.7</ele>
        <time>2018-10-25T09:31:21.000Z</time>
      </trkpt>
      <trkpt lat="45.88046" lon="1.26536">
        <ele>338.7</ele>
        <time>2018-10-25T09:31:24.000Z</time>
      </trkpt>
      <trkpt lat="45.88038" lon="1.26516">
        <ele>338.8</ele>
        <time>2018-10-25T09:31:27.000Z</time>
      </trkpt>
      <trkpt lat="45.88033" lon="1.26497">
        <ele>338.7</ele>
        <time>2018-10-25T09:31:30.000Z</time>
      </trkpt>
      <trkpt lat="45.88027" lon="1.2648">
        <ele>338.7</ele>
        <time>2018-10-25T09:31:33.000Z</time>
      </trkpt>
      <trkpt lat="45.88022" lon="1.26463">
        <ele>338.7</ele>
        <time>2018-10-25T09:31:36.000Z</time>
      </trkpt>
      <trkpt lat="45.88019" lon="1.26451">
        <ele>338.9</ele>
        <time>2018-10-25T09:31:39.000Z</time>
      </trkpt>
      <trkpt lat="45.88016" lon="1.26458">
        <ele>339</ele>
        <time>2018-10-25T09:31:42.000Z</time>
      </trkpt>
      <trkpt lat="45.8802" lon="1.26471">
        <ele>339.1</ele>
        <time>2018-10-25T09:31:45.000Z</time>
      </trkpt>
      <trkpt lat="45.88024" lon="1.26482">
        <ele>339.1</ele>
        <time>2018-10-25T09:31:47.000Z</time>
      </trkpt>
      <trkpt lat="45.8803" lon="1.26498">
        <ele>338.9</ele>
        <time>2018-10-25T09:31:50.000Z</time>
      </trkpt>
      <trkpt lat="45.88035" lon="1.26514">
        <ele>338.8</ele>
        <time>2018-10-25T09:31:53.000Z</time>
      </trkpt>
      <trkpt lat="45.88041" lon="1.26531">
        <ele>338.7</ele>
        <time>2018-10-25T09:31:56.000Z</time>
      </trkpt>
      <trkpt lat="45.88047" lon="1.2655">
        <ele>338.6</ele>
        <time>2018-10-25T09:31:59.000Z</time>
      </trkpt>
      <trkpt lat="45.88047" lon="1.26591">
        <ele>338.8</ele>
        <time>2018-10-25T09:32:06.000Z</time>
      </trkpt>
      <trkpt lat="45.88044" lon="1.26608">
        <ele>338.8</ele>
        <time>2018-10-25T09:32:08.000Z</time>
      </trkpt>
      <trkpt lat="45.88036" lon="1.26625">
        <ele>338.8</ele>
        <time>2018-10-25T09:32:11.000Z</time>
      </trkpt>
      <trkpt lat="45.88029" lon="1.26639">
        <ele>338.7</ele>
        <time>2018-10-25T09:32:14.000Z</time>
      </trkpt>
      <trkpt lat="45.88022" lon="1.26649">
        <ele>338.7</ele>
        <time>2018-10-25T09:32:17.000Z</time>
      </trkpt>
      <trkpt lat="45.8802" lon="1.26656">
        <ele>338.6</ele>
        <time>2018-10-25T09:32:20.000Z</time>
      </trkpt>
      <trkpt lat="45.88021" lon="1.26656">
        <ele>338.6</ele>
        <time>2018-10-25T09:32:30.000Z</time>
      </trkpt>
    </trkseg>
  </trk>
</gpx>